<?xml version="1.0" encoding="UTF-8" standalone="no" ?>
<gpx xmlns="http://www.topografix.com/GPX/1/1" xmlns:xsi="http://www.w3.org/2001/XMLSchema-instance" xsi:schemaLocation="http://www.topografix.com/GPX/1/1 http://www.topografix.com/GPX/1/1/gpx.xsd" version="1.1" creator="VisuGPX - https://www.visugpx.com">
  <metadata>
    <name>dommartin lentilly</name>
    <desc><![CDATA[circuit roulant peu de difficultés, beaucoup de goudron]]></desc>
  </metadata>
  <trk>
    <name><![CDATA[12-OCT-13 12:23:53]]></name>
    <trkseg>
      <trkpt lat="45.84737" lon="4.72605">
        <ele>291.9</ele>
        <time>2013-09-14T10:34:05Z</time>
      </trkpt>
      <trkpt lat="45.84737" lon="4.72605">
        <ele>285.17</ele>
        <time>2013-09-14T10:34:06Z</time>
      </trkpt>
      <trkpt lat="45.84737" lon="4.72605">
        <ele>279.88</ele>
        <time>2013-09-14T10:34:09Z</time>
      </trkpt>
      <trkpt lat="45.84686" lon="4.72603">
        <ele>268.35</ele>
        <time>2013-10-12T07:41:34Z</time>
      </trkpt>
      <trkpt lat="45.84686" lon="4.72605">
        <ele>267.86</ele>
        <time>2013-10-12T07:41:35Z</time>
      </trkpt>
      <trkpt lat="45.84713" lon="4.72593">
        <ele>267.86</ele>
        <time>2013-10-12T07:42:03Z</time>
      </trkpt>
      <trkpt lat="45.84719" lon="4.7259">
        <ele>268.35</ele>
        <time>2013-10-12T07:42:34Z</time>
      </trkpt>
      <trkpt lat="45.84727" lon="4.72593">
        <ele>267.38</ele>
        <time>2013-10-12T07:43:04Z</time>
      </trkpt>
      <trkpt lat="45.84728" lon="4.72592">
        <ele>267.38</ele>
        <time>2013-10-12T07:43:28Z</time>
      </trkpt>
      <trkpt lat="45.84728" lon="4.72592">
        <ele>266.9</ele>
        <time>2013-10-12T07:43:53Z</time>
      </trkpt>
      <trkpt lat="45.84728" lon="4.72592">
        <ele>266.9</ele>
        <time>2013-10-12T07:44:18Z</time>
      </trkpt>
      <trkpt lat="45.84728" lon="4.72592">
        <ele>261.62</ele>
        <time>2013-10-12T07:44:21Z</time>
      </trkpt>
      <trkpt lat="45.84728" lon="4.72592">
        <ele>270.75</ele>
        <time>2013-10-12T07:44:22Z</time>
      </trkpt>
      <trkpt lat="45.84728" lon="4.72592">
        <ele>266.9</ele>
        <time>2013-10-12T07:44:23Z</time>
      </trkpt>
      <trkpt lat="45.84728" lon="4.72592">
        <ele>269.79</ele>
        <time>2013-10-12T07:44:27Z</time>
      </trkpt>
      <trkpt lat="45.84728" lon="4.72592">
        <ele>266.9</ele>
        <time>2013-10-12T07:44:29Z</time>
      </trkpt>
      <trkpt lat="45.84727" lon="4.72592">
        <ele>263.06</ele>
        <time>2013-10-12T07:44:35Z</time>
      </trkpt>
      <trkpt lat="45.84728" lon="4.72592">
        <ele>266.9</ele>
        <time>2013-10-12T07:44:36Z</time>
      </trkpt>
      <trkpt lat="45.84727" lon="4.72594">
        <ele>264.02</ele>
        <time>2013-10-12T07:44:38Z</time>
      </trkpt>
      <trkpt lat="45.84726" lon="4.72595">
        <ele>266.9</ele>
        <time>2013-10-12T07:44:41Z</time>
      </trkpt>
      <trkpt lat="45.84726" lon="4.72595">
        <ele>264.98</ele>
        <time>2013-10-12T07:44:58Z</time>
      </trkpt>
      <trkpt lat="45.84727" lon="4.72594">
        <ele>266.42</ele>
        <time>2013-10-12T07:45:11Z</time>
      </trkpt>
      <trkpt lat="45.84728" lon="4.72594">
        <ele>266.9</ele>
        <time>2013-10-12T07:45:21Z</time>
      </trkpt>
      <trkpt lat="45.84727" lon="4.72595">
        <ele>266.42</ele>
        <time>2013-10-12T07:45:31Z</time>
      </trkpt>
      <trkpt lat="45.84727" lon="4.72595">
        <ele>266.9</ele>
        <time>2013-10-12T07:45:50Z</time>
      </trkpt>
      <trkpt lat="45.84727" lon="4.72595">
        <ele>266.42</ele>
        <time>2013-10-12T07:45:54Z</time>
      </trkpt>
      <trkpt lat="45.84726" lon="4.72593">
        <ele>266.42</ele>
        <time>2013-10-12T07:45:58Z</time>
      </trkpt>
      <trkpt lat="45.84711" lon="4.72572">
        <ele>263.54</ele>
        <time>2013-10-12T07:46:07Z</time>
      </trkpt>
      <trkpt lat="45.84704" lon="4.72548">
        <ele>264.5</ele>
        <time>2013-10-12T07:46:14Z</time>
      </trkpt>
      <trkpt lat="45.84703" lon="4.72544">
        <ele>264.5</ele>
        <time>2013-10-12T07:46:15Z</time>
      </trkpt>
      <trkpt lat="45.84677" lon="4.72539">
        <ele>264.5</ele>
        <time>2013-10-12T07:46:22Z</time>
      </trkpt>
      <trkpt lat="45.84623" lon="4.72536">
        <ele>262.1</ele>
        <time>2013-10-12T07:46:32Z</time>
      </trkpt>
      <trkpt lat="45.84617" lon="4.72534">
        <ele>261.62</ele>
        <time>2013-10-12T07:46:33Z</time>
      </trkpt>
      <trkpt lat="45.84613" lon="4.7253">
        <ele>261.62</ele>
        <time>2013-10-12T07:46:34Z</time>
      </trkpt>
      <trkpt lat="45.84611" lon="4.72523">
        <ele>262.1</ele>
        <time>2013-10-12T07:46:35Z</time>
      </trkpt>
      <trkpt lat="45.8461" lon="4.72515">
        <ele>263.06</ele>
        <time>2013-10-12T07:46:36Z</time>
      </trkpt>
      <trkpt lat="45.84611" lon="4.72509">
        <ele>264.02</ele>
        <time>2013-10-12T07:46:37Z</time>
      </trkpt>
      <trkpt lat="45.84612" lon="4.72503">
        <ele>264.5</ele>
        <time>2013-10-12T07:46:38Z</time>
      </trkpt>
      <trkpt lat="45.84605" lon="4.72476">
        <ele>266.42</ele>
        <time>2013-10-12T07:46:45Z</time>
      </trkpt>
      <trkpt lat="45.8457" lon="4.72438">
        <ele>263.54</ele>
        <time>2013-10-12T07:46:55Z</time>
      </trkpt>
      <trkpt lat="45.84566" lon="4.72435">
        <ele>262.58</ele>
        <time>2013-10-12T07:46:56Z</time>
      </trkpt>
      <trkpt lat="45.84561" lon="4.72434">
        <ele>262.1</ele>
        <time>2013-10-12T07:46:57Z</time>
      </trkpt>
      <trkpt lat="45.84557" lon="4.72435">
        <ele>261.62</ele>
        <time>2013-10-12T07:46:58Z</time>
      </trkpt>
      <trkpt lat="45.84552" lon="4.72436">
        <ele>261.14</ele>
        <time>2013-10-12T07:46:59Z</time>
      </trkpt>
      <trkpt lat="45.84548" lon="4.72435">
        <ele>260.17</ele>
        <time>2013-10-12T07:47:00Z</time>
      </trkpt>
      <trkpt lat="45.84546" lon="4.72432">
        <ele>260.17</ele>
        <time>2013-10-12T07:47:01Z</time>
      </trkpt>
      <trkpt lat="45.84543" lon="4.72428">
        <ele>259.69</ele>
        <time>2013-10-12T07:47:02Z</time>
      </trkpt>
      <trkpt lat="45.8454" lon="4.72424">
        <ele>259.69</ele>
        <time>2013-10-12T07:47:03Z</time>
      </trkpt>
      <trkpt lat="45.84537" lon="4.7242">
        <ele>259.21</ele>
        <time>2013-10-12T07:47:04Z</time>
      </trkpt>
      <trkpt lat="45.84533" lon="4.72417">
        <ele>259.21</ele>
        <time>2013-10-12T07:47:05Z</time>
      </trkpt>
      <trkpt lat="45.84531" lon="4.72414">
        <ele>258.25</ele>
        <time>2013-10-12T07:47:06Z</time>
      </trkpt>
      <trkpt lat="45.8453" lon="4.72411">
        <ele>258.25</ele>
        <time>2013-10-12T07:47:07Z</time>
      </trkpt>
      <trkpt lat="45.84525" lon="4.72402">
        <ele>256.33</ele>
        <time>2013-10-12T07:47:11Z</time>
      </trkpt>
      <trkpt lat="45.84529" lon="4.72396">
        <ele>257.77</ele>
        <time>2013-10-12T07:47:15Z</time>
      </trkpt>
      <trkpt lat="45.84531" lon="4.72395">
        <ele>256.81</ele>
        <time>2013-10-12T07:47:16Z</time>
      </trkpt>
      <trkpt lat="45.84534" lon="4.72394">
        <ele>256.81</ele>
        <time>2013-10-12T07:47:17Z</time>
      </trkpt>
      <trkpt lat="45.84536" lon="4.72392">
        <ele>257.77</ele>
        <time>2013-10-12T07:47:18Z</time>
      </trkpt>
      <trkpt lat="45.84564" lon="4.72364">
        <ele>261.14</ele>
        <time>2013-10-12T07:47:29Z</time>
      </trkpt>
      <trkpt lat="45.8459" lon="4.72338">
        <ele>264.02</ele>
        <time>2013-10-12T07:47:41Z</time>
      </trkpt>
      <trkpt lat="45.84607" lon="4.72329">
        <ele>265.94</ele>
        <time>2013-10-12T07:47:49Z</time>
      </trkpt>
      <trkpt lat="45.84638" lon="4.72325">
        <ele>267.86</ele>
        <time>2013-10-12T07:48:01Z</time>
      </trkpt>
      <trkpt lat="45.84657" lon="4.72324">
        <ele>270.27</ele>
        <time>2013-10-12T07:48:11Z</time>
      </trkpt>
      <trkpt lat="45.84675" lon="4.7232">
        <ele>271.23</ele>
        <time>2013-10-12T07:48:19Z</time>
      </trkpt>
      <trkpt lat="45.84697" lon="4.72315">
        <ele>272.67</ele>
        <time>2013-10-12T07:48:28Z</time>
      </trkpt>
      <trkpt lat="45.8472" lon="4.72317">
        <ele>274.11</ele>
        <time>2013-10-12T07:48:39Z</time>
      </trkpt>
      <trkpt lat="45.84722" lon="4.72317">
        <ele>274.11</ele>
        <time>2013-10-12T07:48:40Z</time>
      </trkpt>
      <trkpt lat="45.84725" lon="4.72317">
        <ele>273.63</ele>
        <time>2013-10-12T07:48:41Z</time>
      </trkpt>
      <trkpt lat="45.84727" lon="4.72317">
        <ele>274.11</ele>
        <time>2013-10-12T07:48:42Z</time>
      </trkpt>
      <trkpt lat="45.84728" lon="4.72317">
        <ele>274.11</ele>
        <time>2013-10-12T07:48:43Z</time>
      </trkpt>
      <trkpt lat="45.84732" lon="4.72317">
        <ele>274.11</ele>
        <time>2013-10-12T07:48:45Z</time>
      </trkpt>
      <trkpt lat="45.84735" lon="4.72318">
        <ele>274.11</ele>
        <time>2013-10-12T07:48:46Z</time>
      </trkpt>
      <trkpt lat="45.84752" lon="4.72318">
        <ele>275.07</ele>
        <time>2013-10-12T07:48:55Z</time>
      </trkpt>
      <trkpt lat="45.84771" lon="4.7231">
        <ele>276.04</ele>
        <time>2013-10-12T07:49:03Z</time>
      </trkpt>
      <trkpt lat="45.8479" lon="4.72298">
        <ele>276.52</ele>
        <time>2013-10-12T07:49:10Z</time>
      </trkpt>
      <trkpt lat="45.84813" lon="4.72268">
        <ele>277.96</ele>
        <time>2013-10-12T07:49:20Z</time>
      </trkpt>
      <trkpt lat="45.84835" lon="4.72251">
        <ele>278.44</ele>
        <time>2013-10-12T07:49:29Z</time>
      </trkpt>
      <trkpt lat="45.84863" lon="4.72236">
        <ele>285.17</ele>
        <time>2013-10-12T07:49:39Z</time>
      </trkpt>
      <trkpt lat="45.84866" lon="4.72234">
        <ele>279.88</ele>
        <time>2013-10-12T07:49:40Z</time>
      </trkpt>
      <trkpt lat="45.84873" lon="4.7223">
        <ele>278.44</ele>
        <time>2013-10-12T07:49:42Z</time>
      </trkpt>
      <trkpt lat="45.84895" lon="4.72212">
        <ele>277.48</ele>
        <time>2013-10-12T07:49:49Z</time>
      </trkpt>
      <trkpt lat="45.84899" lon="4.7221">
        <ele>277.96</ele>
        <time>2013-10-12T07:49:50Z</time>
      </trkpt>
      <trkpt lat="45.84907" lon="4.72206">
        <ele>277.96</ele>
        <time>2013-10-12T07:49:52Z</time>
      </trkpt>
      <trkpt lat="45.84911" lon="4.72205">
        <ele>277.48</ele>
        <time>2013-10-12T07:49:53Z</time>
      </trkpt>
      <trkpt lat="45.84916" lon="4.72205">
        <ele>276.52</ele>
        <time>2013-10-12T07:49:54Z</time>
      </trkpt>
      <trkpt lat="45.8492" lon="4.72205">
        <ele>276.52</ele>
        <time>2013-10-12T07:49:55Z</time>
      </trkpt>
      <trkpt lat="45.84968" lon="4.72216">
        <ele>276.52</ele>
        <time>2013-10-12T07:50:06Z</time>
      </trkpt>
      <trkpt lat="45.8499" lon="4.72219">
        <ele>276.04</ele>
        <time>2013-10-12T07:50:11Z</time>
      </trkpt>
      <trkpt lat="45.84998" lon="4.72219">
        <ele>276.04</ele>
        <time>2013-10-12T07:50:13Z</time>
      </trkpt>
      <trkpt lat="45.8505" lon="4.72225">
        <ele>275.56</ele>
        <time>2013-10-12T07:50:26Z</time>
      </trkpt>
      <trkpt lat="45.85062" lon="4.72224">
        <ele>275.07</ele>
        <time>2013-10-12T07:50:29Z</time>
      </trkpt>
      <trkpt lat="45.8507" lon="4.72225">
        <ele>275.07</ele>
        <time>2013-10-12T07:50:31Z</time>
      </trkpt>
      <trkpt lat="45.85075" lon="4.72225">
        <ele>275.56</ele>
        <time>2013-10-12T07:50:32Z</time>
      </trkpt>
      <trkpt lat="45.85112" lon="4.72229">
        <ele>275.07</ele>
        <time>2013-10-12T07:50:42Z</time>
      </trkpt>
      <trkpt lat="45.85137" lon="4.72231">
        <ele>275.56</ele>
        <time>2013-10-12T07:50:48Z</time>
      </trkpt>
      <trkpt lat="45.85141" lon="4.72233">
        <ele>276.04</ele>
        <time>2013-10-12T07:50:49Z</time>
      </trkpt>
      <trkpt lat="45.85164" lon="4.72252">
        <ele>277.48</ele>
        <time>2013-10-12T07:50:57Z</time>
      </trkpt>
      <trkpt lat="45.85181" lon="4.72278">
        <ele>278.92</ele>
        <time>2013-10-12T07:51:06Z</time>
      </trkpt>
      <trkpt lat="45.85202" lon="4.72291">
        <ele>278.92</ele>
        <time>2013-10-12T07:51:14Z</time>
      </trkpt>
      <trkpt lat="45.85237" lon="4.72299">
        <ele>277.96</ele>
        <time>2013-10-12T07:51:24Z</time>
      </trkpt>
      <trkpt lat="45.85245" lon="4.72298">
        <ele>277.48</ele>
        <time>2013-10-12T07:51:26Z</time>
      </trkpt>
      <trkpt lat="45.85257" lon="4.72291">
        <ele>277</ele>
        <time>2013-10-12T07:51:29Z</time>
      </trkpt>
      <trkpt lat="45.85265" lon="4.72288">
        <ele>277</ele>
        <time>2013-10-12T07:51:30Z</time>
      </trkpt>
      <trkpt lat="45.8527" lon="4.72283">
        <ele>276.04</ele>
        <time>2013-10-12T07:51:31Z</time>
      </trkpt>
      <trkpt lat="45.85278" lon="4.7227">
        <ele>275.07</ele>
        <time>2013-10-12T07:51:33Z</time>
      </trkpt>
      <trkpt lat="45.85283" lon="4.72263">
        <ele>275.07</ele>
        <time>2013-10-12T07:51:34Z</time>
      </trkpt>
      <trkpt lat="45.85296" lon="4.72243">
        <ele>273.15</ele>
        <time>2013-10-12T07:51:37Z</time>
      </trkpt>
      <trkpt lat="45.85301" lon="4.72239">
        <ele>273.15</ele>
        <time>2013-10-12T07:51:38Z</time>
      </trkpt>
      <trkpt lat="45.85323" lon="4.72234">
        <ele>270.27</ele>
        <time>2013-10-12T07:51:44Z</time>
      </trkpt>
      <trkpt lat="45.85391" lon="4.72254">
        <ele>268.35</ele>
        <time>2013-10-12T07:51:56Z</time>
      </trkpt>
      <trkpt lat="45.85408" lon="4.72256">
        <ele>268.35</ele>
        <time>2013-10-12T07:51:57Z</time>
      </trkpt>
      <trkpt lat="45.8542" lon="4.72257">
        <ele>268.83</ele>
        <time>2013-10-12T07:51:58Z</time>
      </trkpt>
      <trkpt lat="45.85497" lon="4.72255">
        <ele>270.27</ele>
        <time>2013-10-12T07:52:08Z</time>
      </trkpt>
      <trkpt lat="45.85515" lon="4.72253">
        <ele>271.23</ele>
        <time>2013-10-12T07:52:12Z</time>
      </trkpt>
      <trkpt lat="45.85529" lon="4.72252">
        <ele>271.71</ele>
        <time>2013-10-12T07:52:15Z</time>
      </trkpt>
      <trkpt lat="45.85569" lon="4.72242">
        <ele>272.67</ele>
        <time>2013-10-12T07:52:24Z</time>
      </trkpt>
      <trkpt lat="45.85578" lon="4.72239">
        <ele>271.71</ele>
        <time>2013-10-12T07:52:26Z</time>
      </trkpt>
      <trkpt lat="45.85586" lon="4.72235">
        <ele>272.67</ele>
        <time>2013-10-12T07:52:28Z</time>
      </trkpt>
      <trkpt lat="45.85637" lon="4.7221">
        <ele>274.11</ele>
        <time>2013-10-12T07:52:40Z</time>
      </trkpt>
      <trkpt lat="45.85641" lon="4.72207">
        <ele>274.11</ele>
        <time>2013-10-12T07:52:41Z</time>
      </trkpt>
      <trkpt lat="45.85661" lon="4.7219">
        <ele>274.11</ele>
        <time>2013-10-12T07:52:46Z</time>
      </trkpt>
      <trkpt lat="45.85705" lon="4.7217">
        <ele>274.11</ele>
        <time>2013-10-12T07:52:56Z</time>
      </trkpt>
      <trkpt lat="45.85758" lon="4.72158">
        <ele>274.59</ele>
        <time>2013-10-12T07:53:07Z</time>
      </trkpt>
      <trkpt lat="45.85795" lon="4.72162">
        <ele>276.04</ele>
        <time>2013-10-12T07:53:17Z</time>
      </trkpt>
      <trkpt lat="45.85798" lon="4.72161">
        <ele>276.52</ele>
        <time>2013-10-12T07:53:18Z</time>
      </trkpt>
      <trkpt lat="45.85799" lon="4.72159">
        <ele>276.52</ele>
        <time>2013-10-12T07:53:19Z</time>
      </trkpt>
      <trkpt lat="45.85801" lon="4.72156">
        <ele>276.04</ele>
        <time>2013-10-12T07:53:20Z</time>
      </trkpt>
      <trkpt lat="45.85803" lon="4.72151">
        <ele>275.56</ele>
        <time>2013-10-12T07:53:21Z</time>
      </trkpt>
      <trkpt lat="45.85804" lon="4.72145">
        <ele>275.07</ele>
        <time>2013-10-12T07:53:22Z</time>
      </trkpt>
      <trkpt lat="45.85806" lon="4.72138">
        <ele>274.59</ele>
        <time>2013-10-12T07:53:23Z</time>
      </trkpt>
      <trkpt lat="45.85815" lon="4.72097">
        <ele>271.71</ele>
        <time>2013-10-12T07:53:28Z</time>
      </trkpt>
      <trkpt lat="45.85825" lon="4.72048">
        <ele>268.35</ele>
        <time>2013-10-12T07:53:33Z</time>
      </trkpt>
      <trkpt lat="45.85827" lon="4.72038">
        <ele>267.86</ele>
        <time>2013-10-12T07:53:34Z</time>
      </trkpt>
      <trkpt lat="45.85835" lon="4.71997">
        <ele>263.06</ele>
        <time>2013-10-12T07:53:38Z</time>
      </trkpt>
      <trkpt lat="45.85841" lon="4.71966">
        <ele>259.69</ele>
        <time>2013-10-12T07:53:41Z</time>
      </trkpt>
      <trkpt lat="45.85846" lon="4.71936">
        <ele>255.85</ele>
        <time>2013-10-12T07:53:44Z</time>
      </trkpt>
      <trkpt lat="45.85848" lon="4.71925">
        <ele>254.41</ele>
        <time>2013-10-12T07:53:45Z</time>
      </trkpt>
      <trkpt lat="45.8585" lon="4.71903">
        <ele>251.04</ele>
        <time>2013-10-12T07:53:47Z</time>
      </trkpt>
      <trkpt lat="45.85851" lon="4.71882">
        <ele>247.2</ele>
        <time>2013-10-12T07:53:49Z</time>
      </trkpt>
      <trkpt lat="45.85851" lon="4.71869">
        <ele>245.75</ele>
        <time>2013-10-12T07:53:50Z</time>
      </trkpt>
      <trkpt lat="45.85852" lon="4.71863">
        <ele>245.75</ele>
        <time>2013-10-12T07:53:51Z</time>
      </trkpt>
      <trkpt lat="45.85853" lon="4.71856">
        <ele>244.79</ele>
        <time>2013-10-12T07:53:52Z</time>
      </trkpt>
      <trkpt lat="45.85855" lon="4.71852">
        <ele>242.87</ele>
        <time>2013-10-12T07:53:53Z</time>
      </trkpt>
      <trkpt lat="45.85858" lon="4.71852">
        <ele>243.35</ele>
        <time>2013-10-12T07:53:54Z</time>
      </trkpt>
      <trkpt lat="45.85864" lon="4.71854">
        <ele>241.91</ele>
        <time>2013-10-12T07:53:55Z</time>
      </trkpt>
      <trkpt lat="45.85871" lon="4.71856">
        <ele>241.43</ele>
        <time>2013-10-12T07:53:56Z</time>
      </trkpt>
      <trkpt lat="45.85878" lon="4.71856">
        <ele>240.95</ele>
        <time>2013-10-12T07:53:57Z</time>
      </trkpt>
      <trkpt lat="45.85884" lon="4.71854">
        <ele>239.99</ele>
        <time>2013-10-12T07:53:58Z</time>
      </trkpt>
      <trkpt lat="45.85891" lon="4.71847">
        <ele>239.02</ele>
        <time>2013-10-12T07:54:00Z</time>
      </trkpt>
      <trkpt lat="45.85894" lon="4.7184">
        <ele>239.51</ele>
        <time>2013-10-12T07:54:07Z</time>
      </trkpt>
      <trkpt lat="45.85894" lon="4.7184">
        <ele>239.99</ele>
        <time>2013-10-12T07:54:19Z</time>
      </trkpt>
      <trkpt lat="45.85896" lon="4.71831">
        <ele>239.51</ele>
        <time>2013-10-12T07:54:30Z</time>
      </trkpt>
      <trkpt lat="45.859" lon="4.71803">
        <ele>239.51</ele>
        <time>2013-10-12T07:54:38Z</time>
      </trkpt>
      <trkpt lat="45.85897" lon="4.71798">
        <ele>239.02</ele>
        <time>2013-10-12T07:54:39Z</time>
      </trkpt>
      <trkpt lat="45.85893" lon="4.71794">
        <ele>238.54</ele>
        <time>2013-10-12T07:54:40Z</time>
      </trkpt>
      <trkpt lat="45.85883" lon="4.71786">
        <ele>237.1</ele>
        <time>2013-10-12T07:54:42Z</time>
      </trkpt>
      <trkpt lat="45.85878" lon="4.7178">
        <ele>237.1</ele>
        <time>2013-10-12T07:54:43Z</time>
      </trkpt>
      <trkpt lat="45.85876" lon="4.71773">
        <ele>236.14</ele>
        <time>2013-10-12T07:54:44Z</time>
      </trkpt>
      <trkpt lat="45.85876" lon="4.71764">
        <ele>235.18</ele>
        <time>2013-10-12T07:54:45Z</time>
      </trkpt>
      <trkpt lat="45.85877" lon="4.71755">
        <ele>234.7</ele>
        <time>2013-10-12T07:54:46Z</time>
      </trkpt>
      <trkpt lat="45.8588" lon="4.71747">
        <ele>233.74</ele>
        <time>2013-10-12T07:54:47Z</time>
      </trkpt>
      <trkpt lat="45.85883" lon="4.71739">
        <ele>232.78</ele>
        <time>2013-10-12T07:54:48Z</time>
      </trkpt>
      <trkpt lat="45.8589" lon="4.71721">
        <ele>231.81</ele>
        <time>2013-10-12T07:54:50Z</time>
      </trkpt>
      <trkpt lat="45.85893" lon="4.71712">
        <ele>231.33</ele>
        <time>2013-10-12T07:54:51Z</time>
      </trkpt>
      <trkpt lat="45.85895" lon="4.71702">
        <ele>230.37</ele>
        <time>2013-10-12T07:54:52Z</time>
      </trkpt>
      <trkpt lat="45.85895" lon="4.71693">
        <ele>229.89</ele>
        <time>2013-10-12T07:54:53Z</time>
      </trkpt>
      <trkpt lat="45.85895" lon="4.71685">
        <ele>229.41</ele>
        <time>2013-10-12T07:54:54Z</time>
      </trkpt>
      <trkpt lat="45.85894" lon="4.71677">
        <ele>228.45</ele>
        <time>2013-10-12T07:54:55Z</time>
      </trkpt>
      <trkpt lat="45.85892" lon="4.71668">
        <ele>227.49</ele>
        <time>2013-10-12T07:54:56Z</time>
      </trkpt>
      <trkpt lat="45.85885" lon="4.71639">
        <ele>224.61</ele>
        <time>2013-10-12T07:54:59Z</time>
      </trkpt>
      <trkpt lat="45.85882" lon="4.71629">
        <ele>224.61</ele>
        <time>2013-10-12T07:55:00Z</time>
      </trkpt>
      <trkpt lat="45.85871" lon="4.71599">
        <ele>221.24</ele>
        <time>2013-10-12T07:55:03Z</time>
      </trkpt>
      <trkpt lat="45.85853" lon="4.71554">
        <ele>218.84</ele>
        <time>2013-10-12T07:55:08Z</time>
      </trkpt>
      <trkpt lat="45.8585" lon="4.71546">
        <ele>218.36</ele>
        <time>2013-10-12T07:55:09Z</time>
      </trkpt>
      <trkpt lat="45.85847" lon="4.71538">
        <ele>217.4</ele>
        <time>2013-10-12T07:55:10Z</time>
      </trkpt>
      <trkpt lat="45.85834" lon="4.71504">
        <ele>214.51</ele>
        <time>2013-10-12T07:55:14Z</time>
      </trkpt>
      <trkpt lat="45.8583" lon="4.71495">
        <ele>213.55</ele>
        <time>2013-10-12T07:55:15Z</time>
      </trkpt>
      <trkpt lat="45.8582" lon="4.71466">
        <ele>210.67</ele>
        <time>2013-10-12T07:55:18Z</time>
      </trkpt>
      <trkpt lat="45.85817" lon="4.71457">
        <ele>210.19</ele>
        <time>2013-10-12T07:55:19Z</time>
      </trkpt>
      <trkpt lat="45.85814" lon="4.71447">
        <ele>209.22</ele>
        <time>2013-10-12T07:55:20Z</time>
      </trkpt>
      <trkpt lat="45.85805" lon="4.71409">
        <ele>206.34</ele>
        <time>2013-10-12T07:55:24Z</time>
      </trkpt>
      <trkpt lat="45.85803" lon="4.71399">
        <ele>205.38</ele>
        <time>2013-10-12T07:55:25Z</time>
      </trkpt>
      <trkpt lat="45.85793" lon="4.71349">
        <ele>201.53</ele>
        <time>2013-10-12T07:55:30Z</time>
      </trkpt>
      <trkpt lat="45.85789" lon="4.71318">
        <ele>200.57</ele>
        <time>2013-10-12T07:55:33Z</time>
      </trkpt>
      <trkpt lat="45.85768" lon="4.71266">
        <ele>198.65</ele>
        <time>2013-10-12T07:55:42Z</time>
      </trkpt>
      <trkpt lat="45.85771" lon="4.71254">
        <ele>199.13</ele>
        <time>2013-10-12T07:55:46Z</time>
      </trkpt>
      <trkpt lat="45.85774" lon="4.71252">
        <ele>199.13</ele>
        <time>2013-10-12T07:55:47Z</time>
      </trkpt>
      <trkpt lat="45.85777" lon="4.7125">
        <ele>199.61</ele>
        <time>2013-10-12T07:55:48Z</time>
      </trkpt>
      <trkpt lat="45.85779" lon="4.71248">
        <ele>199.13</ele>
        <time>2013-10-12T07:55:56Z</time>
      </trkpt>
      <trkpt lat="45.85777" lon="4.71246">
        <ele>199.61</ele>
        <time>2013-10-12T07:56:00Z</time>
      </trkpt>
      <trkpt lat="45.85776" lon="4.71245">
        <ele>199.61</ele>
        <time>2013-10-12T07:56:01Z</time>
      </trkpt>
      <trkpt lat="45.85775" lon="4.71245">
        <ele>200.09</ele>
        <time>2013-10-12T07:56:02Z</time>
      </trkpt>
      <trkpt lat="45.85773" lon="4.71245">
        <ele>199.61</ele>
        <time>2013-10-12T07:56:03Z</time>
      </trkpt>
      <trkpt lat="45.85772" lon="4.71243">
        <ele>200.09</ele>
        <time>2013-10-12T07:56:04Z</time>
      </trkpt>
      <trkpt lat="45.85771" lon="4.71241">
        <ele>200.09</ele>
        <time>2013-10-12T07:56:05Z</time>
      </trkpt>
      <trkpt lat="45.85771" lon="4.71239">
        <ele>200.57</ele>
        <time>2013-10-12T07:56:06Z</time>
      </trkpt>
      <trkpt lat="45.8577" lon="4.71236">
        <ele>200.57</ele>
        <time>2013-10-12T07:56:07Z</time>
      </trkpt>
      <trkpt lat="45.85769" lon="4.71234">
        <ele>200.57</ele>
        <time>2013-10-12T07:56:08Z</time>
      </trkpt>
      <trkpt lat="45.85768" lon="4.71232">
        <ele>200.09</ele>
        <time>2013-10-12T07:56:09Z</time>
      </trkpt>
      <trkpt lat="45.85767" lon="4.71231">
        <ele>201.05</ele>
        <time>2013-10-12T07:56:10Z</time>
      </trkpt>
      <trkpt lat="45.85766" lon="4.71229">
        <ele>201.05</ele>
        <time>2013-10-12T07:56:11Z</time>
      </trkpt>
      <trkpt lat="45.85766" lon="4.71227">
        <ele>201.05</ele>
        <time>2013-10-12T07:56:12Z</time>
      </trkpt>
      <trkpt lat="45.85766" lon="4.71224">
        <ele>200.57</ele>
        <time>2013-10-12T07:56:13Z</time>
      </trkpt>
      <trkpt lat="45.85767" lon="4.71221">
        <ele>201.05</ele>
        <time>2013-10-12T07:56:14Z</time>
      </trkpt>
      <trkpt lat="45.85767" lon="4.71218">
        <ele>201.05</ele>
        <time>2013-10-12T07:56:15Z</time>
      </trkpt>
      <trkpt lat="45.85777" lon="4.71191">
        <ele>200.57</ele>
        <time>2013-10-12T07:56:23Z</time>
      </trkpt>
      <trkpt lat="45.85785" lon="4.71163">
        <ele>202.49</ele>
        <time>2013-10-12T07:56:31Z</time>
      </trkpt>
      <trkpt lat="45.8578" lon="4.71152">
        <ele>204.42</ele>
        <time>2013-10-12T07:56:35Z</time>
      </trkpt>
      <trkpt lat="45.85778" lon="4.71143">
        <ele>205.38</ele>
        <time>2013-10-12T07:56:38Z</time>
      </trkpt>
      <trkpt lat="45.85777" lon="4.71141">
        <ele>205.38</ele>
        <time>2013-10-12T07:56:39Z</time>
      </trkpt>
      <trkpt lat="45.85774" lon="4.71139">
        <ele>205.86</ele>
        <time>2013-10-12T07:56:40Z</time>
      </trkpt>
      <trkpt lat="45.85772" lon="4.71136">
        <ele>205.86</ele>
        <time>2013-10-12T07:56:41Z</time>
      </trkpt>
      <trkpt lat="45.85769" lon="4.71134">
        <ele>206.34</ele>
        <time>2013-10-12T07:56:42Z</time>
      </trkpt>
      <trkpt lat="45.85745" lon="4.71119">
        <ele>208.26</ele>
        <time>2013-10-12T07:56:51Z</time>
      </trkpt>
      <trkpt lat="45.85728" lon="4.71107">
        <ele>210.19</ele>
        <time>2013-10-12T07:57:00Z</time>
      </trkpt>
      <trkpt lat="45.85711" lon="4.71092">
        <ele>213.07</ele>
        <time>2013-10-12T07:57:11Z</time>
      </trkpt>
      <trkpt lat="45.85692" lon="4.71075">
        <ele>215.47</ele>
        <time>2013-10-12T07:57:22Z</time>
      </trkpt>
      <trkpt lat="45.85672" lon="4.71061">
        <ele>216.43</ele>
        <time>2013-10-12T07:57:32Z</time>
      </trkpt>
      <trkpt lat="45.85647" lon="4.71044">
        <ele>217.4</ele>
        <time>2013-10-12T07:57:43Z</time>
      </trkpt>
      <trkpt lat="45.85623" lon="4.71018">
        <ele>217.88</ele>
        <time>2013-10-12T07:57:55Z</time>
      </trkpt>
      <trkpt lat="45.85602" lon="4.7099">
        <ele>219.8</ele>
        <time>2013-10-12T07:58:07Z</time>
      </trkpt>
      <trkpt lat="45.85577" lon="4.70963">
        <ele>220.76</ele>
        <time>2013-10-12T07:58:19Z</time>
      </trkpt>
      <trkpt lat="45.85547" lon="4.70942">
        <ele>221.72</ele>
        <time>2013-10-12T07:58:33Z</time>
      </trkpt>
      <trkpt lat="45.85521" lon="4.70934">
        <ele>222.2</ele>
        <time>2013-10-12T07:58:43Z</time>
      </trkpt>
      <trkpt lat="45.85491" lon="4.70929">
        <ele>222.68</ele>
        <time>2013-10-12T07:58:54Z</time>
      </trkpt>
      <trkpt lat="45.85464" lon="4.7092">
        <ele>223.64</ele>
        <time>2013-10-12T07:59:04Z</time>
      </trkpt>
      <trkpt lat="45.8543" lon="4.70907">
        <ele>223.64</ele>
        <time>2013-10-12T07:59:15Z</time>
      </trkpt>
      <trkpt lat="45.85401" lon="4.70892">
        <ele>225.09</ele>
        <time>2013-10-12T07:59:25Z</time>
      </trkpt>
      <trkpt lat="45.85367" lon="4.70879">
        <ele>225.57</ele>
        <time>2013-10-12T07:59:37Z</time>
      </trkpt>
      <trkpt lat="45.85337" lon="4.70881">
        <ele>225.57</ele>
        <time>2013-10-12T07:59:47Z</time>
      </trkpt>
      <trkpt lat="45.85333" lon="4.70885">
        <ele>225.57</ele>
        <time>2013-10-12T07:59:48Z</time>
      </trkpt>
      <trkpt lat="45.85328" lon="4.7089">
        <ele>224.61</ele>
        <time>2013-10-12T07:59:49Z</time>
      </trkpt>
      <trkpt lat="45.85292" lon="4.70946">
        <ele>221.72</ele>
        <time>2013-10-12T07:59:57Z</time>
      </trkpt>
      <trkpt lat="45.85272" lon="4.70978">
        <ele>221.72</ele>
        <time>2013-10-12T08:00:02Z</time>
      </trkpt>
      <trkpt lat="45.8527" lon="4.70985">
        <ele>221.72</ele>
        <time>2013-10-12T08:00:03Z</time>
      </trkpt>
      <trkpt lat="45.85264" lon="4.71009">
        <ele>223.64</ele>
        <time>2013-10-12T08:00:07Z</time>
      </trkpt>
      <trkpt lat="45.85254" lon="4.71031">
        <ele>226.05</ele>
        <time>2013-10-12T08:00:15Z</time>
      </trkpt>
      <trkpt lat="45.8524" lon="4.71036">
        <ele>228.45</ele>
        <time>2013-10-12T08:00:25Z</time>
      </trkpt>
      <trkpt lat="45.85238" lon="4.71036">
        <ele>229.89</ele>
        <time>2013-10-12T08:00:26Z</time>
      </trkpt>
      <trkpt lat="45.8522" lon="4.71041">
        <ele>232.3</ele>
        <time>2013-10-12T08:00:37Z</time>
      </trkpt>
      <trkpt lat="45.85205" lon="4.71046">
        <ele>234.22</ele>
        <time>2013-10-12T08:00:47Z</time>
      </trkpt>
      <trkpt lat="45.85188" lon="4.71052">
        <ele>236.62</ele>
        <time>2013-10-12T08:00:58Z</time>
      </trkpt>
      <trkpt lat="45.85174" lon="4.71055">
        <ele>239.02</ele>
        <time>2013-10-12T08:01:07Z</time>
      </trkpt>
      <trkpt lat="45.8516" lon="4.7106">
        <ele>241.43</ele>
        <time>2013-10-12T08:01:18Z</time>
      </trkpt>
      <trkpt lat="45.85146" lon="4.71065">
        <ele>244.31</ele>
        <time>2013-10-12T08:01:28Z</time>
      </trkpt>
      <trkpt lat="45.8514" lon="4.71067">
        <ele>245.27</ele>
        <time>2013-10-12T08:01:33Z</time>
      </trkpt>
      <trkpt lat="45.85134" lon="4.71069">
        <ele>246.23</ele>
        <time>2013-10-12T08:01:38Z</time>
      </trkpt>
      <trkpt lat="45.85125" lon="4.7107">
        <ele>247.68</ele>
        <time>2013-10-12T08:01:45Z</time>
      </trkpt>
      <trkpt lat="45.85122" lon="4.7107">
        <ele>248.16</ele>
        <time>2013-10-12T08:01:48Z</time>
      </trkpt>
      <trkpt lat="45.8511" lon="4.71073">
        <ele>250.56</ele>
        <time>2013-10-12T08:01:58Z</time>
      </trkpt>
      <trkpt lat="45.85097" lon="4.71078">
        <ele>252.96</ele>
        <time>2013-10-12T08:02:07Z</time>
      </trkpt>
      <trkpt lat="45.85085" lon="4.71082">
        <ele>254.41</ele>
        <time>2013-10-12T08:02:17Z</time>
      </trkpt>
      <trkpt lat="45.8508" lon="4.71084">
        <ele>255.37</ele>
        <time>2013-10-12T08:02:21Z</time>
      </trkpt>
      <trkpt lat="45.85077" lon="4.71084">
        <ele>256.33</ele>
        <time>2013-10-12T08:02:24Z</time>
      </trkpt>
      <trkpt lat="45.85062" lon="4.71087">
        <ele>259.69</ele>
        <time>2013-10-12T08:02:35Z</time>
      </trkpt>
      <trkpt lat="45.85058" lon="4.71089">
        <ele>260.17</ele>
        <time>2013-10-12T08:02:39Z</time>
      </trkpt>
      <trkpt lat="45.85055" lon="4.71089">
        <ele>260.65</ele>
        <time>2013-10-12T08:02:41Z</time>
      </trkpt>
      <trkpt lat="45.8505" lon="4.71091">
        <ele>261.62</ele>
        <time>2013-10-12T08:02:45Z</time>
      </trkpt>
      <trkpt lat="45.85037" lon="4.71093">
        <ele>263.54</ele>
        <time>2013-10-12T08:02:57Z</time>
      </trkpt>
      <trkpt lat="45.85017" lon="4.71092">
        <ele>264.5</ele>
        <time>2013-10-12T08:03:11Z</time>
      </trkpt>
      <trkpt lat="45.84991" lon="4.71092">
        <ele>265.46</ele>
        <time>2013-10-12T08:03:26Z</time>
      </trkpt>
      <trkpt lat="45.84973" lon="4.71098">
        <ele>266.42</ele>
        <time>2013-10-12T08:03:35Z</time>
      </trkpt>
      <trkpt lat="45.8495" lon="4.71103">
        <ele>266.9</ele>
        <time>2013-10-12T08:03:46Z</time>
      </trkpt>
      <trkpt lat="45.84929" lon="4.71109">
        <ele>266.9</ele>
        <time>2013-10-12T08:03:56Z</time>
      </trkpt>
      <trkpt lat="45.84907" lon="4.71117">
        <ele>268.35</ele>
        <time>2013-10-12T08:04:06Z</time>
      </trkpt>
      <trkpt lat="45.84883" lon="4.71126">
        <ele>268.35</ele>
        <time>2013-10-12T08:04:17Z</time>
      </trkpt>
      <trkpt lat="45.8486" lon="4.71133">
        <ele>269.31</ele>
        <time>2013-10-12T08:04:27Z</time>
      </trkpt>
      <trkpt lat="45.84834" lon="4.71138">
        <ele>270.75</ele>
        <time>2013-10-12T08:04:38Z</time>
      </trkpt>
      <trkpt lat="45.84802" lon="4.7115">
        <ele>271.71</ele>
        <time>2013-10-12T08:04:52Z</time>
      </trkpt>
      <trkpt lat="45.8478" lon="4.71153">
        <ele>272.19</ele>
        <time>2013-10-12T08:05:02Z</time>
      </trkpt>
      <trkpt lat="45.84775" lon="4.71154">
        <ele>273.63</ele>
        <time>2013-10-12T08:05:04Z</time>
      </trkpt>
      <trkpt lat="45.84742" lon="4.71151">
        <ele>275.56</ele>
        <time>2013-10-12T08:05:18Z</time>
      </trkpt>
      <trkpt lat="45.84713" lon="4.7115">
        <ele>276.52</ele>
        <time>2013-10-12T08:05:30Z</time>
      </trkpt>
      <trkpt lat="45.84679" lon="4.71147">
        <ele>277.96</ele>
        <time>2013-10-12T08:05:44Z</time>
      </trkpt>
      <trkpt lat="45.84644" lon="4.71143">
        <ele>277.96</ele>
        <time>2013-10-12T08:05:57Z</time>
      </trkpt>
      <trkpt lat="45.84606" lon="4.71141">
        <ele>280.36</ele>
        <time>2013-10-12T08:06:11Z</time>
      </trkpt>
      <trkpt lat="45.84588" lon="4.71139">
        <ele>280.36</ele>
        <time>2013-10-12T08:06:18Z</time>
      </trkpt>
      <trkpt lat="45.84561" lon="4.7114">
        <ele>282.77</ele>
        <time>2013-10-12T08:06:28Z</time>
      </trkpt>
      <trkpt lat="45.84525" lon="4.71141">
        <ele>283.73</ele>
        <time>2013-10-12T08:06:40Z</time>
      </trkpt>
      <trkpt lat="45.8449" lon="4.71138">
        <ele>284.69</ele>
        <time>2013-10-12T08:06:52Z</time>
      </trkpt>
      <trkpt lat="45.84458" lon="4.71136">
        <ele>284.21</ele>
        <time>2013-10-12T08:07:02Z</time>
      </trkpt>
      <trkpt lat="45.8442" lon="4.71133">
        <ele>284.21</ele>
        <time>2013-10-12T08:07:13Z</time>
      </trkpt>
      <trkpt lat="45.84373" lon="4.71126">
        <ele>283.25</ele>
        <time>2013-10-12T08:07:26Z</time>
      </trkpt>
      <trkpt lat="45.84335" lon="4.71112">
        <ele>284.21</ele>
        <time>2013-10-12T08:07:37Z</time>
      </trkpt>
      <trkpt lat="45.843" lon="4.71092">
        <ele>284.69</ele>
        <time>2013-10-12T08:07:47Z</time>
      </trkpt>
      <trkpt lat="45.84265" lon="4.71081">
        <ele>285.65</ele>
        <time>2013-10-12T08:07:57Z</time>
      </trkpt>
      <trkpt lat="45.84234" lon="4.71075">
        <ele>286.61</ele>
        <time>2013-10-12T08:08:06Z</time>
      </trkpt>
      <trkpt lat="45.84193" lon="4.71072">
        <ele>287.57</ele>
        <time>2013-10-12T08:08:18Z</time>
      </trkpt>
      <trkpt lat="45.84157" lon="4.71072">
        <ele>289.01</ele>
        <time>2013-10-12T08:08:30Z</time>
      </trkpt>
      <trkpt lat="45.84121" lon="4.71075">
        <ele>289.97</ele>
        <time>2013-10-12T08:08:41Z</time>
      </trkpt>
      <trkpt lat="45.84089" lon="4.71082">
        <ele>290.46</ele>
        <time>2013-10-12T08:08:51Z</time>
      </trkpt>
      <trkpt lat="45.84056" lon="4.7109">
        <ele>290.94</ele>
        <time>2013-10-12T08:09:02Z</time>
      </trkpt>
      <trkpt lat="45.84021" lon="4.71109">
        <ele>291.9</ele>
        <time>2013-10-12T08:09:13Z</time>
      </trkpt>
      <trkpt lat="45.83976" lon="4.71141">
        <ele>291.42</ele>
        <time>2013-10-12T08:09:26Z</time>
      </trkpt>
      <trkpt lat="45.83972" lon="4.71143">
        <ele>291.42</ele>
        <time>2013-10-12T08:09:27Z</time>
      </trkpt>
      <trkpt lat="45.83918" lon="4.71163">
        <ele>291.9</ele>
        <time>2013-10-12T08:09:41Z</time>
      </trkpt>
      <trkpt lat="45.83914" lon="4.71164">
        <ele>291.42</ele>
        <time>2013-10-12T08:09:42Z</time>
      </trkpt>
      <trkpt lat="45.8391" lon="4.71166">
        <ele>291.9</ele>
        <time>2013-10-12T08:09:43Z</time>
      </trkpt>
      <trkpt lat="45.83855" lon="4.71182">
        <ele>291.9</ele>
        <time>2013-10-12T08:09:56Z</time>
      </trkpt>
      <trkpt lat="45.83851" lon="4.71183">
        <ele>291.42</ele>
        <time>2013-10-12T08:09:57Z</time>
      </trkpt>
      <trkpt lat="45.83812" lon="4.71185">
        <ele>291.42</ele>
        <time>2013-10-12T08:10:06Z</time>
      </trkpt>
      <trkpt lat="45.8376" lon="4.71179">
        <ele>292.38</ele>
        <time>2013-10-12T08:10:19Z</time>
      </trkpt>
      <trkpt lat="45.83756" lon="4.71179">
        <ele>292.38</ele>
        <time>2013-10-12T08:10:20Z</time>
      </trkpt>
      <trkpt lat="45.83717" lon="4.71169">
        <ele>292.86</ele>
        <time>2013-10-12T08:10:30Z</time>
      </trkpt>
      <trkpt lat="45.83715" lon="4.71167">
        <ele>293.34</ele>
        <time>2013-10-12T08:10:31Z</time>
      </trkpt>
      <trkpt lat="45.83714" lon="4.71163">
        <ele>292.86</ele>
        <time>2013-10-12T08:10:32Z</time>
      </trkpt>
      <trkpt lat="45.83713" lon="4.7116">
        <ele>293.34</ele>
        <time>2013-10-12T08:10:33Z</time>
      </trkpt>
      <trkpt lat="45.83711" lon="4.71157">
        <ele>293.34</ele>
        <time>2013-10-12T08:10:34Z</time>
      </trkpt>
      <trkpt lat="45.83709" lon="4.71154">
        <ele>293.34</ele>
        <time>2013-10-12T08:10:35Z</time>
      </trkpt>
      <trkpt lat="45.83707" lon="4.71152">
        <ele>293.34</ele>
        <time>2013-10-12T08:10:36Z</time>
      </trkpt>
      <trkpt lat="45.83704" lon="4.71149">
        <ele>293.82</ele>
        <time>2013-10-12T08:10:37Z</time>
      </trkpt>
      <trkpt lat="45.83674" lon="4.7112">
        <ele>294.78</ele>
        <time>2013-10-12T08:10:48Z</time>
      </trkpt>
      <trkpt lat="45.8364" lon="4.71089">
        <ele>298.15</ele>
        <time>2013-10-12T08:11:02Z</time>
      </trkpt>
      <trkpt lat="45.83619" lon="4.71068">
        <ele>299.11</ele>
        <time>2013-10-12T08:11:11Z</time>
      </trkpt>
      <trkpt lat="45.83583" lon="4.71044">
        <ele>300.07</ele>
        <time>2013-10-12T08:11:24Z</time>
      </trkpt>
      <trkpt lat="45.83562" lon="4.7103">
        <ele>300.55</ele>
        <time>2013-10-12T08:11:32Z</time>
      </trkpt>
      <trkpt lat="45.8354" lon="4.71014">
        <ele>301.51</ele>
        <time>2013-10-12T08:11:41Z</time>
      </trkpt>
      <trkpt lat="45.83518" lon="4.70994">
        <ele>302.47</ele>
        <time>2013-10-12T08:11:50Z</time>
      </trkpt>
      <trkpt lat="45.83497" lon="4.70986">
        <ele>302.95</ele>
        <time>2013-10-12T08:11:58Z</time>
      </trkpt>
      <trkpt lat="45.83494" lon="4.70986">
        <ele>302.95</ele>
        <time>2013-10-12T08:11:59Z</time>
      </trkpt>
      <trkpt lat="45.83492" lon="4.70986">
        <ele>302.95</ele>
        <time>2013-10-12T08:12:00Z</time>
      </trkpt>
      <trkpt lat="45.83489" lon="4.70985">
        <ele>303.43</ele>
        <time>2013-10-12T08:12:01Z</time>
      </trkpt>
      <trkpt lat="45.83486" lon="4.70986">
        <ele>303.43</ele>
        <time>2013-10-12T08:12:02Z</time>
      </trkpt>
      <trkpt lat="45.83483" lon="4.70986">
        <ele>303.91</ele>
        <time>2013-10-12T08:12:03Z</time>
      </trkpt>
      <trkpt lat="45.8348" lon="4.70986">
        <ele>303.91</ele>
        <time>2013-10-12T08:12:04Z</time>
      </trkpt>
      <trkpt lat="45.83477" lon="4.70986">
        <ele>303.91</ele>
        <time>2013-10-12T08:12:05Z</time>
      </trkpt>
      <trkpt lat="45.83449" lon="4.70985">
        <ele>304.88</ele>
        <time>2013-10-12T08:12:15Z</time>
      </trkpt>
      <trkpt lat="45.83422" lon="4.70986">
        <ele>307.28</ele>
        <time>2013-10-12T08:12:26Z</time>
      </trkpt>
      <trkpt lat="45.83398" lon="4.70986">
        <ele>307.28</ele>
        <time>2013-10-12T08:12:37Z</time>
      </trkpt>
      <trkpt lat="45.8337" lon="4.7099">
        <ele>307.76</ele>
        <time>2013-10-12T08:12:47Z</time>
      </trkpt>
      <trkpt lat="45.83344" lon="4.70993">
        <ele>308.24</ele>
        <time>2013-10-12T08:12:57Z</time>
      </trkpt>
      <trkpt lat="45.83314" lon="4.70994">
        <ele>307.76</ele>
        <time>2013-10-12T08:13:09Z</time>
      </trkpt>
      <trkpt lat="45.83309" lon="4.70997">
        <ele>307.28</ele>
        <time>2013-10-12T08:13:11Z</time>
      </trkpt>
      <trkpt lat="45.83295" lon="4.71036">
        <ele>306.8</ele>
        <time>2013-10-12T08:13:20Z</time>
      </trkpt>
      <trkpt lat="45.83281" lon="4.71069">
        <ele>306.8</ele>
        <time>2013-10-12T08:13:28Z</time>
      </trkpt>
      <trkpt lat="45.83271" lon="4.7107">
        <ele>306.32</ele>
        <time>2013-10-12T08:13:33Z</time>
      </trkpt>
      <trkpt lat="45.83256" lon="4.71042">
        <ele>307.28</ele>
        <time>2013-10-12T08:13:44Z</time>
      </trkpt>
      <trkpt lat="45.83243" lon="4.71008">
        <ele>308.72</ele>
        <time>2013-10-12T08:13:55Z</time>
      </trkpt>
      <trkpt lat="45.83233" lon="4.7098">
        <ele>309.68</ele>
        <time>2013-10-12T08:14:03Z</time>
      </trkpt>
      <trkpt lat="45.83217" lon="4.70945">
        <ele>310.64</ele>
        <time>2013-10-12T08:14:14Z</time>
      </trkpt>
      <trkpt lat="45.83202" lon="4.70913">
        <ele>311.12</ele>
        <time>2013-10-12T08:14:24Z</time>
      </trkpt>
      <trkpt lat="45.83187" lon="4.70876">
        <ele>312.57</ele>
        <time>2013-10-12T08:14:35Z</time>
      </trkpt>
      <trkpt lat="45.83172" lon="4.70842">
        <ele>313.53</ele>
        <time>2013-10-12T08:14:46Z</time>
      </trkpt>
      <trkpt lat="45.8316" lon="4.70803">
        <ele>315.45</ele>
        <time>2013-10-12T08:14:58Z</time>
      </trkpt>
      <trkpt lat="45.83147" lon="4.70763">
        <ele>316.41</ele>
        <time>2013-10-12T08:15:09Z</time>
      </trkpt>
      <trkpt lat="45.83132" lon="4.70721">
        <ele>318.33</ele>
        <time>2013-10-12T08:15:21Z</time>
      </trkpt>
      <trkpt lat="45.83117" lon="4.70679">
        <ele>319.3</ele>
        <time>2013-10-12T08:15:33Z</time>
      </trkpt>
      <trkpt lat="45.8311" lon="4.70648">
        <ele>319.78</ele>
        <time>2013-10-12T08:15:42Z</time>
      </trkpt>
      <trkpt lat="45.83105" lon="4.70631">
        <ele>319.78</ele>
        <time>2013-10-12T08:15:46Z</time>
      </trkpt>
      <trkpt lat="45.83103" lon="4.70628">
        <ele>320.26</ele>
        <time>2013-10-12T08:15:47Z</time>
      </trkpt>
      <trkpt lat="45.83101" lon="4.70625">
        <ele>320.26</ele>
        <time>2013-10-12T08:15:48Z</time>
      </trkpt>
      <trkpt lat="45.83099" lon="4.70621">
        <ele>320.74</ele>
        <time>2013-10-12T08:15:49Z</time>
      </trkpt>
      <trkpt lat="45.83098" lon="4.70618">
        <ele>320.26</ele>
        <time>2013-10-12T08:15:50Z</time>
      </trkpt>
      <trkpt lat="45.83076" lon="4.70576">
        <ele>321.22</ele>
        <time>2013-10-12T08:16:03Z</time>
      </trkpt>
      <trkpt lat="45.83055" lon="4.70529">
        <ele>320.74</ele>
        <time>2013-10-12T08:16:14Z</time>
      </trkpt>
      <trkpt lat="45.83023" lon="4.70464">
        <ele>319.78</ele>
        <time>2013-10-12T08:16:26Z</time>
      </trkpt>
      <trkpt lat="45.82992" lon="4.70393">
        <ele>319.3</ele>
        <time>2013-10-12T08:16:39Z</time>
      </trkpt>
      <trkpt lat="45.82965" lon="4.70337">
        <ele>319.78</ele>
        <time>2013-10-12T08:16:50Z</time>
      </trkpt>
      <trkpt lat="45.82957" lon="4.70324">
        <ele>320.26</ele>
        <time>2013-10-12T08:16:53Z</time>
      </trkpt>
      <trkpt lat="45.82954" lon="4.7032">
        <ele>320.26</ele>
        <time>2013-10-12T08:16:54Z</time>
      </trkpt>
      <trkpt lat="45.82924" lon="4.70272">
        <ele>321.22</ele>
        <time>2013-10-12T08:17:07Z</time>
      </trkpt>
      <trkpt lat="45.82905" lon="4.70236">
        <ele>322.66</ele>
        <time>2013-10-12T08:17:17Z</time>
      </trkpt>
      <trkpt lat="45.82885" lon="4.70204">
        <ele>325.06</ele>
        <time>2013-10-12T08:17:28Z</time>
      </trkpt>
      <trkpt lat="45.8287" lon="4.70175">
        <ele>326.5</ele>
        <time>2013-10-12T08:17:38Z</time>
      </trkpt>
      <trkpt lat="45.82854" lon="4.70144">
        <ele>328.43</ele>
        <time>2013-10-12T08:17:50Z</time>
      </trkpt>
      <trkpt lat="45.82837" lon="4.70115">
        <ele>329.87</ele>
        <time>2013-10-12T08:17:59Z</time>
      </trkpt>
      <trkpt lat="45.82814" lon="4.70078">
        <ele>330.83</ele>
        <time>2013-10-12T08:18:12Z</time>
      </trkpt>
      <trkpt lat="45.82798" lon="4.70052">
        <ele>332.75</ele>
        <time>2013-10-12T08:18:21Z</time>
      </trkpt>
      <trkpt lat="45.82791" lon="4.70042">
        <ele>333.23</ele>
        <time>2013-10-12T08:18:26Z</time>
      </trkpt>
      <trkpt lat="45.82769" lon="4.70052">
        <ele>333.71</ele>
        <time>2013-10-12T08:18:34Z</time>
      </trkpt>
      <trkpt lat="45.82742" lon="4.70072">
        <ele>333.23</ele>
        <time>2013-10-12T08:18:43Z</time>
      </trkpt>
      <trkpt lat="45.827" lon="4.70095">
        <ele>330.35</ele>
        <time>2013-10-12T08:18:52Z</time>
      </trkpt>
      <trkpt lat="45.82682" lon="4.70104">
        <ele>328.43</ele>
        <time>2013-10-12T08:18:55Z</time>
      </trkpt>
      <trkpt lat="45.82627" lon="4.70138">
        <ele>325.06</ele>
        <time>2013-10-12T08:19:03Z</time>
      </trkpt>
      <trkpt lat="45.82618" lon="4.70141">
        <ele>325.54</ele>
        <time>2013-10-12T08:19:04Z</time>
      </trkpt>
      <trkpt lat="45.82603" lon="4.70143">
        <ele>323.62</ele>
        <time>2013-10-12T08:19:06Z</time>
      </trkpt>
      <trkpt lat="45.82547" lon="4.70144">
        <ele>319.78</ele>
        <time>2013-10-12T08:19:13Z</time>
      </trkpt>
      <trkpt lat="45.8252" lon="4.70143">
        <ele>316.89</ele>
        <time>2013-10-12T08:19:16Z</time>
      </trkpt>
      <trkpt lat="45.82481" lon="4.70144">
        <ele>314.01</ele>
        <time>2013-10-12T08:19:20Z</time>
      </trkpt>
      <trkpt lat="45.8245" lon="4.70144">
        <ele>310.64</ele>
        <time>2013-10-12T08:19:23Z</time>
      </trkpt>
      <trkpt lat="45.8244" lon="4.70144">
        <ele>311.12</ele>
        <time>2013-10-12T08:19:24Z</time>
      </trkpt>
      <trkpt lat="45.82383" lon="4.70142">
        <ele>307.76</ele>
        <time>2013-10-12T08:19:30Z</time>
      </trkpt>
      <trkpt lat="45.82312" lon="4.70147">
        <ele>307.28</ele>
        <time>2013-10-12T08:19:39Z</time>
      </trkpt>
      <trkpt lat="45.82306" lon="4.7015">
        <ele>307.28</ele>
        <time>2013-10-12T08:19:40Z</time>
      </trkpt>
      <trkpt lat="45.82301" lon="4.70155">
        <ele>307.28</ele>
        <time>2013-10-12T08:19:41Z</time>
      </trkpt>
      <trkpt lat="45.82297" lon="4.70161">
        <ele>307.28</ele>
        <time>2013-10-12T08:19:42Z</time>
      </trkpt>
      <trkpt lat="45.82293" lon="4.70167">
        <ele>307.76</ele>
        <time>2013-10-12T08:19:43Z</time>
      </trkpt>
      <trkpt lat="45.8229" lon="4.70174">
        <ele>307.28</ele>
        <time>2013-10-12T08:19:44Z</time>
      </trkpt>
      <trkpt lat="45.82287" lon="4.70181">
        <ele>307.76</ele>
        <time>2013-10-12T08:19:45Z</time>
      </trkpt>
      <trkpt lat="45.82284" lon="4.70188">
        <ele>307.28</ele>
        <time>2013-10-12T08:19:46Z</time>
      </trkpt>
      <trkpt lat="45.82254" lon="4.7026">
        <ele>309.2</ele>
        <time>2013-10-12T08:19:58Z</time>
      </trkpt>
      <trkpt lat="45.82225" lon="4.70326">
        <ele>310.16</ele>
        <time>2013-10-12T08:20:10Z</time>
      </trkpt>
      <trkpt lat="45.82196" lon="4.70387">
        <ele>311.12</ele>
        <time>2013-10-12T08:20:22Z</time>
      </trkpt>
      <trkpt lat="45.82163" lon="4.70445">
        <ele>313.05</ele>
        <time>2013-10-12T08:20:36Z</time>
      </trkpt>
      <trkpt lat="45.8214" lon="4.70485">
        <ele>314.49</ele>
        <time>2013-10-12T08:20:47Z</time>
      </trkpt>
      <trkpt lat="45.82118" lon="4.70513">
        <ele>315.93</ele>
        <time>2013-10-12T08:20:56Z</time>
      </trkpt>
      <trkpt lat="45.82093" lon="4.70543">
        <ele>317.37</ele>
        <time>2013-10-12T08:21:06Z</time>
      </trkpt>
      <trkpt lat="45.8206" lon="4.70585">
        <ele>320.74</ele>
        <time>2013-10-12T08:21:22Z</time>
      </trkpt>
      <trkpt lat="45.8205" lon="4.70608">
        <ele>323.14</ele>
        <time>2013-10-12T08:21:32Z</time>
      </trkpt>
      <trkpt lat="45.82045" lon="4.70628">
        <ele>324.1</ele>
        <time>2013-10-12T08:21:41Z</time>
      </trkpt>
      <trkpt lat="45.82042" lon="4.70656">
        <ele>326.5</ele>
        <time>2013-10-12T08:21:52Z</time>
      </trkpt>
      <trkpt lat="45.82038" lon="4.70679">
        <ele>327.95</ele>
        <time>2013-10-12T08:22:02Z</time>
      </trkpt>
      <trkpt lat="45.82024" lon="4.70692">
        <ele>329.87</ele>
        <time>2013-10-12T08:22:13Z</time>
      </trkpt>
      <trkpt lat="45.81999" lon="4.70698">
        <ele>330.35</ele>
        <time>2013-10-12T08:22:23Z</time>
      </trkpt>
      <trkpt lat="45.81971" lon="4.70701">
        <ele>330.35</ele>
        <time>2013-10-12T08:22:34Z</time>
      </trkpt>
      <trkpt lat="45.81948" lon="4.70711">
        <ele>330.83</ele>
        <time>2013-10-12T08:22:43Z</time>
      </trkpt>
      <trkpt lat="45.81947" lon="4.7071">
        <ele>331.79</ele>
        <time>2013-10-12T08:22:44Z</time>
      </trkpt>
      <trkpt lat="45.81946" lon="4.70708">
        <ele>331.79</ele>
        <time>2013-10-12T08:22:45Z</time>
      </trkpt>
      <trkpt lat="45.81946" lon="4.70706">
        <ele>331.79</ele>
        <time>2013-10-12T08:22:46Z</time>
      </trkpt>
      <trkpt lat="45.81946" lon="4.70703">
        <ele>331.31</ele>
        <time>2013-10-12T08:22:47Z</time>
      </trkpt>
      <trkpt lat="45.81947" lon="4.70701">
        <ele>332.27</ele>
        <time>2013-10-12T08:22:48Z</time>
      </trkpt>
      <trkpt lat="45.8195" lon="4.70672">
        <ele>332.27</ele>
        <time>2013-10-12T08:22:57Z</time>
      </trkpt>
      <trkpt lat="45.8195" lon="4.70634">
        <ele>333.23</ele>
        <time>2013-10-12T08:23:06Z</time>
      </trkpt>
      <trkpt lat="45.81951" lon="4.70591">
        <ele>333.23</ele>
        <time>2013-10-12T08:23:17Z</time>
      </trkpt>
      <trkpt lat="45.81947" lon="4.70554">
        <ele>334.2</ele>
        <time>2013-10-12T08:23:26Z</time>
      </trkpt>
      <trkpt lat="45.81931" lon="4.70534">
        <ele>335.64</ele>
        <time>2013-10-12T08:23:35Z</time>
      </trkpt>
      <trkpt lat="45.81912" lon="4.70528">
        <ele>337.56</ele>
        <time>2013-10-12T08:23:44Z</time>
      </trkpt>
      <trkpt lat="45.81889" lon="4.70521">
        <ele>339.48</ele>
        <time>2013-10-12T08:23:56Z</time>
      </trkpt>
      <trkpt lat="45.81884" lon="4.70517">
        <ele>340.44</ele>
        <time>2013-10-12T08:24:00Z</time>
      </trkpt>
      <trkpt lat="45.81882" lon="4.70516">
        <ele>340.92</ele>
        <time>2013-10-12T08:24:01Z</time>
      </trkpt>
      <trkpt lat="45.81881" lon="4.70515">
        <ele>340.92</ele>
        <time>2013-10-12T08:24:02Z</time>
      </trkpt>
      <trkpt lat="45.81879" lon="4.70516">
        <ele>340.92</ele>
        <time>2013-10-12T08:24:03Z</time>
      </trkpt>
      <trkpt lat="45.81877" lon="4.70516">
        <ele>340.92</ele>
        <time>2013-10-12T08:24:04Z</time>
      </trkpt>
      <trkpt lat="45.81855" lon="4.7051">
        <ele>343.33</ele>
        <time>2013-10-12T08:24:18Z</time>
      </trkpt>
      <trkpt lat="45.8184" lon="4.70506">
        <ele>344.77</ele>
        <time>2013-10-12T08:24:28Z</time>
      </trkpt>
      <trkpt lat="45.81833" lon="4.70502">
        <ele>345.25</ele>
        <time>2013-10-12T08:24:33Z</time>
      </trkpt>
      <trkpt lat="45.8183" lon="4.70499">
        <ele>345.25</ele>
        <time>2013-10-12T08:24:35Z</time>
      </trkpt>
      <trkpt lat="45.81829" lon="4.70499">
        <ele>345.25</ele>
        <time>2013-10-12T08:24:36Z</time>
      </trkpt>
      <trkpt lat="45.81827" lon="4.70501">
        <ele>345.25</ele>
        <time>2013-10-12T08:24:37Z</time>
      </trkpt>
      <trkpt lat="45.81826" lon="4.70503">
        <ele>345.25</ele>
        <time>2013-10-12T08:24:38Z</time>
      </trkpt>
      <trkpt lat="45.81826" lon="4.70505">
        <ele>345.25</ele>
        <time>2013-10-12T08:24:39Z</time>
      </trkpt>
      <trkpt lat="45.81825" lon="4.70508">
        <ele>345.73</ele>
        <time>2013-10-12T08:24:40Z</time>
      </trkpt>
      <trkpt lat="45.81825" lon="4.7051">
        <ele>345.73</ele>
        <time>2013-10-12T08:24:41Z</time>
      </trkpt>
      <trkpt lat="45.81824" lon="4.70512">
        <ele>345.73</ele>
        <time>2013-10-12T08:24:42Z</time>
      </trkpt>
      <trkpt lat="45.81823" lon="4.70514">
        <ele>345.73</ele>
        <time>2013-10-12T08:24:43Z</time>
      </trkpt>
      <trkpt lat="45.81822" lon="4.70517">
        <ele>345.73</ele>
        <time>2013-10-12T08:24:44Z</time>
      </trkpt>
      <trkpt lat="45.81822" lon="4.70519">
        <ele>345.73</ele>
        <time>2013-10-12T08:24:45Z</time>
      </trkpt>
      <trkpt lat="45.81822" lon="4.70522">
        <ele>345.73</ele>
        <time>2013-10-12T08:24:46Z</time>
      </trkpt>
      <trkpt lat="45.81817" lon="4.70554">
        <ele>346.69</ele>
        <time>2013-10-12T08:24:58Z</time>
      </trkpt>
      <trkpt lat="45.81811" lon="4.70588">
        <ele>347.65</ele>
        <time>2013-10-12T08:25:10Z</time>
      </trkpt>
      <trkpt lat="45.81802" lon="4.70618">
        <ele>348.62</ele>
        <time>2013-10-12T08:25:21Z</time>
      </trkpt>
      <trkpt lat="45.81791" lon="4.70648">
        <ele>348.62</ele>
        <time>2013-10-12T08:25:32Z</time>
      </trkpt>
      <trkpt lat="45.81777" lon="4.70677">
        <ele>349.58</ele>
        <time>2013-10-12T08:25:44Z</time>
      </trkpt>
      <trkpt lat="45.81765" lon="4.70695">
        <ele>349.58</ele>
        <time>2013-10-12T08:25:52Z</time>
      </trkpt>
      <trkpt lat="45.81764" lon="4.70696">
        <ele>350.54</ele>
        <time>2013-10-12T08:25:53Z</time>
      </trkpt>
      <trkpt lat="45.81747" lon="4.70724">
        <ele>349.1</ele>
        <time>2013-10-12T08:26:03Z</time>
      </trkpt>
      <trkpt lat="45.81737" lon="4.70742">
        <ele>350.06</ele>
        <time>2013-10-12T08:26:09Z</time>
      </trkpt>
      <trkpt lat="45.81716" lon="4.70799">
        <ele>348.62</ele>
        <time>2013-10-12T08:26:21Z</time>
      </trkpt>
      <trkpt lat="45.817" lon="4.70838">
        <ele>348.13</ele>
        <time>2013-10-12T08:26:28Z</time>
      </trkpt>
      <trkpt lat="45.81663" lon="4.70899">
        <ele>347.17</ele>
        <time>2013-10-12T08:26:40Z</time>
      </trkpt>
      <trkpt lat="45.8164" lon="4.70911">
        <ele>346.21</ele>
        <time>2013-10-12T08:26:48Z</time>
      </trkpt>
      <trkpt lat="45.81632" lon="4.70902">
        <ele>346.21</ele>
        <time>2013-10-12T08:26:51Z</time>
      </trkpt>
      <trkpt lat="45.81629" lon="4.70901">
        <ele>346.21</ele>
        <time>2013-10-12T08:26:52Z</time>
      </trkpt>
      <trkpt lat="45.81618" lon="4.70889">
        <ele>345.73</ele>
        <time>2013-10-12T08:26:56Z</time>
      </trkpt>
      <trkpt lat="45.81618" lon="4.70884">
        <ele>345.73</ele>
        <time>2013-10-12T08:26:57Z</time>
      </trkpt>
      <trkpt lat="45.81618" lon="4.70878">
        <ele>345.73</ele>
        <time>2013-10-12T08:26:58Z</time>
      </trkpt>
      <trkpt lat="45.81618" lon="4.70819">
        <ele>346.21</ele>
        <time>2013-10-12T08:27:08Z</time>
      </trkpt>
      <trkpt lat="45.81618" lon="4.70813">
        <ele>346.69</ele>
        <time>2013-10-12T08:27:09Z</time>
      </trkpt>
      <trkpt lat="45.81617" lon="4.70749">
        <ele>346.69</ele>
        <time>2013-10-12T08:27:20Z</time>
      </trkpt>
      <trkpt lat="45.81619" lon="4.70683">
        <ele>348.13</ele>
        <time>2013-10-12T08:27:32Z</time>
      </trkpt>
      <trkpt lat="45.81617" lon="4.70637">
        <ele>349.1</ele>
        <time>2013-10-12T08:27:41Z</time>
      </trkpt>
      <trkpt lat="45.81617" lon="4.70631">
        <ele>349.1</ele>
        <time>2013-10-12T08:27:42Z</time>
      </trkpt>
      <trkpt lat="45.81616" lon="4.70624">
        <ele>349.58</ele>
        <time>2013-10-12T08:27:43Z</time>
      </trkpt>
      <trkpt lat="45.81615" lon="4.70619">
        <ele>349.1</ele>
        <time>2013-10-12T08:27:44Z</time>
      </trkpt>
      <trkpt lat="45.81612" lon="4.70614">
        <ele>350.06</ele>
        <time>2013-10-12T08:27:45Z</time>
      </trkpt>
      <trkpt lat="45.8161" lon="4.7061">
        <ele>350.54</ele>
        <time>2013-10-12T08:27:46Z</time>
      </trkpt>
      <trkpt lat="45.81606" lon="4.70608">
        <ele>350.06</ele>
        <time>2013-10-12T08:27:47Z</time>
      </trkpt>
      <trkpt lat="45.81602" lon="4.70606">
        <ele>350.54</ele>
        <time>2013-10-12T08:27:48Z</time>
      </trkpt>
      <trkpt lat="45.81597" lon="4.70605">
        <ele>350.06</ele>
        <time>2013-10-12T08:27:49Z</time>
      </trkpt>
      <trkpt lat="45.81549" lon="4.70592">
        <ele>348.13</ele>
        <time>2013-10-12T08:27:59Z</time>
      </trkpt>
      <trkpt lat="45.81544" lon="4.70593">
        <ele>347.65</ele>
        <time>2013-10-12T08:28:00Z</time>
      </trkpt>
      <trkpt lat="45.81538" lon="4.70595">
        <ele>348.13</ele>
        <time>2013-10-12T08:28:01Z</time>
      </trkpt>
      <trkpt lat="45.81533" lon="4.70598">
        <ele>347.17</ele>
        <time>2013-10-12T08:28:02Z</time>
      </trkpt>
      <trkpt lat="45.81527" lon="4.70602">
        <ele>346.21</ele>
        <time>2013-10-12T08:28:03Z</time>
      </trkpt>
      <trkpt lat="45.81522" lon="4.70607">
        <ele>346.21</ele>
        <time>2013-10-12T08:28:04Z</time>
      </trkpt>
      <trkpt lat="45.81509" lon="4.70616">
        <ele>344.77</ele>
        <time>2013-10-12T08:28:06Z</time>
      </trkpt>
      <trkpt lat="45.81495" lon="4.70622">
        <ele>342.85</ele>
        <time>2013-10-12T08:28:08Z</time>
      </trkpt>
      <trkpt lat="45.81488" lon="4.70623">
        <ele>342.85</ele>
        <time>2013-10-12T08:28:09Z</time>
      </trkpt>
      <trkpt lat="45.8148" lon="4.70623">
        <ele>342.37</ele>
        <time>2013-10-12T08:28:10Z</time>
      </trkpt>
      <trkpt lat="45.81472" lon="4.70622">
        <ele>341.41</ele>
        <time>2013-10-12T08:28:11Z</time>
      </trkpt>
      <trkpt lat="45.81464" lon="4.7062">
        <ele>340.92</ele>
        <time>2013-10-12T08:28:12Z</time>
      </trkpt>
      <trkpt lat="45.81455" lon="4.70617">
        <ele>339.96</ele>
        <time>2013-10-12T08:28:13Z</time>
      </trkpt>
      <trkpt lat="45.8144" lon="4.70611">
        <ele>339.48</ele>
        <time>2013-10-12T08:28:15Z</time>
      </trkpt>
      <trkpt lat="45.81434" lon="4.70604">
        <ele>338.52</ele>
        <time>2013-10-12T08:28:16Z</time>
      </trkpt>
      <trkpt lat="45.81428" lon="4.70597">
        <ele>338.52</ele>
        <time>2013-10-12T08:28:17Z</time>
      </trkpt>
      <trkpt lat="45.81424" lon="4.70588">
        <ele>338.04</ele>
        <time>2013-10-12T08:28:18Z</time>
      </trkpt>
      <trkpt lat="45.81419" lon="4.70579">
        <ele>337.56</ele>
        <time>2013-10-12T08:28:19Z</time>
      </trkpt>
      <trkpt lat="45.81404" lon="4.70542">
        <ele>337.08</ele>
        <time>2013-10-12T08:28:23Z</time>
      </trkpt>
      <trkpt lat="45.81402" lon="4.70533">
        <ele>336.6</ele>
        <time>2013-10-12T08:28:24Z</time>
      </trkpt>
      <trkpt lat="45.81397" lon="4.70499">
        <ele>337.56</ele>
        <time>2013-10-12T08:28:28Z</time>
      </trkpt>
      <trkpt lat="45.81395" lon="4.70492">
        <ele>338.04</ele>
        <time>2013-10-12T08:28:29Z</time>
      </trkpt>
      <trkpt lat="45.81386" lon="4.70458">
        <ele>338.04</ele>
        <time>2013-10-12T08:28:34Z</time>
      </trkpt>
      <trkpt lat="45.8138" lon="4.70382">
        <ele>338.52</ele>
        <time>2013-10-12T08:28:45Z</time>
      </trkpt>
      <trkpt lat="45.8138" lon="4.70375">
        <ele>338.52</ele>
        <time>2013-10-12T08:28:46Z</time>
      </trkpt>
      <trkpt lat="45.81379" lon="4.70369">
        <ele>338.04</ele>
        <time>2013-10-12T08:28:47Z</time>
      </trkpt>
      <trkpt lat="45.81376" lon="4.70335">
        <ele>339</ele>
        <time>2013-10-12T08:28:55Z</time>
      </trkpt>
      <trkpt lat="45.81375" lon="4.70331">
        <ele>338.52</ele>
        <time>2013-10-12T08:29:02Z</time>
      </trkpt>
      <trkpt lat="45.81375" lon="4.70331">
        <ele>338.52</ele>
        <time>2013-10-12T08:29:14Z</time>
      </trkpt>
      <trkpt lat="45.81375" lon="4.70331">
        <ele>338.52</ele>
        <time>2013-10-12T08:29:33Z</time>
      </trkpt>
      <trkpt lat="45.81375" lon="4.70331">
        <ele>339</ele>
        <time>2013-10-12T08:29:53Z</time>
      </trkpt>
      <trkpt lat="45.81375" lon="4.70331">
        <ele>338.52</ele>
        <time>2013-10-12T08:30:10Z</time>
      </trkpt>
      <trkpt lat="45.81376" lon="4.70331">
        <ele>338.52</ele>
        <time>2013-10-12T08:30:27Z</time>
      </trkpt>
      <trkpt lat="45.81377" lon="4.70333">
        <ele>339</ele>
        <time>2013-10-12T08:30:34Z</time>
      </trkpt>
      <trkpt lat="45.81377" lon="4.70333">
        <ele>339</ele>
        <time>2013-10-12T08:30:58Z</time>
      </trkpt>
      <trkpt lat="45.81377" lon="4.70332">
        <ele>339</ele>
        <time>2013-10-12T08:31:19Z</time>
      </trkpt>
      <trkpt lat="45.81377" lon="4.70332">
        <ele>339</ele>
        <time>2013-10-12T08:31:36Z</time>
      </trkpt>
      <trkpt lat="45.81377" lon="4.70332">
        <ele>339</ele>
        <time>2013-10-12T08:31:37Z</time>
      </trkpt>
      <trkpt lat="45.81373" lon="4.70332">
        <ele>339</ele>
        <time>2013-10-12T08:31:41Z</time>
      </trkpt>
      <trkpt lat="45.81372" lon="4.70333">
        <ele>339</ele>
        <time>2013-10-12T08:31:50Z</time>
      </trkpt>
      <trkpt lat="45.81371" lon="4.70333">
        <ele>339</ele>
        <time>2013-10-12T08:32:06Z</time>
      </trkpt>
      <trkpt lat="45.81371" lon="4.70333">
        <ele>339.48</ele>
        <time>2013-10-12T08:32:26Z</time>
      </trkpt>
      <trkpt lat="45.81372" lon="4.70334">
        <ele>338.52</ele>
        <time>2013-10-12T08:32:47Z</time>
      </trkpt>
      <trkpt lat="45.81372" lon="4.70334">
        <ele>338.52</ele>
        <time>2013-10-12T08:33:02Z</time>
      </trkpt>
      <trkpt lat="45.81372" lon="4.70334">
        <ele>339</ele>
        <time>2013-10-12T08:33:16Z</time>
      </trkpt>
      <trkpt lat="45.81372" lon="4.70332">
        <ele>338.52</ele>
        <time>2013-10-12T08:33:27Z</time>
      </trkpt>
      <trkpt lat="45.81372" lon="4.70331">
        <ele>338.52</ele>
        <time>2013-10-12T08:33:41Z</time>
      </trkpt>
      <trkpt lat="45.81373" lon="4.70328">
        <ele>339</ele>
        <time>2013-10-12T08:33:59Z</time>
      </trkpt>
      <trkpt lat="45.81373" lon="4.70327">
        <ele>338.52</ele>
        <time>2013-10-12T08:34:00Z</time>
      </trkpt>
      <trkpt lat="45.81369" lon="4.703">
        <ele>339</ele>
        <time>2013-10-12T08:34:09Z</time>
      </trkpt>
      <trkpt lat="45.8136" lon="4.70251">
        <ele>339</ele>
        <time>2013-10-12T08:34:20Z</time>
      </trkpt>
      <trkpt lat="45.81342" lon="4.70183">
        <ele>338.04</ele>
        <time>2013-10-12T08:34:34Z</time>
      </trkpt>
      <trkpt lat="45.81333" lon="4.70167">
        <ele>337.08</ele>
        <time>2013-10-12T08:34:38Z</time>
      </trkpt>
      <trkpt lat="45.8133" lon="4.70164">
        <ele>337.08</ele>
        <time>2013-10-12T08:34:39Z</time>
      </trkpt>
      <trkpt lat="45.81321" lon="4.7016">
        <ele>337.08</ele>
        <time>2013-10-12T08:34:41Z</time>
      </trkpt>
      <trkpt lat="45.81265" lon="4.70152">
        <ele>333.23</ele>
        <time>2013-10-12T08:34:51Z</time>
      </trkpt>
      <trkpt lat="45.8121" lon="4.70148">
        <ele>329.87</ele>
        <time>2013-10-12T08:34:59Z</time>
      </trkpt>
      <trkpt lat="45.81172" lon="4.70143">
        <ele>327.47</ele>
        <time>2013-10-12T08:35:04Z</time>
      </trkpt>
      <trkpt lat="45.81124" lon="4.70138">
        <ele>323.62</ele>
        <time>2013-10-12T08:35:10Z</time>
      </trkpt>
      <trkpt lat="45.81116" lon="4.70137">
        <ele>323.62</ele>
        <time>2013-10-12T08:35:11Z</time>
      </trkpt>
      <trkpt lat="45.81084" lon="4.70132">
        <ele>321.22</ele>
        <time>2013-10-12T08:35:15Z</time>
      </trkpt>
      <trkpt lat="45.8106" lon="4.70128">
        <ele>320.26</ele>
        <time>2013-10-12T08:35:18Z</time>
      </trkpt>
      <trkpt lat="45.81038" lon="4.7012">
        <ele>318.81</ele>
        <time>2013-10-12T08:35:21Z</time>
      </trkpt>
      <trkpt lat="45.81004" lon="4.70094">
        <ele>314.97</ele>
        <time>2013-10-12T08:35:26Z</time>
      </trkpt>
      <trkpt lat="45.80977" lon="4.70075">
        <ele>312.57</ele>
        <time>2013-10-12T08:35:30Z</time>
      </trkpt>
      <trkpt lat="45.8097" lon="4.70072">
        <ele>312.57</ele>
        <time>2013-10-12T08:35:31Z</time>
      </trkpt>
      <trkpt lat="45.80941" lon="4.70064">
        <ele>308.72</ele>
        <time>2013-10-12T08:35:35Z</time>
      </trkpt>
      <trkpt lat="45.80919" lon="4.70057">
        <ele>305.36</ele>
        <time>2013-10-12T08:35:38Z</time>
      </trkpt>
      <trkpt lat="45.80898" lon="4.70052">
        <ele>301.03</ele>
        <time>2013-10-12T08:35:41Z</time>
      </trkpt>
      <trkpt lat="45.80885" lon="4.7005">
        <ele>298.63</ele>
        <time>2013-10-12T08:35:43Z</time>
      </trkpt>
      <trkpt lat="45.80876" lon="4.70047">
        <ele>297.67</ele>
        <time>2013-10-12T08:35:45Z</time>
      </trkpt>
      <trkpt lat="45.80871" lon="4.70047">
        <ele>296.22</ele>
        <time>2013-10-12T08:35:46Z</time>
      </trkpt>
      <trkpt lat="45.80868" lon="4.70051">
        <ele>295.74</ele>
        <time>2013-10-12T08:35:47Z</time>
      </trkpt>
      <trkpt lat="45.80866" lon="4.70057">
        <ele>296.22</ele>
        <time>2013-10-12T08:35:48Z</time>
      </trkpt>
      <trkpt lat="45.80865" lon="4.70065">
        <ele>295.74</ele>
        <time>2013-10-12T08:35:49Z</time>
      </trkpt>
      <trkpt lat="45.80864" lon="4.70073">
        <ele>295.26</ele>
        <time>2013-10-12T08:35:50Z</time>
      </trkpt>
      <trkpt lat="45.80864" lon="4.7008">
        <ele>295.26</ele>
        <time>2013-10-12T08:35:51Z</time>
      </trkpt>
      <trkpt lat="45.80864" lon="4.70111">
        <ele>294.3</ele>
        <time>2013-10-12T08:35:55Z</time>
      </trkpt>
      <trkpt lat="45.80863" lon="4.70129">
        <ele>293.34</ele>
        <time>2013-10-12T08:35:57Z</time>
      </trkpt>
      <trkpt lat="45.80857" lon="4.7019">
        <ele>290.94</ele>
        <time>2013-10-12T08:36:03Z</time>
      </trkpt>
      <trkpt lat="45.80847" lon="4.70229">
        <ele>292.38</ele>
        <time>2013-10-12T08:36:09Z</time>
      </trkpt>
      <trkpt lat="45.80851" lon="4.70249">
        <ele>293.34</ele>
        <time>2013-10-12T08:36:13Z</time>
      </trkpt>
      <trkpt lat="45.80853" lon="4.70254">
        <ele>292.86</ele>
        <time>2013-10-12T08:36:14Z</time>
      </trkpt>
      <trkpt lat="45.80877" lon="4.70296">
        <ele>291.42</ele>
        <time>2013-10-12T08:36:22Z</time>
      </trkpt>
      <trkpt lat="45.80884" lon="4.70307">
        <ele>289.97</ele>
        <time>2013-10-12T08:36:24Z</time>
      </trkpt>
      <trkpt lat="45.80886" lon="4.70313">
        <ele>289.97</ele>
        <time>2013-10-12T08:36:25Z</time>
      </trkpt>
      <trkpt lat="45.80888" lon="4.7032">
        <ele>289.01</ele>
        <time>2013-10-12T08:36:26Z</time>
      </trkpt>
      <trkpt lat="45.80889" lon="4.70328">
        <ele>288.05</ele>
        <time>2013-10-12T08:36:27Z</time>
      </trkpt>
      <trkpt lat="45.80888" lon="4.70336">
        <ele>287.57</ele>
        <time>2013-10-12T08:36:28Z</time>
      </trkpt>
      <trkpt lat="45.80886" lon="4.70343">
        <ele>286.61</ele>
        <time>2013-10-12T08:36:29Z</time>
      </trkpt>
      <trkpt lat="45.80883" lon="4.70349">
        <ele>286.13</ele>
        <time>2013-10-12T08:36:30Z</time>
      </trkpt>
      <trkpt lat="45.80878" lon="4.70353">
        <ele>286.13</ele>
        <time>2013-10-12T08:36:31Z</time>
      </trkpt>
      <trkpt lat="45.80873" lon="4.70355">
        <ele>286.13</ele>
        <time>2013-10-12T08:36:32Z</time>
      </trkpt>
      <trkpt lat="45.80867" lon="4.70355">
        <ele>286.13</ele>
        <time>2013-10-12T08:36:33Z</time>
      </trkpt>
      <trkpt lat="45.80863" lon="4.70354">
        <ele>285.65</ele>
        <time>2013-10-12T08:36:34Z</time>
      </trkpt>
      <trkpt lat="45.80858" lon="4.70352">
        <ele>284.69</ele>
        <time>2013-10-12T08:36:35Z</time>
      </trkpt>
      <trkpt lat="45.80853" lon="4.70349">
        <ele>284.69</ele>
        <time>2013-10-12T08:36:36Z</time>
      </trkpt>
      <trkpt lat="45.80827" lon="4.70336">
        <ele>282.77</ele>
        <time>2013-10-12T08:36:42Z</time>
      </trkpt>
      <trkpt lat="45.80824" lon="4.70332">
        <ele>281.8</ele>
        <time>2013-10-12T08:36:43Z</time>
      </trkpt>
      <trkpt lat="45.80822" lon="4.70326">
        <ele>281.8</ele>
        <time>2013-10-12T08:36:44Z</time>
      </trkpt>
      <trkpt lat="45.8082" lon="4.7032">
        <ele>281.32</ele>
        <time>2013-10-12T08:36:45Z</time>
      </trkpt>
      <trkpt lat="45.80817" lon="4.70315">
        <ele>281.32</ele>
        <time>2013-10-12T08:36:46Z</time>
      </trkpt>
      <trkpt lat="45.80813" lon="4.70311">
        <ele>281.32</ele>
        <time>2013-10-12T08:36:47Z</time>
      </trkpt>
      <trkpt lat="45.8081" lon="4.70307">
        <ele>280.84</ele>
        <time>2013-10-12T08:36:48Z</time>
      </trkpt>
      <trkpt lat="45.80807" lon="4.70304">
        <ele>280.84</ele>
        <time>2013-10-12T08:36:49Z</time>
      </trkpt>
      <trkpt lat="45.80804" lon="4.703">
        <ele>280.84</ele>
        <time>2013-10-12T08:36:50Z</time>
      </trkpt>
      <trkpt lat="45.80803" lon="4.70296">
        <ele>280.36</ele>
        <time>2013-10-12T08:36:51Z</time>
      </trkpt>
      <trkpt lat="45.80803" lon="4.70291">
        <ele>279.88</ele>
        <time>2013-10-12T08:36:52Z</time>
      </trkpt>
      <trkpt lat="45.80804" lon="4.70286">
        <ele>279.88</ele>
        <time>2013-10-12T08:36:53Z</time>
      </trkpt>
      <trkpt lat="45.80804" lon="4.70281">
        <ele>280.36</ele>
        <time>2013-10-12T08:36:54Z</time>
      </trkpt>
      <trkpt lat="45.80805" lon="4.70275">
        <ele>279.88</ele>
        <time>2013-10-12T08:36:55Z</time>
      </trkpt>
      <trkpt lat="45.80806" lon="4.7027">
        <ele>280.36</ele>
        <time>2013-10-12T08:36:56Z</time>
      </trkpt>
      <trkpt lat="45.8081" lon="4.70232">
        <ele>280.36</ele>
        <time>2013-10-12T08:37:03Z</time>
      </trkpt>
      <trkpt lat="45.80811" lon="4.70226">
        <ele>280.36</ele>
        <time>2013-10-12T08:37:04Z</time>
      </trkpt>
      <trkpt lat="45.80813" lon="4.7022">
        <ele>279.4</ele>
        <time>2013-10-12T08:37:05Z</time>
      </trkpt>
      <trkpt lat="45.80814" lon="4.70213">
        <ele>279.4</ele>
        <time>2013-10-12T08:37:06Z</time>
      </trkpt>
      <trkpt lat="45.80816" lon="4.70193">
        <ele>279.88</ele>
        <time>2013-10-12T08:37:09Z</time>
      </trkpt>
      <trkpt lat="45.80815" lon="4.70186">
        <ele>278.92</ele>
        <time>2013-10-12T08:37:10Z</time>
      </trkpt>
      <trkpt lat="45.80814" lon="4.7018">
        <ele>278.92</ele>
        <time>2013-10-12T08:37:11Z</time>
      </trkpt>
      <trkpt lat="45.80814" lon="4.70173">
        <ele>278.44</ele>
        <time>2013-10-12T08:37:12Z</time>
      </trkpt>
      <trkpt lat="45.80814" lon="4.70166">
        <ele>277.96</ele>
        <time>2013-10-12T08:37:13Z</time>
      </trkpt>
      <trkpt lat="45.80814" lon="4.70159">
        <ele>277.96</ele>
        <time>2013-10-12T08:37:14Z</time>
      </trkpt>
      <trkpt lat="45.80813" lon="4.70133">
        <ele>278.44</ele>
        <time>2013-10-12T08:37:18Z</time>
      </trkpt>
      <trkpt lat="45.80813" lon="4.70125">
        <ele>277.96</ele>
        <time>2013-10-12T08:37:19Z</time>
      </trkpt>
      <trkpt lat="45.80814" lon="4.70118">
        <ele>278.92</ele>
        <time>2013-10-12T08:37:20Z</time>
      </trkpt>
      <trkpt lat="45.80815" lon="4.70113">
        <ele>278.92</ele>
        <time>2013-10-12T08:37:21Z</time>
      </trkpt>
      <trkpt lat="45.80816" lon="4.70109">
        <ele>278.92</ele>
        <time>2013-10-12T08:37:22Z</time>
      </trkpt>
      <trkpt lat="45.80816" lon="4.70105">
        <ele>278.92</ele>
        <time>2013-10-12T08:37:23Z</time>
      </trkpt>
      <trkpt lat="45.80815" lon="4.70102">
        <ele>279.4</ele>
        <time>2013-10-12T08:37:24Z</time>
      </trkpt>
      <trkpt lat="45.80813" lon="4.70097">
        <ele>279.4</ele>
        <time>2013-10-12T08:37:25Z</time>
      </trkpt>
      <trkpt lat="45.8081" lon="4.70093">
        <ele>278.92</ele>
        <time>2013-10-12T08:37:26Z</time>
      </trkpt>
      <trkpt lat="45.80807" lon="4.70091">
        <ele>279.88</ele>
        <time>2013-10-12T08:37:27Z</time>
      </trkpt>
      <trkpt lat="45.80805" lon="4.70088">
        <ele>278.92</ele>
        <time>2013-10-12T08:37:28Z</time>
      </trkpt>
      <trkpt lat="45.80775" lon="4.70064">
        <ele>279.4</ele>
        <time>2013-10-12T08:37:36Z</time>
      </trkpt>
      <trkpt lat="45.80755" lon="4.7006">
        <ele>281.32</ele>
        <time>2013-10-12T08:37:42Z</time>
      </trkpt>
      <trkpt lat="45.8075" lon="4.70058">
        <ele>281.8</ele>
        <time>2013-10-12T08:37:44Z</time>
      </trkpt>
      <trkpt lat="45.80748" lon="4.70058">
        <ele>282.28</ele>
        <time>2013-10-12T08:37:45Z</time>
      </trkpt>
      <trkpt lat="45.80746" lon="4.70058">
        <ele>282.77</ele>
        <time>2013-10-12T08:37:46Z</time>
      </trkpt>
      <trkpt lat="45.80731" lon="4.70062">
        <ele>285.17</ele>
        <time>2013-10-12T08:37:53Z</time>
      </trkpt>
      <trkpt lat="45.80725" lon="4.70066">
        <ele>286.61</ele>
        <time>2013-10-12T08:37:58Z</time>
      </trkpt>
      <trkpt lat="45.80725" lon="4.70075">
        <ele>288.05</ele>
        <time>2013-10-12T08:38:01Z</time>
      </trkpt>
      <trkpt lat="45.80726" lon="4.70083">
        <ele>288.53</ele>
        <time>2013-10-12T08:38:04Z</time>
      </trkpt>
      <trkpt lat="45.8073" lon="4.70091">
        <ele>289.49</ele>
        <time>2013-10-12T08:38:08Z</time>
      </trkpt>
      <trkpt lat="45.80733" lon="4.70105">
        <ele>291.42</ele>
        <time>2013-10-12T08:38:13Z</time>
      </trkpt>
      <trkpt lat="45.80731" lon="4.70112">
        <ele>291.9</ele>
        <time>2013-10-12T08:38:16Z</time>
      </trkpt>
      <trkpt lat="45.80722" lon="4.70119">
        <ele>293.82</ele>
        <time>2013-10-12T08:38:22Z</time>
      </trkpt>
      <trkpt lat="45.80719" lon="4.70119">
        <ele>294.3</ele>
        <time>2013-10-12T08:38:24Z</time>
      </trkpt>
      <trkpt lat="45.80702" lon="4.70128">
        <ele>295.74</ele>
        <time>2013-10-12T08:38:33Z</time>
      </trkpt>
      <trkpt lat="45.80692" lon="4.70134">
        <ele>296.7</ele>
        <time>2013-10-12T08:38:38Z</time>
      </trkpt>
      <trkpt lat="45.80683" lon="4.70138">
        <ele>297.67</ele>
        <time>2013-10-12T08:38:42Z</time>
      </trkpt>
      <trkpt lat="45.80659" lon="4.70152">
        <ele>299.59</ele>
        <time>2013-10-12T08:38:52Z</time>
      </trkpt>
      <trkpt lat="45.80631" lon="4.70169">
        <ele>300.55</ele>
        <time>2013-10-12T08:39:02Z</time>
      </trkpt>
      <trkpt lat="45.80605" lon="4.70184">
        <ele>301.51</ele>
        <time>2013-10-12T08:39:12Z</time>
      </trkpt>
      <trkpt lat="45.80579" lon="4.70193">
        <ele>302.95</ele>
        <time>2013-10-12T08:39:23Z</time>
      </trkpt>
      <trkpt lat="45.80562" lon="4.70181">
        <ele>303.43</ele>
        <time>2013-10-12T08:39:31Z</time>
      </trkpt>
      <trkpt lat="45.8054" lon="4.7016">
        <ele>305.36</ele>
        <time>2013-10-12T08:39:41Z</time>
      </trkpt>
      <trkpt lat="45.80519" lon="4.70137">
        <ele>306.32</ele>
        <time>2013-10-12T08:39:52Z</time>
      </trkpt>
      <trkpt lat="45.80495" lon="4.70122">
        <ele>308.24</ele>
        <time>2013-10-12T08:40:03Z</time>
      </trkpt>
      <trkpt lat="45.80472" lon="4.70115">
        <ele>309.2</ele>
        <time>2013-10-12T08:40:13Z</time>
      </trkpt>
      <trkpt lat="45.80452" lon="4.70101">
        <ele>310.64</ele>
        <time>2013-10-12T08:40:22Z</time>
      </trkpt>
      <trkpt lat="45.80426" lon="4.70088">
        <ele>310.64</ele>
        <time>2013-10-12T08:40:33Z</time>
      </trkpt>
      <trkpt lat="45.80407" lon="4.70075">
        <ele>311.6</ele>
        <time>2013-10-12T08:40:41Z</time>
      </trkpt>
      <trkpt lat="45.80387" lon="4.70059">
        <ele>311.6</ele>
        <time>2013-10-12T08:40:49Z</time>
      </trkpt>
      <trkpt lat="45.80359" lon="4.70041">
        <ele>312.57</ele>
        <time>2013-10-12T08:41:00Z</time>
      </trkpt>
      <trkpt lat="45.8033" lon="4.70033">
        <ele>313.05</ele>
        <time>2013-10-12T08:41:10Z</time>
      </trkpt>
      <trkpt lat="45.80306" lon="4.70035">
        <ele>313.05</ele>
        <time>2013-10-12T08:41:19Z</time>
      </trkpt>
      <trkpt lat="45.80283" lon="4.70058">
        <ele>314.01</ele>
        <time>2013-10-12T08:41:28Z</time>
      </trkpt>
      <trkpt lat="45.80271" lon="4.70071">
        <ele>314.49</ele>
        <time>2013-10-12T08:41:32Z</time>
      </trkpt>
      <trkpt lat="45.80255" lon="4.70089">
        <ele>314.49</ele>
        <time>2013-10-12T08:41:38Z</time>
      </trkpt>
      <trkpt lat="45.80244" lon="4.70102">
        <ele>314.49</ele>
        <time>2013-10-12T08:41:42Z</time>
      </trkpt>
      <trkpt lat="45.80217" lon="4.70131">
        <ele>314.49</ele>
        <time>2013-10-12T08:41:50Z</time>
      </trkpt>
      <trkpt lat="45.80214" lon="4.70134">
        <ele>314.01</ele>
        <time>2013-10-12T08:41:51Z</time>
      </trkpt>
      <trkpt lat="45.80211" lon="4.70138">
        <ele>314.49</ele>
        <time>2013-10-12T08:41:52Z</time>
      </trkpt>
      <trkpt lat="45.80207" lon="4.70142">
        <ele>314.49</ele>
        <time>2013-10-12T08:41:53Z</time>
      </trkpt>
      <trkpt lat="45.80204" lon="4.70147">
        <ele>314.49</ele>
        <time>2013-10-12T08:41:54Z</time>
      </trkpt>
      <trkpt lat="45.80201" lon="4.7015">
        <ele>314.49</ele>
        <time>2013-10-12T08:41:55Z</time>
      </trkpt>
      <trkpt lat="45.80197" lon="4.70152">
        <ele>314.49</ele>
        <time>2013-10-12T08:41:56Z</time>
      </trkpt>
      <trkpt lat="45.80193" lon="4.70155">
        <ele>314.49</ele>
        <time>2013-10-12T08:41:57Z</time>
      </trkpt>
      <trkpt lat="45.8019" lon="4.70158">
        <ele>314.01</ele>
        <time>2013-10-12T08:41:58Z</time>
      </trkpt>
      <trkpt lat="45.80187" lon="4.70162">
        <ele>314.01</ele>
        <time>2013-10-12T08:41:59Z</time>
      </trkpt>
      <trkpt lat="45.80183" lon="4.70166">
        <ele>314.01</ele>
        <time>2013-10-12T08:42:00Z</time>
      </trkpt>
      <trkpt lat="45.8018" lon="4.70171">
        <ele>314.01</ele>
        <time>2013-10-12T08:42:01Z</time>
      </trkpt>
      <trkpt lat="45.80156" lon="4.70198">
        <ele>313.53</ele>
        <time>2013-10-12T08:42:09Z</time>
      </trkpt>
      <trkpt lat="45.80129" lon="4.70218">
        <ele>312.57</ele>
        <time>2013-10-12T08:42:17Z</time>
      </trkpt>
      <trkpt lat="45.80119" lon="4.70219">
        <ele>312.57</ele>
        <time>2013-10-12T08:42:20Z</time>
      </trkpt>
      <trkpt lat="45.80116" lon="4.70217">
        <ele>312.57</ele>
        <time>2013-10-12T08:42:21Z</time>
      </trkpt>
      <trkpt lat="45.80113" lon="4.70213">
        <ele>312.57</ele>
        <time>2013-10-12T08:42:22Z</time>
      </trkpt>
      <trkpt lat="45.80111" lon="4.70209">
        <ele>312.09</ele>
        <time>2013-10-12T08:42:23Z</time>
      </trkpt>
      <trkpt lat="45.80109" lon="4.70205">
        <ele>312.57</ele>
        <time>2013-10-12T08:42:24Z</time>
      </trkpt>
      <trkpt lat="45.80108" lon="4.70201">
        <ele>312.09</ele>
        <time>2013-10-12T08:42:25Z</time>
      </trkpt>
      <trkpt lat="45.80106" lon="4.70196">
        <ele>312.09</ele>
        <time>2013-10-12T08:42:26Z</time>
      </trkpt>
      <trkpt lat="45.80105" lon="4.70192">
        <ele>312.09</ele>
        <time>2013-10-12T08:42:27Z</time>
      </trkpt>
      <trkpt lat="45.80102" lon="4.70182">
        <ele>312.09</ele>
        <time>2013-10-12T08:42:29Z</time>
      </trkpt>
      <trkpt lat="45.80099" lon="4.70176">
        <ele>312.09</ele>
        <time>2013-10-12T08:42:30Z</time>
      </trkpt>
      <trkpt lat="45.80078" lon="4.70143">
        <ele>312.09</ele>
        <time>2013-10-12T08:42:38Z</time>
      </trkpt>
      <trkpt lat="45.80065" lon="4.7013">
        <ele>312.09</ele>
        <time>2013-10-12T08:42:42Z</time>
      </trkpt>
      <trkpt lat="45.80061" lon="4.70129">
        <ele>312.09</ele>
        <time>2013-10-12T08:42:43Z</time>
      </trkpt>
      <trkpt lat="45.80046" lon="4.7013">
        <ele>312.09</ele>
        <time>2013-10-12T08:42:46Z</time>
      </trkpt>
      <trkpt lat="45.80041" lon="4.70131">
        <ele>312.09</ele>
        <time>2013-10-12T08:42:47Z</time>
      </trkpt>
      <trkpt lat="45.80008" lon="4.70131">
        <ele>312.57</ele>
        <time>2013-10-12T08:42:55Z</time>
      </trkpt>
      <trkpt lat="45.79974" lon="4.70131">
        <ele>312.09</ele>
        <time>2013-10-12T08:43:03Z</time>
      </trkpt>
      <trkpt lat="45.79952" lon="4.70135">
        <ele>312.09</ele>
        <time>2013-10-12T08:43:09Z</time>
      </trkpt>
      <trkpt lat="45.79949" lon="4.70131">
        <ele>311.6</ele>
        <time>2013-10-12T08:43:10Z</time>
      </trkpt>
      <trkpt lat="45.79947" lon="4.70127">
        <ele>312.09</ele>
        <time>2013-10-12T08:43:11Z</time>
      </trkpt>
      <trkpt lat="45.79925" lon="4.70095">
        <ele>312.57</ele>
        <time>2013-10-12T08:43:20Z</time>
      </trkpt>
      <trkpt lat="45.79908" lon="4.70062">
        <ele>312.09</ele>
        <time>2013-10-12T08:43:28Z</time>
      </trkpt>
      <trkpt lat="45.79888" lon="4.70025">
        <ele>313.53</ele>
        <time>2013-10-12T08:43:37Z</time>
      </trkpt>
      <trkpt lat="45.79883" lon="4.70005">
        <ele>313.05</ele>
        <time>2013-10-12T08:43:42Z</time>
      </trkpt>
      <trkpt lat="45.79882" lon="4.70003">
        <ele>313.53</ele>
        <time>2013-10-12T08:43:43Z</time>
      </trkpt>
      <trkpt lat="45.79881" lon="4.69999">
        <ele>313.05</ele>
        <time>2013-10-12T08:43:44Z</time>
      </trkpt>
      <trkpt lat="45.79882" lon="4.69986">
        <ele>314.01</ele>
        <time>2013-10-12T08:43:48Z</time>
      </trkpt>
      <trkpt lat="45.79881" lon="4.69982">
        <ele>314.01</ele>
        <time>2013-10-12T08:43:49Z</time>
      </trkpt>
      <trkpt lat="45.79881" lon="4.69978">
        <ele>314.01</ele>
        <time>2013-10-12T08:43:50Z</time>
      </trkpt>
      <trkpt lat="45.7988" lon="4.69975">
        <ele>313.53</ele>
        <time>2013-10-12T08:43:51Z</time>
      </trkpt>
      <trkpt lat="45.79881" lon="4.69972">
        <ele>314.49</ele>
        <time>2013-10-12T08:43:52Z</time>
      </trkpt>
      <trkpt lat="45.79881" lon="4.69969">
        <ele>314.49</ele>
        <time>2013-10-12T08:43:53Z</time>
      </trkpt>
      <trkpt lat="45.79881" lon="4.69964">
        <ele>314.49</ele>
        <time>2013-10-12T08:43:54Z</time>
      </trkpt>
      <trkpt lat="45.79881" lon="4.69959">
        <ele>314.49</ele>
        <time>2013-10-12T08:43:55Z</time>
      </trkpt>
      <trkpt lat="45.79882" lon="4.69954">
        <ele>314.49</ele>
        <time>2013-10-12T08:43:56Z</time>
      </trkpt>
      <trkpt lat="45.79882" lon="4.6995">
        <ele>314.49</ele>
        <time>2013-10-12T08:43:57Z</time>
      </trkpt>
      <trkpt lat="45.79883" lon="4.69945">
        <ele>314.49</ele>
        <time>2013-10-12T08:43:58Z</time>
      </trkpt>
      <trkpt lat="45.79884" lon="4.6994">
        <ele>314.97</ele>
        <time>2013-10-12T08:43:59Z</time>
      </trkpt>
      <trkpt lat="45.79885" lon="4.69936">
        <ele>314.97</ele>
        <time>2013-10-12T08:44:00Z</time>
      </trkpt>
      <trkpt lat="45.79886" lon="4.69932">
        <ele>314.97</ele>
        <time>2013-10-12T08:44:01Z</time>
      </trkpt>
      <trkpt lat="45.79888" lon="4.69927">
        <ele>314.97</ele>
        <time>2013-10-12T08:44:02Z</time>
      </trkpt>
      <trkpt lat="45.79889" lon="4.69923">
        <ele>315.93</ele>
        <time>2013-10-12T08:44:03Z</time>
      </trkpt>
      <trkpt lat="45.79891" lon="4.69918">
        <ele>315.45</ele>
        <time>2013-10-12T08:44:04Z</time>
      </trkpt>
      <trkpt lat="45.79902" lon="4.69885">
        <ele>316.41</ele>
        <time>2013-10-12T08:44:12Z</time>
      </trkpt>
      <trkpt lat="45.79902" lon="4.6987">
        <ele>317.37</ele>
        <time>2013-10-12T08:44:15Z</time>
      </trkpt>
      <trkpt lat="45.79903" lon="4.69865">
        <ele>317.37</ele>
        <time>2013-10-12T08:44:16Z</time>
      </trkpt>
      <trkpt lat="45.79904" lon="4.69861">
        <ele>317.85</ele>
        <time>2013-10-12T08:44:17Z</time>
      </trkpt>
      <trkpt lat="45.79906" lon="4.69852">
        <ele>317.37</ele>
        <time>2013-10-12T08:44:20Z</time>
      </trkpt>
      <trkpt lat="45.79916" lon="4.69813">
        <ele>319.3</ele>
        <time>2013-10-12T08:44:30Z</time>
      </trkpt>
      <trkpt lat="45.79918" lon="4.69809">
        <ele>319.3</ele>
        <time>2013-10-12T08:44:31Z</time>
      </trkpt>
      <trkpt lat="45.7992" lon="4.69805">
        <ele>318.81</ele>
        <time>2013-10-12T08:44:32Z</time>
      </trkpt>
      <trkpt lat="45.79933" lon="4.69781">
        <ele>319.3</ele>
        <time>2013-10-12T08:44:39Z</time>
      </trkpt>
      <trkpt lat="45.79925" lon="4.69736">
        <ele>319.78</ele>
        <time>2013-10-12T08:44:48Z</time>
      </trkpt>
      <trkpt lat="45.79927" lon="4.69686">
        <ele>320.26</ele>
        <time>2013-10-12T08:44:58Z</time>
      </trkpt>
      <trkpt lat="45.79924" lon="4.69644">
        <ele>321.22</ele>
        <time>2013-10-12T08:45:08Z</time>
      </trkpt>
      <trkpt lat="45.79929" lon="4.69607">
        <ele>322.18</ele>
        <time>2013-10-12T08:45:18Z</time>
      </trkpt>
      <trkpt lat="45.79936" lon="4.69553">
        <ele>323.14</ele>
        <time>2013-10-12T08:45:31Z</time>
      </trkpt>
      <trkpt lat="45.79941" lon="4.69514">
        <ele>324.1</ele>
        <time>2013-10-12T08:45:40Z</time>
      </trkpt>
      <trkpt lat="45.7994" lon="4.6951">
        <ele>323.62</ele>
        <time>2013-10-12T08:45:41Z</time>
      </trkpt>
      <trkpt lat="45.79939" lon="4.69507">
        <ele>324.1</ele>
        <time>2013-10-12T08:45:42Z</time>
      </trkpt>
      <trkpt lat="45.7994" lon="4.69504">
        <ele>324.1</ele>
        <time>2013-10-12T08:45:43Z</time>
      </trkpt>
      <trkpt lat="45.7994" lon="4.695">
        <ele>324.1</ele>
        <time>2013-10-12T08:45:44Z</time>
      </trkpt>
      <trkpt lat="45.79941" lon="4.69497">
        <ele>324.1</ele>
        <time>2013-10-12T08:45:45Z</time>
      </trkpt>
      <trkpt lat="45.79941" lon="4.69494">
        <ele>324.58</ele>
        <time>2013-10-12T08:45:46Z</time>
      </trkpt>
      <trkpt lat="45.79941" lon="4.6949">
        <ele>324.58</ele>
        <time>2013-10-12T08:45:47Z</time>
      </trkpt>
      <trkpt lat="45.79941" lon="4.69486">
        <ele>324.58</ele>
        <time>2013-10-12T08:45:48Z</time>
      </trkpt>
      <trkpt lat="45.79942" lon="4.69483">
        <ele>325.06</ele>
        <time>2013-10-12T08:45:49Z</time>
      </trkpt>
      <trkpt lat="45.79943" lon="4.69479">
        <ele>324.58</ele>
        <time>2013-10-12T08:45:50Z</time>
      </trkpt>
      <trkpt lat="45.79943" lon="4.69476">
        <ele>325.06</ele>
        <time>2013-10-12T08:45:51Z</time>
      </trkpt>
      <trkpt lat="45.79944" lon="4.69443">
        <ele>325.54</ele>
        <time>2013-10-12T08:46:00Z</time>
      </trkpt>
      <trkpt lat="45.7994" lon="4.69432">
        <ele>325.54</ele>
        <time>2013-10-12T08:46:03Z</time>
      </trkpt>
      <trkpt lat="45.79938" lon="4.69431">
        <ele>325.54</ele>
        <time>2013-10-12T08:46:04Z</time>
      </trkpt>
      <trkpt lat="45.79937" lon="4.69429">
        <ele>326.02</ele>
        <time>2013-10-12T08:46:05Z</time>
      </trkpt>
      <trkpt lat="45.79935" lon="4.69426">
        <ele>326.02</ele>
        <time>2013-10-12T08:46:06Z</time>
      </trkpt>
      <trkpt lat="45.79934" lon="4.69424">
        <ele>326.02</ele>
        <time>2013-10-12T08:46:07Z</time>
      </trkpt>
      <trkpt lat="45.79932" lon="4.69422">
        <ele>326.5</ele>
        <time>2013-10-12T08:46:08Z</time>
      </trkpt>
      <trkpt lat="45.79929" lon="4.6942">
        <ele>326.5</ele>
        <time>2013-10-12T08:46:09Z</time>
      </trkpt>
      <trkpt lat="45.79905" lon="4.69397">
        <ele>326.5</ele>
        <time>2013-10-12T08:46:19Z</time>
      </trkpt>
      <trkpt lat="45.79883" lon="4.69371">
        <ele>327.95</ele>
        <time>2013-10-12T08:46:29Z</time>
      </trkpt>
      <trkpt lat="45.79867" lon="4.69346">
        <ele>328.43</ele>
        <time>2013-10-12T08:46:38Z</time>
      </trkpt>
      <trkpt lat="45.79851" lon="4.69318">
        <ele>329.39</ele>
        <time>2013-10-12T08:46:47Z</time>
      </trkpt>
      <trkpt lat="45.79835" lon="4.6929">
        <ele>329.87</ele>
        <time>2013-10-12T08:46:56Z</time>
      </trkpt>
      <trkpt lat="45.79817" lon="4.69253">
        <ele>331.79</ele>
        <time>2013-10-12T08:47:07Z</time>
      </trkpt>
      <trkpt lat="45.79796" lon="4.69211">
        <ele>333.23</ele>
        <time>2013-10-12T08:47:19Z</time>
      </trkpt>
      <trkpt lat="45.79777" lon="4.69185">
        <ele>334.68</ele>
        <time>2013-10-12T08:47:29Z</time>
      </trkpt>
      <trkpt lat="45.79745" lon="4.69164">
        <ele>334.68</ele>
        <time>2013-10-12T08:47:39Z</time>
      </trkpt>
      <trkpt lat="45.79711" lon="4.69143">
        <ele>334.68</ele>
        <time>2013-10-12T08:47:50Z</time>
      </trkpt>
      <trkpt lat="45.79666" lon="4.69113">
        <ele>334.68</ele>
        <time>2013-10-12T08:48:03Z</time>
      </trkpt>
      <trkpt lat="45.79662" lon="4.6911">
        <ele>334.68</ele>
        <time>2013-10-12T08:48:04Z</time>
      </trkpt>
      <trkpt lat="45.79638" lon="4.69088">
        <ele>334.2</ele>
        <time>2013-10-12T08:48:11Z</time>
      </trkpt>
      <trkpt lat="45.79616" lon="4.69052">
        <ele>333.71</ele>
        <time>2013-10-12T08:48:19Z</time>
      </trkpt>
      <trkpt lat="45.796" lon="4.69033">
        <ele>334.2</ele>
        <time>2013-10-12T08:48:24Z</time>
      </trkpt>
      <trkpt lat="45.79575" lon="4.69022">
        <ele>336.6</ele>
        <time>2013-10-12T08:48:31Z</time>
      </trkpt>
      <trkpt lat="45.79538" lon="4.69017">
        <ele>339</ele>
        <time>2013-10-12T08:48:43Z</time>
      </trkpt>
      <trkpt lat="45.79498" lon="4.69015">
        <ele>340.92</ele>
        <time>2013-10-12T08:48:56Z</time>
      </trkpt>
      <trkpt lat="45.79491" lon="4.69018">
        <ele>340.92</ele>
        <time>2013-10-12T08:49:04Z</time>
      </trkpt>
      <trkpt lat="45.7949" lon="4.69018">
        <ele>341.89</ele>
        <time>2013-10-12T08:49:13Z</time>
      </trkpt>
      <trkpt lat="45.7949" lon="4.69018">
        <ele>341.41</ele>
        <time>2013-10-12T08:49:29Z</time>
      </trkpt>
      <trkpt lat="45.7949" lon="4.69018">
        <ele>341.89</ele>
        <time>2013-10-12T08:49:47Z</time>
      </trkpt>
      <trkpt lat="45.7949" lon="4.69018">
        <ele>341.41</ele>
        <time>2013-10-12T08:50:01Z</time>
      </trkpt>
      <trkpt lat="45.79483" lon="4.69013">
        <ele>341.89</ele>
        <time>2013-10-12T08:50:09Z</time>
      </trkpt>
      <trkpt lat="45.79482" lon="4.69013">
        <ele>341.89</ele>
        <time>2013-10-12T08:50:10Z</time>
      </trkpt>
      <trkpt lat="45.79481" lon="4.69013">
        <ele>341.89</ele>
        <time>2013-10-12T08:50:11Z</time>
      </trkpt>
      <trkpt lat="45.79479" lon="4.69011">
        <ele>341.89</ele>
        <time>2013-10-12T08:50:12Z</time>
      </trkpt>
      <trkpt lat="45.79478" lon="4.6901">
        <ele>341.41</ele>
        <time>2013-10-12T08:50:13Z</time>
      </trkpt>
      <trkpt lat="45.79476" lon="4.69009">
        <ele>341.41</ele>
        <time>2013-10-12T08:50:14Z</time>
      </trkpt>
      <trkpt lat="45.79475" lon="4.69007">
        <ele>341.89</ele>
        <time>2013-10-12T08:50:15Z</time>
      </trkpt>
      <trkpt lat="45.79475" lon="4.69005">
        <ele>341.89</ele>
        <time>2013-10-12T08:50:16Z</time>
      </trkpt>
      <trkpt lat="45.79474" lon="4.69003">
        <ele>341.89</ele>
        <time>2013-10-12T08:50:17Z</time>
      </trkpt>
      <trkpt lat="45.79474" lon="4.69001">
        <ele>342.37</ele>
        <time>2013-10-12T08:50:18Z</time>
      </trkpt>
      <trkpt lat="45.79473" lon="4.68999">
        <ele>341.89</ele>
        <time>2013-10-12T08:50:19Z</time>
      </trkpt>
      <trkpt lat="45.79473" lon="4.68968">
        <ele>342.37</ele>
        <time>2013-10-12T08:50:28Z</time>
      </trkpt>
      <trkpt lat="45.79475" lon="4.68913">
        <ele>343.33</ele>
        <time>2013-10-12T08:50:41Z</time>
      </trkpt>
      <trkpt lat="45.79481" lon="4.6887">
        <ele>345.25</ele>
        <time>2013-10-12T08:50:52Z</time>
      </trkpt>
      <trkpt lat="45.79481" lon="4.68836">
        <ele>345.73</ele>
        <time>2013-10-12T08:51:01Z</time>
      </trkpt>
      <trkpt lat="45.79484" lon="4.68793">
        <ele>346.21</ele>
        <time>2013-10-12T08:51:10Z</time>
      </trkpt>
      <trkpt lat="45.79495" lon="4.68743">
        <ele>347.17</ele>
        <time>2013-10-12T08:51:21Z</time>
      </trkpt>
      <trkpt lat="45.79522" lon="4.68687">
        <ele>349.58</ele>
        <time>2013-10-12T08:51:37Z</time>
      </trkpt>
      <trkpt lat="45.79542" lon="4.68646">
        <ele>351.02</ele>
        <time>2013-10-12T08:51:49Z</time>
      </trkpt>
      <trkpt lat="45.79544" lon="4.68635">
        <ele>351.5</ele>
        <time>2013-10-12T08:51:52Z</time>
      </trkpt>
      <trkpt lat="45.79543" lon="4.68631">
        <ele>351.5</ele>
        <time>2013-10-12T08:51:53Z</time>
      </trkpt>
      <trkpt lat="45.79541" lon="4.68628">
        <ele>351.98</ele>
        <time>2013-10-12T08:51:54Z</time>
      </trkpt>
      <trkpt lat="45.79539" lon="4.68625">
        <ele>351.98</ele>
        <time>2013-10-12T08:51:55Z</time>
      </trkpt>
      <trkpt lat="45.79536" lon="4.68624">
        <ele>351.5</ele>
        <time>2013-10-12T08:51:56Z</time>
      </trkpt>
      <trkpt lat="45.79496" lon="4.68602">
        <ele>352.94</ele>
        <time>2013-10-12T08:52:09Z</time>
      </trkpt>
      <trkpt lat="45.79444" lon="4.68574">
        <ele>350.54</ele>
        <time>2013-10-12T08:52:22Z</time>
      </trkpt>
      <trkpt lat="45.79434" lon="4.68569">
        <ele>350.06</ele>
        <time>2013-10-12T08:52:24Z</time>
      </trkpt>
      <trkpt lat="45.79428" lon="4.68566">
        <ele>350.54</ele>
        <time>2013-10-12T08:52:25Z</time>
      </trkpt>
      <trkpt lat="45.79389" lon="4.68537">
        <ele>349.58</ele>
        <time>2013-10-12T08:52:34Z</time>
      </trkpt>
      <trkpt lat="45.79353" lon="4.68503">
        <ele>346.69</ele>
        <time>2013-10-12T08:52:43Z</time>
      </trkpt>
      <trkpt lat="45.79343" lon="4.68492">
        <ele>345.25</ele>
        <time>2013-10-12T08:52:45Z</time>
      </trkpt>
      <trkpt lat="45.7934" lon="4.68486">
        <ele>344.29</ele>
        <time>2013-10-12T08:52:46Z</time>
      </trkpt>
      <trkpt lat="45.79336" lon="4.68479">
        <ele>343.33</ele>
        <time>2013-10-12T08:52:47Z</time>
      </trkpt>
      <trkpt lat="45.79331" lon="4.68473">
        <ele>342.85</ele>
        <time>2013-10-12T08:52:48Z</time>
      </trkpt>
      <trkpt lat="45.79327" lon="4.68467">
        <ele>341.41</ele>
        <time>2013-10-12T08:52:49Z</time>
      </trkpt>
      <trkpt lat="45.79322" lon="4.68462">
        <ele>340.44</ele>
        <time>2013-10-12T08:52:50Z</time>
      </trkpt>
      <trkpt lat="45.79304" lon="4.6843">
        <ele>337.08</ele>
        <time>2013-10-12T08:52:56Z</time>
      </trkpt>
      <trkpt lat="45.79297" lon="4.68405">
        <ele>334.2</ele>
        <time>2013-10-12T08:53:00Z</time>
      </trkpt>
      <trkpt lat="45.79295" lon="4.68382">
        <ele>330.35</ele>
        <time>2013-10-12T08:53:05Z</time>
      </trkpt>
      <trkpt lat="45.79293" lon="4.68377">
        <ele>329.39</ele>
        <time>2013-10-12T08:53:06Z</time>
      </trkpt>
      <trkpt lat="45.79289" lon="4.68373">
        <ele>327.95</ele>
        <time>2013-10-12T08:53:07Z</time>
      </trkpt>
      <trkpt lat="45.79285" lon="4.68369">
        <ele>327.47</ele>
        <time>2013-10-12T08:53:08Z</time>
      </trkpt>
      <trkpt lat="45.79279" lon="4.68366">
        <ele>326.99</ele>
        <time>2013-10-12T08:53:09Z</time>
      </trkpt>
      <trkpt lat="45.79272" lon="4.68364">
        <ele>326.5</ele>
        <time>2013-10-12T08:53:10Z</time>
      </trkpt>
      <trkpt lat="45.79266" lon="4.68362">
        <ele>325.54</ele>
        <time>2013-10-12T08:53:11Z</time>
      </trkpt>
      <trkpt lat="45.7926" lon="4.68361">
        <ele>325.54</ele>
        <time>2013-10-12T08:53:12Z</time>
      </trkpt>
      <trkpt lat="45.79255" lon="4.68361">
        <ele>325.54</ele>
        <time>2013-10-12T08:53:13Z</time>
      </trkpt>
      <trkpt lat="45.79239" lon="4.68359">
        <ele>325.06</ele>
        <time>2013-10-12T08:53:19Z</time>
      </trkpt>
      <trkpt lat="45.79239" lon="4.6836">
        <ele>326.5</ele>
        <time>2013-10-12T08:53:25Z</time>
      </trkpt>
      <trkpt lat="45.79239" lon="4.68362">
        <ele>326.02</ele>
        <time>2013-10-12T08:53:26Z</time>
      </trkpt>
      <trkpt lat="45.79238" lon="4.68364">
        <ele>326.02</ele>
        <time>2013-10-12T08:53:27Z</time>
      </trkpt>
      <trkpt lat="45.79236" lon="4.68366">
        <ele>326.5</ele>
        <time>2013-10-12T08:53:28Z</time>
      </trkpt>
      <trkpt lat="45.79234" lon="4.68368">
        <ele>326.02</ele>
        <time>2013-10-12T08:53:29Z</time>
      </trkpt>
      <trkpt lat="45.79228" lon="4.68374">
        <ele>326.02</ele>
        <time>2013-10-12T08:53:32Z</time>
      </trkpt>
      <trkpt lat="45.79226" lon="4.68376">
        <ele>326.02</ele>
        <time>2013-10-12T08:53:34Z</time>
      </trkpt>
      <trkpt lat="45.79215" lon="4.68391">
        <ele>326.5</ele>
        <time>2013-10-12T08:53:42Z</time>
      </trkpt>
      <trkpt lat="45.79209" lon="4.684">
        <ele>326.99</ele>
        <time>2013-10-12T08:53:49Z</time>
      </trkpt>
      <trkpt lat="45.79205" lon="4.68414">
        <ele>328.91</ele>
        <time>2013-10-12T08:54:00Z</time>
      </trkpt>
      <trkpt lat="45.792" lon="4.68426">
        <ele>329.87</ele>
        <time>2013-10-12T08:54:07Z</time>
      </trkpt>
      <trkpt lat="45.79192" lon="4.68445">
        <ele>331.31</ele>
        <time>2013-10-12T08:54:16Z</time>
      </trkpt>
      <trkpt lat="45.79187" lon="4.68465">
        <ele>331.79</ele>
        <time>2013-10-12T08:54:25Z</time>
      </trkpt>
      <trkpt lat="45.79186" lon="4.68468">
        <ele>332.27</ele>
        <time>2013-10-12T08:54:26Z</time>
      </trkpt>
      <trkpt lat="45.79185" lon="4.68474">
        <ele>331.79</ele>
        <time>2013-10-12T08:54:29Z</time>
      </trkpt>
      <trkpt lat="45.79183" lon="4.68482">
        <ele>331.31</ele>
        <time>2013-10-12T08:54:32Z</time>
      </trkpt>
      <trkpt lat="45.79182" lon="4.68486">
        <ele>331.31</ele>
        <time>2013-10-12T08:54:33Z</time>
      </trkpt>
      <trkpt lat="45.7918" lon="4.68495">
        <ele>331.31</ele>
        <time>2013-10-12T08:54:36Z</time>
      </trkpt>
      <trkpt lat="45.7918" lon="4.68498">
        <ele>330.35</ele>
        <time>2013-10-12T08:54:37Z</time>
      </trkpt>
      <trkpt lat="45.79173" lon="4.68526">
        <ele>330.35</ele>
        <time>2013-10-12T08:54:45Z</time>
      </trkpt>
      <trkpt lat="45.79174" lon="4.68535">
        <ele>329.87</ele>
        <time>2013-10-12T08:54:48Z</time>
      </trkpt>
      <trkpt lat="45.79172" lon="4.68538">
        <ele>330.35</ele>
        <time>2013-10-12T08:54:49Z</time>
      </trkpt>
      <trkpt lat="45.79171" lon="4.68543">
        <ele>329.87</ele>
        <time>2013-10-12T08:54:50Z</time>
      </trkpt>
      <trkpt lat="45.79166" lon="4.68573">
        <ele>330.35</ele>
        <time>2013-10-12T08:54:59Z</time>
      </trkpt>
      <trkpt lat="45.79164" lon="4.68587">
        <ele>330.83</ele>
        <time>2013-10-12T08:55:04Z</time>
      </trkpt>
      <trkpt lat="45.79163" lon="4.6859">
        <ele>330.83</ele>
        <time>2013-10-12T08:55:05Z</time>
      </trkpt>
      <trkpt lat="45.79162" lon="4.68593">
        <ele>330.35</ele>
        <time>2013-10-12T08:55:06Z</time>
      </trkpt>
      <trkpt lat="45.79161" lon="4.68595">
        <ele>331.31</ele>
        <time>2013-10-12T08:55:07Z</time>
      </trkpt>
      <trkpt lat="45.79159" lon="4.686">
        <ele>331.31</ele>
        <time>2013-10-12T08:55:09Z</time>
      </trkpt>
      <trkpt lat="45.79154" lon="4.68615">
        <ele>332.27</ele>
        <time>2013-10-12T08:55:14Z</time>
      </trkpt>
      <trkpt lat="45.79153" lon="4.68619">
        <ele>332.75</ele>
        <time>2013-10-12T08:55:15Z</time>
      </trkpt>
      <trkpt lat="45.79152" lon="4.68623">
        <ele>332.75</ele>
        <time>2013-10-12T08:55:16Z</time>
      </trkpt>
      <trkpt lat="45.79148" lon="4.68634">
        <ele>333.71</ele>
        <time>2013-10-12T08:55:21Z</time>
      </trkpt>
      <trkpt lat="45.79144" lon="4.68644">
        <ele>335.16</ele>
        <time>2013-10-12T08:55:25Z</time>
      </trkpt>
      <trkpt lat="45.79142" lon="4.68656">
        <ele>337.08</ele>
        <time>2013-10-12T08:55:34Z</time>
      </trkpt>
      <trkpt lat="45.79141" lon="4.68658">
        <ele>337.56</ele>
        <time>2013-10-12T08:55:35Z</time>
      </trkpt>
      <trkpt lat="45.79141" lon="4.68662">
        <ele>338.52</ele>
        <time>2013-10-12T08:55:37Z</time>
      </trkpt>
      <trkpt lat="45.79136" lon="4.68673">
        <ele>339.48</ele>
        <time>2013-10-12T08:55:44Z</time>
      </trkpt>
      <trkpt lat="45.79135" lon="4.68674">
        <ele>339.48</ele>
        <time>2013-10-12T08:55:45Z</time>
      </trkpt>
      <trkpt lat="45.79134" lon="4.68676">
        <ele>339.96</ele>
        <time>2013-10-12T08:55:46Z</time>
      </trkpt>
      <trkpt lat="45.79133" lon="4.68678">
        <ele>339.96</ele>
        <time>2013-10-12T08:55:47Z</time>
      </trkpt>
      <trkpt lat="45.7913" lon="4.68681">
        <ele>340.92</ele>
        <time>2013-10-12T08:55:49Z</time>
      </trkpt>
      <trkpt lat="45.79128" lon="4.68683">
        <ele>340.92</ele>
        <time>2013-10-12T08:55:50Z</time>
      </trkpt>
      <trkpt lat="45.79125" lon="4.68687">
        <ele>340.92</ele>
        <time>2013-10-12T08:55:51Z</time>
      </trkpt>
      <trkpt lat="45.79118" lon="4.68695">
        <ele>341.89</ele>
        <time>2013-10-12T08:55:55Z</time>
      </trkpt>
      <trkpt lat="45.79116" lon="4.68696">
        <ele>342.37</ele>
        <time>2013-10-12T08:55:56Z</time>
      </trkpt>
      <trkpt lat="45.79115" lon="4.68698">
        <ele>342.85</ele>
        <time>2013-10-12T08:55:57Z</time>
      </trkpt>
      <trkpt lat="45.79114" lon="4.68699">
        <ele>342.37</ele>
        <time>2013-10-12T08:55:58Z</time>
      </trkpt>
      <trkpt lat="45.79112" lon="4.68701">
        <ele>342.37</ele>
        <time>2013-10-12T08:55:59Z</time>
      </trkpt>
      <trkpt lat="45.79111" lon="4.68703">
        <ele>342.85</ele>
        <time>2013-10-12T08:56:00Z</time>
      </trkpt>
      <trkpt lat="45.79109" lon="4.68704">
        <ele>342.37</ele>
        <time>2013-10-12T08:56:01Z</time>
      </trkpt>
      <trkpt lat="45.79108" lon="4.68706">
        <ele>342.85</ele>
        <time>2013-10-12T08:56:02Z</time>
      </trkpt>
      <trkpt lat="45.79107" lon="4.68707">
        <ele>343.33</ele>
        <time>2013-10-12T08:56:03Z</time>
      </trkpt>
      <trkpt lat="45.79106" lon="4.68709">
        <ele>343.33</ele>
        <time>2013-10-12T08:56:04Z</time>
      </trkpt>
      <trkpt lat="45.79104" lon="4.6871">
        <ele>343.33</ele>
        <time>2013-10-12T08:56:05Z</time>
      </trkpt>
      <trkpt lat="45.79103" lon="4.68712">
        <ele>342.85</ele>
        <time>2013-10-12T08:56:06Z</time>
      </trkpt>
      <trkpt lat="45.79101" lon="4.68714">
        <ele>343.33</ele>
        <time>2013-10-12T08:56:07Z</time>
      </trkpt>
      <trkpt lat="45.791" lon="4.68715">
        <ele>343.33</ele>
        <time>2013-10-12T08:56:08Z</time>
      </trkpt>
      <trkpt lat="45.79099" lon="4.68717">
        <ele>343.81</ele>
        <time>2013-10-12T08:56:09Z</time>
      </trkpt>
      <trkpt lat="45.79097" lon="4.68718">
        <ele>343.81</ele>
        <time>2013-10-12T08:56:10Z</time>
      </trkpt>
      <trkpt lat="45.79085" lon="4.6873">
        <ele>345.25</ele>
        <time>2013-10-12T08:56:20Z</time>
      </trkpt>
      <trkpt lat="45.79074" lon="4.6874">
        <ele>345.25</ele>
        <time>2013-10-12T08:56:31Z</time>
      </trkpt>
      <trkpt lat="45.79054" lon="4.68785">
        <ele>343.81</ele>
        <time>2013-10-12T08:56:41Z</time>
      </trkpt>
      <trkpt lat="45.79034" lon="4.68798">
        <ele>343.33</ele>
        <time>2013-10-12T08:56:49Z</time>
      </trkpt>
      <trkpt lat="45.79006" lon="4.68788">
        <ele>344.29</ele>
        <time>2013-10-12T08:56:59Z</time>
      </trkpt>
      <trkpt lat="45.78977" lon="4.68775">
        <ele>343.81</ele>
        <time>2013-10-12T08:57:08Z</time>
      </trkpt>
      <trkpt lat="45.78943" lon="4.68762">
        <ele>339.96</ele>
        <time>2013-10-12T08:57:15Z</time>
      </trkpt>
      <trkpt lat="45.78939" lon="4.68759">
        <ele>339.96</ele>
        <time>2013-10-12T08:57:16Z</time>
      </trkpt>
      <trkpt lat="45.78934" lon="4.68755">
        <ele>339.48</ele>
        <time>2013-10-12T08:57:17Z</time>
      </trkpt>
      <trkpt lat="45.7893" lon="4.68751">
        <ele>338.52</ele>
        <time>2013-10-12T08:57:18Z</time>
      </trkpt>
      <trkpt lat="45.78927" lon="4.68745">
        <ele>338.04</ele>
        <time>2013-10-12T08:57:19Z</time>
      </trkpt>
      <trkpt lat="45.78923" lon="4.68739">
        <ele>338.04</ele>
        <time>2013-10-12T08:57:20Z</time>
      </trkpt>
      <trkpt lat="45.7892" lon="4.68733">
        <ele>338.52</ele>
        <time>2013-10-12T08:57:21Z</time>
      </trkpt>
      <trkpt lat="45.78916" lon="4.68728">
        <ele>338.04</ele>
        <time>2013-10-12T08:57:22Z</time>
      </trkpt>
      <trkpt lat="45.78911" lon="4.68723">
        <ele>337.08</ele>
        <time>2013-10-12T08:57:23Z</time>
      </trkpt>
      <trkpt lat="45.78906" lon="4.68719">
        <ele>337.08</ele>
        <time>2013-10-12T08:57:24Z</time>
      </trkpt>
      <trkpt lat="45.78896" lon="4.68707">
        <ele>335.16</ele>
        <time>2013-10-12T08:57:26Z</time>
      </trkpt>
      <trkpt lat="45.78887" lon="4.68694">
        <ele>334.68</ele>
        <time>2013-10-12T08:57:28Z</time>
      </trkpt>
      <trkpt lat="45.78865" lon="4.68663">
        <ele>331.31</ele>
        <time>2013-10-12T08:57:33Z</time>
      </trkpt>
      <trkpt lat="45.78859" lon="4.68658">
        <ele>329.39</ele>
        <time>2013-10-12T08:57:34Z</time>
      </trkpt>
      <trkpt lat="45.78853" lon="4.68653">
        <ele>328.43</ele>
        <time>2013-10-12T08:57:35Z</time>
      </trkpt>
      <trkpt lat="45.78834" lon="4.68641">
        <ele>325.54</ele>
        <time>2013-10-12T08:57:38Z</time>
      </trkpt>
      <trkpt lat="45.78829" lon="4.68635">
        <ele>324.1</ele>
        <time>2013-10-12T08:57:39Z</time>
      </trkpt>
      <trkpt lat="45.78813" lon="4.68611">
        <ele>320.74</ele>
        <time>2013-10-12T08:57:42Z</time>
      </trkpt>
      <trkpt lat="45.78807" lon="4.68605">
        <ele>319.78</ele>
        <time>2013-10-12T08:57:43Z</time>
      </trkpt>
      <trkpt lat="45.78785" lon="4.68582">
        <ele>316.41</ele>
        <time>2013-10-12T08:57:47Z</time>
      </trkpt>
      <trkpt lat="45.78779" lon="4.68577">
        <ele>315.45</ele>
        <time>2013-10-12T08:57:48Z</time>
      </trkpt>
      <trkpt lat="45.78773" lon="4.68573">
        <ele>314.49</ele>
        <time>2013-10-12T08:57:49Z</time>
      </trkpt>
      <trkpt lat="45.78766" lon="4.68571">
        <ele>314.01</ele>
        <time>2013-10-12T08:57:50Z</time>
      </trkpt>
      <trkpt lat="45.78759" lon="4.68569">
        <ele>314.49</ele>
        <time>2013-10-12T08:57:51Z</time>
      </trkpt>
      <trkpt lat="45.78753" lon="4.68569">
        <ele>314.97</ele>
        <time>2013-10-12T08:57:52Z</time>
      </trkpt>
      <trkpt lat="45.78744" lon="4.68572">
        <ele>315.45</ele>
        <time>2013-10-12T08:57:54Z</time>
      </trkpt>
      <trkpt lat="45.7874" lon="4.68574">
        <ele>315.93</ele>
        <time>2013-10-12T08:57:55Z</time>
      </trkpt>
      <trkpt lat="45.78737" lon="4.68575">
        <ele>315.93</ele>
        <time>2013-10-12T08:57:56Z</time>
      </trkpt>
      <trkpt lat="45.78734" lon="4.68576">
        <ele>316.41</ele>
        <time>2013-10-12T08:57:57Z</time>
      </trkpt>
      <trkpt lat="45.78731" lon="4.68578">
        <ele>317.37</ele>
        <time>2013-10-12T08:57:58Z</time>
      </trkpt>
      <trkpt lat="45.78729" lon="4.6858">
        <ele>317.37</ele>
        <time>2013-10-12T08:57:59Z</time>
      </trkpt>
      <trkpt lat="45.78726" lon="4.68583">
        <ele>317.37</ele>
        <time>2013-10-12T08:58:00Z</time>
      </trkpt>
      <trkpt lat="45.78723" lon="4.68586">
        <ele>317.37</ele>
        <time>2013-10-12T08:58:01Z</time>
      </trkpt>
      <trkpt lat="45.78722" lon="4.68589">
        <ele>317.85</ele>
        <time>2013-10-12T08:58:02Z</time>
      </trkpt>
      <trkpt lat="45.78722" lon="4.68592">
        <ele>318.33</ele>
        <time>2013-10-12T08:58:03Z</time>
      </trkpt>
      <trkpt lat="45.78723" lon="4.68595">
        <ele>318.33</ele>
        <time>2013-10-12T08:58:04Z</time>
      </trkpt>
      <trkpt lat="45.78724" lon="4.68596">
        <ele>318.81</ele>
        <time>2013-10-12T08:58:05Z</time>
      </trkpt>
      <trkpt lat="45.78725" lon="4.68597">
        <ele>318.81</ele>
        <time>2013-10-12T08:58:06Z</time>
      </trkpt>
      <trkpt lat="45.78726" lon="4.68598">
        <ele>319.78</ele>
        <time>2013-10-12T08:58:07Z</time>
      </trkpt>
      <trkpt lat="45.78728" lon="4.68599">
        <ele>319.78</ele>
        <time>2013-10-12T08:58:08Z</time>
      </trkpt>
      <trkpt lat="45.7873" lon="4.68599">
        <ele>319.78</ele>
        <time>2013-10-12T08:58:09Z</time>
      </trkpt>
      <trkpt lat="45.78733" lon="4.68602">
        <ele>320.74</ele>
        <time>2013-10-12T08:58:12Z</time>
      </trkpt>
      <trkpt lat="45.78738" lon="4.68609">
        <ele>322.66</ele>
        <time>2013-10-12T08:58:17Z</time>
      </trkpt>
      <trkpt lat="45.78737" lon="4.68614">
        <ele>323.62</ele>
        <time>2013-10-12T08:58:20Z</time>
      </trkpt>
      <trkpt lat="45.78728" lon="4.68625">
        <ele>325.06</ele>
        <time>2013-10-12T08:58:28Z</time>
      </trkpt>
      <trkpt lat="45.78718" lon="4.68636">
        <ele>327.47</ele>
        <time>2013-10-12T08:58:37Z</time>
      </trkpt>
      <trkpt lat="45.78717" lon="4.68637">
        <ele>327.47</ele>
        <time>2013-10-12T08:58:38Z</time>
      </trkpt>
      <trkpt lat="45.78716" lon="4.68638">
        <ele>327.95</ele>
        <time>2013-10-12T08:58:39Z</time>
      </trkpt>
      <trkpt lat="45.78715" lon="4.6864">
        <ele>328.43</ele>
        <time>2013-10-12T08:58:40Z</time>
      </trkpt>
      <trkpt lat="45.78714" lon="4.68641">
        <ele>328.43</ele>
        <time>2013-10-12T08:58:41Z</time>
      </trkpt>
      <trkpt lat="45.78713" lon="4.68642">
        <ele>328.43</ele>
        <time>2013-10-12T08:58:42Z</time>
      </trkpt>
      <trkpt lat="45.78712" lon="4.68643">
        <ele>328.43</ele>
        <time>2013-10-12T08:58:43Z</time>
      </trkpt>
      <trkpt lat="45.78711" lon="4.68645">
        <ele>329.39</ele>
        <time>2013-10-12T08:58:44Z</time>
      </trkpt>
      <trkpt lat="45.78707" lon="4.6865">
        <ele>329.39</ele>
        <time>2013-10-12T08:58:48Z</time>
      </trkpt>
      <trkpt lat="45.78696" lon="4.68665">
        <ele>331.79</ele>
        <time>2013-10-12T08:58:58Z</time>
      </trkpt>
      <trkpt lat="45.78694" lon="4.68669">
        <ele>332.27</ele>
        <time>2013-10-12T08:59:01Z</time>
      </trkpt>
      <trkpt lat="45.78693" lon="4.68671">
        <ele>332.27</ele>
        <time>2013-10-12T08:59:02Z</time>
      </trkpt>
      <trkpt lat="45.78692" lon="4.68672">
        <ele>332.75</ele>
        <time>2013-10-12T08:59:03Z</time>
      </trkpt>
      <trkpt lat="45.78691" lon="4.68674">
        <ele>332.75</ele>
        <time>2013-10-12T08:59:04Z</time>
      </trkpt>
      <trkpt lat="45.7869" lon="4.68675">
        <ele>333.23</ele>
        <time>2013-10-12T08:59:05Z</time>
      </trkpt>
      <trkpt lat="45.78689" lon="4.68677">
        <ele>333.71</ele>
        <time>2013-10-12T08:59:06Z</time>
      </trkpt>
      <trkpt lat="45.78688" lon="4.68679">
        <ele>334.2</ele>
        <time>2013-10-12T08:59:07Z</time>
      </trkpt>
      <trkpt lat="45.78687" lon="4.68681">
        <ele>334.2</ele>
        <time>2013-10-12T08:59:08Z</time>
      </trkpt>
      <trkpt lat="45.78686" lon="4.68682">
        <ele>333.71</ele>
        <time>2013-10-12T08:59:09Z</time>
      </trkpt>
      <trkpt lat="45.78685" lon="4.68683">
        <ele>334.68</ele>
        <time>2013-10-12T08:59:10Z</time>
      </trkpt>
      <trkpt lat="45.78683" lon="4.68684">
        <ele>334.2</ele>
        <time>2013-10-12T08:59:11Z</time>
      </trkpt>
      <trkpt lat="45.78682" lon="4.68685">
        <ele>334.68</ele>
        <time>2013-10-12T08:59:12Z</time>
      </trkpt>
      <trkpt lat="45.78669" lon="4.68698">
        <ele>336.12</ele>
        <time>2013-10-12T08:59:23Z</time>
      </trkpt>
      <trkpt lat="45.78668" lon="4.68697">
        <ele>335.64</ele>
        <time>2013-10-12T08:59:24Z</time>
      </trkpt>
      <trkpt lat="45.78664" lon="4.68688">
        <ele>336.12</ele>
        <time>2013-10-12T08:59:34Z</time>
      </trkpt>
      <trkpt lat="45.78663" lon="4.68685">
        <ele>337.08</ele>
        <time>2013-10-12T08:59:44Z</time>
      </trkpt>
      <trkpt lat="45.78663" lon="4.68685">
        <ele>336.6</ele>
        <time>2013-10-12T09:00:17Z</time>
      </trkpt>
      <trkpt lat="45.78663" lon="4.68685">
        <ele>336.6</ele>
        <time>2013-10-12T09:00:50Z</time>
      </trkpt>
      <trkpt lat="45.78663" lon="4.68685">
        <ele>337.08</ele>
        <time>2013-10-12T09:01:15Z</time>
      </trkpt>
      <trkpt lat="45.78663" lon="4.68684">
        <ele>336.6</ele>
        <time>2013-10-12T09:01:53Z</time>
      </trkpt>
      <trkpt lat="45.78663" lon="4.68685">
        <ele>336.6</ele>
        <time>2013-10-12T09:02:27Z</time>
      </trkpt>
      <trkpt lat="45.78664" lon="4.68685">
        <ele>333.71</ele>
        <time>2013-10-12T09:02:34Z</time>
      </trkpt>
      <trkpt lat="45.78664" lon="4.68685">
        <ele>337.08</ele>
        <time>2013-10-12T09:02:36Z</time>
      </trkpt>
      <trkpt lat="45.78664" lon="4.68685">
        <ele>337.08</ele>
        <time>2013-10-12T09:02:37Z</time>
      </trkpt>
      <trkpt lat="45.78664" lon="4.68685">
        <ele>331.31</ele>
        <time>2013-10-12T09:02:39Z</time>
      </trkpt>
      <trkpt lat="45.78664" lon="4.68685">
        <ele>337.08</ele>
        <time>2013-10-12T09:02:40Z</time>
      </trkpt>
      <trkpt lat="45.78664" lon="4.68685">
        <ele>340.44</ele>
        <time>2013-10-12T09:02:41Z</time>
      </trkpt>
      <trkpt lat="45.78664" lon="4.68685">
        <ele>337.08</ele>
        <time>2013-10-12T09:02:42Z</time>
      </trkpt>
      <trkpt lat="45.78664" lon="4.68685">
        <ele>336.6</ele>
        <time>2013-10-12T09:03:08Z</time>
      </trkpt>
      <trkpt lat="45.78664" lon="4.68685">
        <ele>333.23</ele>
        <time>2013-10-12T09:03:14Z</time>
      </trkpt>
      <trkpt lat="45.78664" lon="4.68685">
        <ele>337.56</ele>
        <time>2013-10-12T09:03:15Z</time>
      </trkpt>
      <trkpt lat="45.78664" lon="4.68685">
        <ele>336.6</ele>
        <time>2013-10-12T09:03:37Z</time>
      </trkpt>
      <trkpt lat="45.78663" lon="4.68683">
        <ele>337.08</ele>
        <time>2013-10-12T09:03:46Z</time>
      </trkpt>
      <trkpt lat="45.78661" lon="4.68679">
        <ele>336.6</ele>
        <time>2013-10-12T09:04:01Z</time>
      </trkpt>
      <trkpt lat="45.7865" lon="4.68658">
        <ele>338.04</ele>
        <time>2013-10-12T09:04:12Z</time>
      </trkpt>
      <trkpt lat="45.78635" lon="4.68634">
        <ele>339.48</ele>
        <time>2013-10-12T09:04:26Z</time>
      </trkpt>
      <trkpt lat="45.78629" lon="4.68625">
        <ele>339.48</ele>
        <time>2013-10-12T09:04:31Z</time>
      </trkpt>
      <trkpt lat="45.78627" lon="4.68623">
        <ele>339.96</ele>
        <time>2013-10-12T09:04:32Z</time>
      </trkpt>
      <trkpt lat="45.78626" lon="4.68622">
        <ele>339.96</ele>
        <time>2013-10-12T09:04:33Z</time>
      </trkpt>
      <trkpt lat="45.7861" lon="4.6861">
        <ele>340.44</ele>
        <time>2013-10-12T09:04:44Z</time>
      </trkpt>
      <trkpt lat="45.78592" lon="4.68601">
        <ele>342.85</ele>
        <time>2013-10-12T09:04:55Z</time>
      </trkpt>
      <trkpt lat="45.78572" lon="4.68591">
        <ele>343.81</ele>
        <time>2013-10-12T09:05:08Z</time>
      </trkpt>
      <trkpt lat="45.78558" lon="4.68584">
        <ele>346.21</ele>
        <time>2013-10-12T09:05:18Z</time>
      </trkpt>
      <trkpt lat="45.78543" lon="4.68578">
        <ele>348.62</ele>
        <time>2013-10-12T09:05:29Z</time>
      </trkpt>
      <trkpt lat="45.78542" lon="4.68577">
        <ele>348.62</ele>
        <time>2013-10-12T09:05:30Z</time>
      </trkpt>
      <trkpt lat="45.7854" lon="4.68576">
        <ele>349.1</ele>
        <time>2013-10-12T09:05:31Z</time>
      </trkpt>
      <trkpt lat="45.78539" lon="4.68575">
        <ele>349.1</ele>
        <time>2013-10-12T09:05:32Z</time>
      </trkpt>
      <trkpt lat="45.78534" lon="4.6857">
        <ele>349.58</ele>
        <time>2013-10-12T09:05:43Z</time>
      </trkpt>
      <trkpt lat="45.78535" lon="4.68568">
        <ele>349.58</ele>
        <time>2013-10-12T09:05:52Z</time>
      </trkpt>
      <trkpt lat="45.78535" lon="4.68568">
        <ele>350.06</ele>
        <time>2013-10-12T09:06:12Z</time>
      </trkpt>
      <trkpt lat="45.78535" lon="4.68568">
        <ele>345.25</ele>
        <time>2013-10-12T09:06:14Z</time>
      </trkpt>
      <trkpt lat="45.78535" lon="4.68568">
        <ele>351.02</ele>
        <time>2013-10-12T09:06:15Z</time>
      </trkpt>
      <trkpt lat="45.78535" lon="4.68568">
        <ele>349.58</ele>
        <time>2013-10-12T09:06:34Z</time>
      </trkpt>
      <trkpt lat="45.78535" lon="4.68566">
        <ele>350.06</ele>
        <time>2013-10-12T09:06:54Z</time>
      </trkpt>
      <trkpt lat="45.78535" lon="4.68565">
        <ele>349.58</ele>
        <time>2013-10-12T09:06:55Z</time>
      </trkpt>
      <trkpt lat="45.78535" lon="4.6856">
        <ele>349.58</ele>
        <time>2013-10-12T09:07:03Z</time>
      </trkpt>
      <trkpt lat="45.78534" lon="4.68558">
        <ele>348.62</ele>
        <time>2013-10-12T09:07:05Z</time>
      </trkpt>
      <trkpt lat="45.78534" lon="4.68557">
        <ele>349.58</ele>
        <time>2013-10-12T09:07:06Z</time>
      </trkpt>
      <trkpt lat="45.78526" lon="4.68532">
        <ele>347.65</ele>
        <time>2013-10-12T09:07:16Z</time>
      </trkpt>
      <trkpt lat="45.78513" lon="4.68495">
        <ele>345.25</ele>
        <time>2013-10-12T09:07:25Z</time>
      </trkpt>
      <trkpt lat="45.78507" lon="4.68472">
        <ele>344.77</ele>
        <time>2013-10-12T09:07:30Z</time>
      </trkpt>
      <trkpt lat="45.78514" lon="4.68457">
        <ele>345.73</ele>
        <time>2013-10-12T09:07:41Z</time>
      </trkpt>
      <trkpt lat="45.78517" lon="4.68452">
        <ele>346.69</ele>
        <time>2013-10-12T09:07:54Z</time>
      </trkpt>
      <trkpt lat="45.78526" lon="4.68444">
        <ele>347.65</ele>
        <time>2013-10-12T09:08:05Z</time>
      </trkpt>
      <trkpt lat="45.7853" lon="4.68437">
        <ele>349.58</ele>
        <time>2013-10-12T09:08:14Z</time>
      </trkpt>
      <trkpt lat="45.78531" lon="4.68429">
        <ele>351.5</ele>
        <time>2013-10-12T09:08:22Z</time>
      </trkpt>
      <trkpt lat="45.78534" lon="4.6842">
        <ele>352.46</ele>
        <time>2013-10-12T09:08:34Z</time>
      </trkpt>
      <trkpt lat="45.78536" lon="4.68416">
        <ele>348.62</ele>
        <time>2013-10-12T09:08:41Z</time>
      </trkpt>
      <trkpt lat="45.78536" lon="4.68416">
        <ele>352.46</ele>
        <time>2013-10-12T09:08:42Z</time>
      </trkpt>
      <trkpt lat="45.78536" lon="4.68416">
        <ele>349.58</ele>
        <time>2013-10-12T09:08:43Z</time>
      </trkpt>
      <trkpt lat="45.78536" lon="4.68416">
        <ele>352.94</ele>
        <time>2013-10-12T09:08:45Z</time>
      </trkpt>
      <trkpt lat="45.78535" lon="4.68414">
        <ele>352.46</ele>
        <time>2013-10-12T09:08:58Z</time>
      </trkpt>
      <trkpt lat="45.78534" lon="4.68413">
        <ele>352.94</ele>
        <time>2013-10-12T09:09:03Z</time>
      </trkpt>
      <trkpt lat="45.78526" lon="4.68405">
        <ele>353.9</ele>
        <time>2013-10-12T09:09:13Z</time>
      </trkpt>
      <trkpt lat="45.78523" lon="4.68403">
        <ele>354.38</ele>
        <time>2013-10-12T09:09:15Z</time>
      </trkpt>
      <trkpt lat="45.78522" lon="4.68402">
        <ele>354.38</ele>
        <time>2013-10-12T09:09:16Z</time>
      </trkpt>
      <trkpt lat="45.78522" lon="4.68401">
        <ele>354.38</ele>
        <time>2013-10-12T09:09:17Z</time>
      </trkpt>
      <trkpt lat="45.78521" lon="4.684">
        <ele>354.38</ele>
        <time>2013-10-12T09:09:18Z</time>
      </trkpt>
      <trkpt lat="45.7852" lon="4.68399">
        <ele>355.34</ele>
        <time>2013-10-12T09:09:19Z</time>
      </trkpt>
      <trkpt lat="45.78518" lon="4.68398">
        <ele>355.34</ele>
        <time>2013-10-12T09:09:20Z</time>
      </trkpt>
      <trkpt lat="45.78517" lon="4.68397">
        <ele>355.34</ele>
        <time>2013-10-12T09:09:21Z</time>
      </trkpt>
      <trkpt lat="45.78516" lon="4.68396">
        <ele>355.34</ele>
        <time>2013-10-12T09:09:22Z</time>
      </trkpt>
      <trkpt lat="45.78515" lon="4.68395">
        <ele>355.83</ele>
        <time>2013-10-12T09:09:23Z</time>
      </trkpt>
      <trkpt lat="45.78514" lon="4.68393">
        <ele>356.31</ele>
        <time>2013-10-12T09:09:24Z</time>
      </trkpt>
      <trkpt lat="45.78509" lon="4.68388">
        <ele>356.79</ele>
        <time>2013-10-12T09:09:29Z</time>
      </trkpt>
      <trkpt lat="45.78508" lon="4.68387">
        <ele>356.31</ele>
        <time>2013-10-12T09:09:30Z</time>
      </trkpt>
      <trkpt lat="45.78491" lon="4.6837">
        <ele>357.75</ele>
        <time>2013-10-12T09:09:45Z</time>
      </trkpt>
      <trkpt lat="45.78485" lon="4.68364">
        <ele>359.19</ele>
        <time>2013-10-12T09:09:51Z</time>
      </trkpt>
      <trkpt lat="45.78473" lon="4.68355">
        <ele>360.63</ele>
        <time>2013-10-12T09:10:02Z</time>
      </trkpt>
      <trkpt lat="45.78472" lon="4.68353">
        <ele>361.11</ele>
        <time>2013-10-12T09:10:03Z</time>
      </trkpt>
      <trkpt lat="45.78467" lon="4.68328">
        <ele>362.55</ele>
        <time>2013-10-12T09:10:15Z</time>
      </trkpt>
      <trkpt lat="45.78464" lon="4.68319">
        <ele>363.04</ele>
        <time>2013-10-12T09:10:19Z</time>
      </trkpt>
      <trkpt lat="45.78464" lon="4.68318">
        <ele>363.04</ele>
        <time>2013-10-12T09:10:20Z</time>
      </trkpt>
      <trkpt lat="45.78464" lon="4.68316">
        <ele>357.75</ele>
        <time>2013-10-12T09:10:26Z</time>
      </trkpt>
      <trkpt lat="45.78464" lon="4.68316">
        <ele>364</ele>
        <time>2013-10-12T09:10:27Z</time>
      </trkpt>
      <trkpt lat="45.78464" lon="4.68316">
        <ele>356.79</ele>
        <time>2013-10-12T09:10:30Z</time>
      </trkpt>
      <trkpt lat="45.78464" lon="4.68316">
        <ele>364.48</ele>
        <time>2013-10-12T09:10:31Z</time>
      </trkpt>
      <trkpt lat="45.78464" lon="4.68316">
        <ele>363.04</ele>
        <time>2013-10-12T09:10:49Z</time>
      </trkpt>
      <trkpt lat="45.78464" lon="4.68316">
        <ele>358.71</ele>
        <time>2013-10-12T09:10:52Z</time>
      </trkpt>
      <trkpt lat="45.78464" lon="4.68316">
        <ele>364.96</ele>
        <time>2013-10-12T09:10:53Z</time>
      </trkpt>
      <trkpt lat="45.78464" lon="4.68316">
        <ele>362.55</ele>
        <time>2013-10-12T09:11:11Z</time>
      </trkpt>
      <trkpt lat="45.78462" lon="4.68304">
        <ele>364.48</ele>
        <time>2013-10-12T09:11:20Z</time>
      </trkpt>
      <trkpt lat="45.78462" lon="4.68301">
        <ele>364</ele>
        <time>2013-10-12T09:11:21Z</time>
      </trkpt>
      <trkpt lat="45.78461" lon="4.683">
        <ele>364.48</ele>
        <time>2013-10-12T09:11:22Z</time>
      </trkpt>
      <trkpt lat="45.78457" lon="4.68279">
        <ele>364.96</ele>
        <time>2013-10-12T09:11:32Z</time>
      </trkpt>
      <trkpt lat="45.78457" lon="4.68277">
        <ele>365.44</ele>
        <time>2013-10-12T09:11:33Z</time>
      </trkpt>
      <trkpt lat="45.78454" lon="4.68248">
        <ele>366.88</ele>
        <time>2013-10-12T09:11:46Z</time>
      </trkpt>
      <trkpt lat="45.7845" lon="4.68221">
        <ele>369.28</ele>
        <time>2013-10-12T09:11:58Z</time>
      </trkpt>
      <trkpt lat="45.78443" lon="4.68195">
        <ele>371.21</ele>
        <time>2013-10-12T09:12:10Z</time>
      </trkpt>
      <trkpt lat="45.78435" lon="4.68171">
        <ele>371.69</ele>
        <time>2013-10-12T09:12:22Z</time>
      </trkpt>
      <trkpt lat="45.78422" lon="4.68148">
        <ele>374.57</ele>
        <time>2013-10-12T09:12:36Z</time>
      </trkpt>
      <trkpt lat="45.78414" lon="4.68131">
        <ele>376.01</ele>
        <time>2013-10-12T09:12:46Z</time>
      </trkpt>
      <trkpt lat="45.78406" lon="4.68116">
        <ele>376.97</ele>
        <time>2013-10-12T09:12:55Z</time>
      </trkpt>
      <trkpt lat="45.78406" lon="4.68114">
        <ele>377.45</ele>
        <time>2013-10-12T09:12:56Z</time>
      </trkpt>
      <trkpt lat="45.78406" lon="4.68112">
        <ele>377.94</ele>
        <time>2013-10-12T09:12:57Z</time>
      </trkpt>
      <trkpt lat="45.78401" lon="4.68097">
        <ele>379.38</ele>
        <time>2013-10-12T09:13:05Z</time>
      </trkpt>
      <trkpt lat="45.78392" lon="4.68081">
        <ele>375.53</ele>
        <time>2013-10-12T09:13:15Z</time>
      </trkpt>
      <trkpt lat="45.78391" lon="4.68079">
        <ele>381.3</ele>
        <time>2013-10-12T09:13:16Z</time>
      </trkpt>
      <trkpt lat="45.7839" lon="4.68077">
        <ele>375.05</ele>
        <time>2013-10-12T09:13:17Z</time>
      </trkpt>
      <trkpt lat="45.78389" lon="4.68075">
        <ele>381.78</ele>
        <time>2013-10-12T09:13:18Z</time>
      </trkpt>
      <trkpt lat="45.78379" lon="4.68061">
        <ele>383.22</ele>
        <time>2013-10-12T09:13:27Z</time>
      </trkpt>
      <trkpt lat="45.78378" lon="4.68061">
        <ele>383.7</ele>
        <time>2013-10-12T09:13:28Z</time>
      </trkpt>
      <trkpt lat="45.78375" lon="4.68058">
        <ele>384.18</ele>
        <time>2013-10-12T09:13:31Z</time>
      </trkpt>
      <trkpt lat="45.78373" lon="4.68057">
        <ele>384.18</ele>
        <time>2013-10-12T09:13:32Z</time>
      </trkpt>
      <trkpt lat="45.78363" lon="4.6804">
        <ele>386.59</ele>
        <time>2013-10-12T09:13:43Z</time>
      </trkpt>
      <trkpt lat="45.78361" lon="4.6803">
        <ele>387.55</ele>
        <time>2013-10-12T09:13:51Z</time>
      </trkpt>
      <trkpt lat="45.78361" lon="4.6803">
        <ele>383.7</ele>
        <time>2013-10-12T09:13:56Z</time>
      </trkpt>
      <trkpt lat="45.78361" lon="4.6803">
        <ele>389.47</ele>
        <time>2013-10-12T09:13:57Z</time>
      </trkpt>
      <trkpt lat="45.78362" lon="4.68028">
        <ele>387.55</ele>
        <time>2013-10-12T09:14:03Z</time>
      </trkpt>
      <trkpt lat="45.78365" lon="4.68024">
        <ele>388.03</ele>
        <time>2013-10-12T09:14:05Z</time>
      </trkpt>
      <trkpt lat="45.78367" lon="4.68021">
        <ele>387.07</ele>
        <time>2013-10-12T09:14:06Z</time>
      </trkpt>
      <trkpt lat="45.7837" lon="4.68017">
        <ele>385.15</ele>
        <time>2013-10-12T09:14:07Z</time>
      </trkpt>
      <trkpt lat="45.78374" lon="4.68013">
        <ele>385.63</ele>
        <time>2013-10-12T09:14:08Z</time>
      </trkpt>
      <trkpt lat="45.78378" lon="4.68008">
        <ele>384.66</ele>
        <time>2013-10-12T09:14:09Z</time>
      </trkpt>
      <trkpt lat="45.78382" lon="4.68002">
        <ele>384.18</ele>
        <time>2013-10-12T09:14:10Z</time>
      </trkpt>
      <trkpt lat="45.78396" lon="4.6798">
        <ele>382.26</ele>
        <time>2013-10-12T09:14:13Z</time>
      </trkpt>
      <trkpt lat="45.78409" lon="4.67956">
        <ele>379.86</ele>
        <time>2013-10-12T09:14:17Z</time>
      </trkpt>
      <trkpt lat="45.78421" lon="4.67935">
        <ele>376.97</ele>
        <time>2013-10-12T09:14:20Z</time>
      </trkpt>
      <trkpt lat="45.7844" lon="4.67905">
        <ele>373.61</ele>
        <time>2013-10-12T09:14:25Z</time>
      </trkpt>
      <trkpt lat="45.78448" lon="4.67894">
        <ele>372.65</ele>
        <time>2013-10-12T09:14:27Z</time>
      </trkpt>
      <trkpt lat="45.78467" lon="4.67865">
        <ele>369.76</ele>
        <time>2013-10-12T09:14:31Z</time>
      </trkpt>
      <trkpt lat="45.78483" lon="4.67837">
        <ele>366.4</ele>
        <time>2013-10-12T09:14:34Z</time>
      </trkpt>
      <trkpt lat="45.78506" lon="4.67804">
        <ele>363.04</ele>
        <time>2013-10-12T09:14:38Z</time>
      </trkpt>
      <trkpt lat="45.78522" lon="4.67783">
        <ele>359.19</ele>
        <time>2013-10-12T09:14:41Z</time>
      </trkpt>
      <trkpt lat="45.7853" lon="4.67769">
        <ele>355.83</ele>
        <time>2013-10-12T09:14:43Z</time>
      </trkpt>
      <trkpt lat="45.78534" lon="4.67764">
        <ele>354.86</ele>
        <time>2013-10-12T09:14:44Z</time>
      </trkpt>
      <trkpt lat="45.78539" lon="4.67762">
        <ele>353.42</ele>
        <time>2013-10-12T09:14:45Z</time>
      </trkpt>
      <trkpt lat="45.78545" lon="4.67761">
        <ele>353.42</ele>
        <time>2013-10-12T09:14:46Z</time>
      </trkpt>
      <trkpt lat="45.7855" lon="4.67761">
        <ele>352.46</ele>
        <time>2013-10-12T09:14:47Z</time>
      </trkpt>
      <trkpt lat="45.78556" lon="4.67761">
        <ele>350.54</ele>
        <time>2013-10-12T09:14:48Z</time>
      </trkpt>
      <trkpt lat="45.78562" lon="4.67763">
        <ele>350.06</ele>
        <time>2013-10-12T09:14:49Z</time>
      </trkpt>
      <trkpt lat="45.78567" lon="4.67766">
        <ele>348.62</ele>
        <time>2013-10-12T09:14:50Z</time>
      </trkpt>
      <trkpt lat="45.78572" lon="4.67771">
        <ele>347.17</ele>
        <time>2013-10-12T09:14:51Z</time>
      </trkpt>
      <trkpt lat="45.78576" lon="4.67776">
        <ele>346.21</ele>
        <time>2013-10-12T09:14:52Z</time>
      </trkpt>
      <trkpt lat="45.7858" lon="4.67781">
        <ele>345.25</ele>
        <time>2013-10-12T09:14:53Z</time>
      </trkpt>
      <trkpt lat="45.78585" lon="4.67786">
        <ele>344.29</ele>
        <time>2013-10-12T09:14:54Z</time>
      </trkpt>
      <trkpt lat="45.78589" lon="4.6779">
        <ele>343.33</ele>
        <time>2013-10-12T09:14:55Z</time>
      </trkpt>
      <trkpt lat="45.78592" lon="4.67792">
        <ele>341.41</ele>
        <time>2013-10-12T09:14:56Z</time>
      </trkpt>
      <trkpt lat="45.78596" lon="4.67792">
        <ele>341.41</ele>
        <time>2013-10-12T09:14:57Z</time>
      </trkpt>
      <trkpt lat="45.78601" lon="4.67791">
        <ele>341.41</ele>
        <time>2013-10-12T09:14:58Z</time>
      </trkpt>
      <trkpt lat="45.78607" lon="4.67789">
        <ele>341.89</ele>
        <time>2013-10-12T09:14:59Z</time>
      </trkpt>
      <trkpt lat="45.78612" lon="4.67788">
        <ele>342.37</ele>
        <time>2013-10-12T09:15:00Z</time>
      </trkpt>
      <trkpt lat="45.78617" lon="4.67787">
        <ele>342.85</ele>
        <time>2013-10-12T09:15:01Z</time>
      </trkpt>
      <trkpt lat="45.78622" lon="4.67786">
        <ele>343.81</ele>
        <time>2013-10-12T09:15:02Z</time>
      </trkpt>
      <trkpt lat="45.78626" lon="4.67785">
        <ele>344.29</ele>
        <time>2013-10-12T09:15:03Z</time>
      </trkpt>
      <trkpt lat="45.78629" lon="4.67785">
        <ele>344.77</ele>
        <time>2013-10-12T09:15:04Z</time>
      </trkpt>
      <trkpt lat="45.78631" lon="4.67786">
        <ele>345.25</ele>
        <time>2013-10-12T09:15:05Z</time>
      </trkpt>
      <trkpt lat="45.78633" lon="4.67786">
        <ele>344.77</ele>
        <time>2013-10-12T09:15:06Z</time>
      </trkpt>
      <trkpt lat="45.78652" lon="4.67798">
        <ele>345.25</ele>
        <time>2013-10-12T09:15:15Z</time>
      </trkpt>
      <trkpt lat="45.78652" lon="4.67801">
        <ele>345.73</ele>
        <time>2013-10-12T09:15:16Z</time>
      </trkpt>
      <trkpt lat="45.78653" lon="4.67805">
        <ele>345.73</ele>
        <time>2013-10-12T09:15:17Z</time>
      </trkpt>
      <trkpt lat="45.78653" lon="4.67807">
        <ele>346.21</ele>
        <time>2013-10-12T09:15:18Z</time>
      </trkpt>
      <trkpt lat="45.78652" lon="4.6781">
        <ele>346.21</ele>
        <time>2013-10-12T09:15:19Z</time>
      </trkpt>
      <trkpt lat="45.78652" lon="4.67812">
        <ele>346.69</ele>
        <time>2013-10-12T09:15:20Z</time>
      </trkpt>
      <trkpt lat="45.78651" lon="4.67816">
        <ele>346.69</ele>
        <time>2013-10-12T09:15:21Z</time>
      </trkpt>
      <trkpt lat="45.7865" lon="4.67819">
        <ele>346.69</ele>
        <time>2013-10-12T09:15:22Z</time>
      </trkpt>
      <trkpt lat="45.78651" lon="4.67823">
        <ele>346.69</ele>
        <time>2013-10-12T09:15:23Z</time>
      </trkpt>
      <trkpt lat="45.78651" lon="4.67827">
        <ele>347.17</ele>
        <time>2013-10-12T09:15:24Z</time>
      </trkpt>
      <trkpt lat="45.78651" lon="4.6783">
        <ele>347.65</ele>
        <time>2013-10-12T09:15:31Z</time>
      </trkpt>
      <trkpt lat="45.78651" lon="4.6783">
        <ele>351.5</ele>
        <time>2013-10-12T09:15:44Z</time>
      </trkpt>
      <trkpt lat="45.78651" lon="4.6783">
        <ele>347.17</ele>
        <time>2013-10-12T09:15:45Z</time>
      </trkpt>
      <trkpt lat="45.78652" lon="4.67836">
        <ele>347.17</ele>
        <time>2013-10-12T09:15:50Z</time>
      </trkpt>
      <trkpt lat="45.78654" lon="4.67849">
        <ele>348.13</ele>
        <time>2013-10-12T09:15:57Z</time>
      </trkpt>
      <trkpt lat="45.78665" lon="4.67865">
        <ele>350.06</ele>
        <time>2013-10-12T09:16:08Z</time>
      </trkpt>
      <trkpt lat="45.78676" lon="4.67881">
        <ele>352.46</ele>
        <time>2013-10-12T09:16:18Z</time>
      </trkpt>
      <trkpt lat="45.78677" lon="4.67882">
        <ele>352.46</ele>
        <time>2013-10-12T09:16:19Z</time>
      </trkpt>
      <trkpt lat="45.78678" lon="4.67884">
        <ele>351.98</ele>
        <time>2013-10-12T09:16:20Z</time>
      </trkpt>
      <trkpt lat="45.78679" lon="4.67885">
        <ele>352.94</ele>
        <time>2013-10-12T09:16:21Z</time>
      </trkpt>
      <trkpt lat="45.7868" lon="4.67887">
        <ele>352.94</ele>
        <time>2013-10-12T09:16:22Z</time>
      </trkpt>
      <trkpt lat="45.7869" lon="4.67901">
        <ele>355.34</ele>
        <time>2013-10-12T09:16:32Z</time>
      </trkpt>
      <trkpt lat="45.78692" lon="4.67907">
        <ele>355.83</ele>
        <time>2013-10-12T09:16:35Z</time>
      </trkpt>
      <trkpt lat="45.78693" lon="4.67908">
        <ele>355.83</ele>
        <time>2013-10-12T09:16:36Z</time>
      </trkpt>
      <trkpt lat="45.78694" lon="4.67909">
        <ele>355.83</ele>
        <time>2013-10-12T09:16:37Z</time>
      </trkpt>
      <trkpt lat="45.78695" lon="4.6791">
        <ele>356.31</ele>
        <time>2013-10-12T09:16:38Z</time>
      </trkpt>
      <trkpt lat="45.78696" lon="4.67912">
        <ele>355.83</ele>
        <time>2013-10-12T09:16:39Z</time>
      </trkpt>
      <trkpt lat="45.78707" lon="4.67927">
        <ele>359.19</ele>
        <time>2013-10-12T09:16:51Z</time>
      </trkpt>
      <trkpt lat="45.78708" lon="4.67929">
        <ele>358.23</ele>
        <time>2013-10-12T09:16:52Z</time>
      </trkpt>
      <trkpt lat="45.7872" lon="4.67946">
        <ele>361.11</ele>
        <time>2013-10-12T09:17:05Z</time>
      </trkpt>
      <trkpt lat="45.78733" lon="4.67963">
        <ele>363.52</ele>
        <time>2013-10-12T09:17:19Z</time>
      </trkpt>
      <trkpt lat="45.78744" lon="4.67977">
        <ele>365.44</ele>
        <time>2013-10-12T09:17:31Z</time>
      </trkpt>
      <trkpt lat="45.78745" lon="4.67978">
        <ele>365.92</ele>
        <time>2013-10-12T09:17:32Z</time>
      </trkpt>
      <trkpt lat="45.78747" lon="4.6798">
        <ele>366.4</ele>
        <time>2013-10-12T09:17:34Z</time>
      </trkpt>
      <trkpt lat="45.78748" lon="4.67981">
        <ele>366.4</ele>
        <time>2013-10-12T09:17:35Z</time>
      </trkpt>
      <trkpt lat="45.7875" lon="4.67982">
        <ele>366.4</ele>
        <time>2013-10-12T09:17:36Z</time>
      </trkpt>
      <trkpt lat="45.78761" lon="4.67992">
        <ele>367.84</ele>
        <time>2013-10-12T09:17:46Z</time>
      </trkpt>
      <trkpt lat="45.78767" lon="4.68002">
        <ele>368.8</ele>
        <time>2013-10-12T09:17:56Z</time>
      </trkpt>
      <trkpt lat="45.78781" lon="4.68018">
        <ele>370.24</ele>
        <time>2013-10-12T09:18:08Z</time>
      </trkpt>
      <trkpt lat="45.78789" lon="4.68027">
        <ele>371.21</ele>
        <time>2013-10-12T09:18:15Z</time>
      </trkpt>
      <trkpt lat="45.78797" lon="4.68034">
        <ele>372.17</ele>
        <time>2013-10-12T09:18:21Z</time>
      </trkpt>
      <trkpt lat="45.78798" lon="4.68035">
        <ele>371.69</ele>
        <time>2013-10-12T09:18:22Z</time>
      </trkpt>
      <trkpt lat="45.78806" lon="4.68041">
        <ele>373.13</ele>
        <time>2013-10-12T09:18:29Z</time>
      </trkpt>
      <trkpt lat="45.78808" lon="4.68043">
        <ele>373.13</ele>
        <time>2013-10-12T09:18:30Z</time>
      </trkpt>
      <trkpt lat="45.78809" lon="4.68044">
        <ele>373.13</ele>
        <time>2013-10-12T09:18:31Z</time>
      </trkpt>
      <trkpt lat="45.7881" lon="4.68045">
        <ele>373.61</ele>
        <time>2013-10-12T09:18:32Z</time>
      </trkpt>
      <trkpt lat="45.78811" lon="4.68046">
        <ele>373.61</ele>
        <time>2013-10-12T09:18:33Z</time>
      </trkpt>
      <trkpt lat="45.78823" lon="4.68059">
        <ele>375.05</ele>
        <time>2013-10-12T09:18:43Z</time>
      </trkpt>
      <trkpt lat="45.78836" lon="4.68075">
        <ele>376.49</ele>
        <time>2013-10-12T09:18:55Z</time>
      </trkpt>
      <trkpt lat="45.78847" lon="4.6809">
        <ele>376.49</ele>
        <time>2013-10-12T09:19:05Z</time>
      </trkpt>
      <trkpt lat="45.78859" lon="4.68102">
        <ele>377.45</ele>
        <time>2013-10-12T09:19:14Z</time>
      </trkpt>
      <trkpt lat="45.78861" lon="4.68104">
        <ele>373.61</ele>
        <time>2013-10-12T09:19:23Z</time>
      </trkpt>
      <trkpt lat="45.78861" lon="4.68104">
        <ele>381.78</ele>
        <time>2013-10-12T09:19:24Z</time>
      </trkpt>
      <trkpt lat="45.78861" lon="4.68104">
        <ele>377.45</ele>
        <time>2013-10-12T09:19:25Z</time>
      </trkpt>
      <trkpt lat="45.78861" lon="4.68104">
        <ele>380.34</ele>
        <time>2013-10-12T09:19:26Z</time>
      </trkpt>
      <trkpt lat="45.78861" lon="4.68104">
        <ele>376.49</ele>
        <time>2013-10-12T09:19:27Z</time>
      </trkpt>
      <trkpt lat="45.78861" lon="4.68104">
        <ele>379.86</ele>
        <time>2013-10-12T09:19:28Z</time>
      </trkpt>
      <trkpt lat="45.78861" lon="4.68104">
        <ele>376.01</ele>
        <time>2013-10-12T09:19:31Z</time>
      </trkpt>
      <trkpt lat="45.78861" lon="4.68104">
        <ele>381.78</ele>
        <time>2013-10-12T09:19:32Z</time>
      </trkpt>
      <trkpt lat="45.78861" lon="4.68104">
        <ele>377.45</ele>
        <time>2013-10-12T09:19:33Z</time>
      </trkpt>
      <trkpt lat="45.78865" lon="4.68107">
        <ele>377.45</ele>
        <time>2013-10-12T09:19:47Z</time>
      </trkpt>
      <trkpt lat="45.78867" lon="4.68108">
        <ele>379.38</ele>
        <time>2013-10-12T09:19:48Z</time>
      </trkpt>
      <trkpt lat="45.78879" lon="4.6812">
        <ele>377.94</ele>
        <time>2013-10-12T09:19:59Z</time>
      </trkpt>
      <trkpt lat="45.78886" lon="4.68125">
        <ele>378.42</ele>
        <time>2013-10-12T09:20:04Z</time>
      </trkpt>
      <trkpt lat="45.78887" lon="4.68126">
        <ele>378.42</ele>
        <time>2013-10-12T09:20:05Z</time>
      </trkpt>
      <trkpt lat="45.78889" lon="4.68127">
        <ele>379.38</ele>
        <time>2013-10-12T09:20:06Z</time>
      </trkpt>
      <trkpt lat="45.78905" lon="4.68134">
        <ele>379.38</ele>
        <time>2013-10-12T09:20:15Z</time>
      </trkpt>
      <trkpt lat="45.78935" lon="4.68145">
        <ele>378.9</ele>
        <time>2013-10-12T09:20:27Z</time>
      </trkpt>
      <trkpt lat="45.78971" lon="4.68154">
        <ele>377.94</ele>
        <time>2013-10-12T09:20:39Z</time>
      </trkpt>
      <trkpt lat="45.78998" lon="4.68164">
        <ele>375.05</ele>
        <time>2013-10-12T09:20:46Z</time>
      </trkpt>
      <trkpt lat="45.79016" lon="4.6817">
        <ele>372.65</ele>
        <time>2013-10-12T09:20:50Z</time>
      </trkpt>
      <trkpt lat="45.79019" lon="4.68167">
        <ele>372.65</ele>
        <time>2013-10-12T09:20:51Z</time>
      </trkpt>
      <trkpt lat="45.79025" lon="4.6816">
        <ele>372.17</ele>
        <time>2013-10-12T09:20:53Z</time>
      </trkpt>
      <trkpt lat="45.79033" lon="4.68144">
        <ele>370.73</ele>
        <time>2013-10-12T09:20:56Z</time>
      </trkpt>
      <trkpt lat="45.79036" lon="4.68138">
        <ele>370.24</ele>
        <time>2013-10-12T09:20:57Z</time>
      </trkpt>
      <trkpt lat="45.79039" lon="4.68132">
        <ele>370.24</ele>
        <time>2013-10-12T09:20:58Z</time>
      </trkpt>
      <trkpt lat="45.79044" lon="4.68126">
        <ele>370.24</ele>
        <time>2013-10-12T09:20:59Z</time>
      </trkpt>
      <trkpt lat="45.79048" lon="4.6812">
        <ele>368.8</ele>
        <time>2013-10-12T09:21:00Z</time>
      </trkpt>
      <trkpt lat="45.79051" lon="4.68114">
        <ele>369.28</ele>
        <time>2013-10-12T09:21:01Z</time>
      </trkpt>
      <trkpt lat="45.79053" lon="4.68109">
        <ele>368.8</ele>
        <time>2013-10-12T09:21:02Z</time>
      </trkpt>
      <trkpt lat="45.79054" lon="4.68104">
        <ele>368.32</ele>
        <time>2013-10-12T09:21:03Z</time>
      </trkpt>
      <trkpt lat="45.79056" lon="4.681">
        <ele>367.84</ele>
        <time>2013-10-12T09:21:04Z</time>
      </trkpt>
      <trkpt lat="45.79058" lon="4.68099">
        <ele>368.32</ele>
        <time>2013-10-12T09:21:05Z</time>
      </trkpt>
      <trkpt lat="45.79068" lon="4.68103">
        <ele>364.48</ele>
        <time>2013-10-12T09:21:09Z</time>
      </trkpt>
      <trkpt lat="45.79083" lon="4.68115">
        <ele>361.11</ele>
        <time>2013-10-12T09:21:14Z</time>
      </trkpt>
      <trkpt lat="45.791" lon="4.68121">
        <ele>358.71</ele>
        <time>2013-10-12T09:21:18Z</time>
      </trkpt>
      <trkpt lat="45.7911" lon="4.68127">
        <ele>357.75</ele>
        <time>2013-10-12T09:21:20Z</time>
      </trkpt>
      <trkpt lat="45.79142" lon="4.68152">
        <ele>357.75</ele>
        <time>2013-10-12T09:21:28Z</time>
      </trkpt>
      <trkpt lat="45.79186" lon="4.68184">
        <ele>355.83</ele>
        <time>2013-10-12T09:21:37Z</time>
      </trkpt>
      <trkpt lat="45.7919" lon="4.68189">
        <ele>355.34</ele>
        <time>2013-10-12T09:21:38Z</time>
      </trkpt>
      <trkpt lat="45.79196" lon="4.68199">
        <ele>354.38</ele>
        <time>2013-10-12T09:21:40Z</time>
      </trkpt>
      <trkpt lat="45.79201" lon="4.68211">
        <ele>353.9</ele>
        <time>2013-10-12T09:21:42Z</time>
      </trkpt>
      <trkpt lat="45.79206" lon="4.68228">
        <ele>351.02</ele>
        <time>2013-10-12T09:21:45Z</time>
      </trkpt>
      <trkpt lat="45.79209" lon="4.68237">
        <ele>350.06</ele>
        <time>2013-10-12T09:21:47Z</time>
      </trkpt>
      <trkpt lat="45.79209" lon="4.68239">
        <ele>349.58</ele>
        <time>2013-10-12T09:21:48Z</time>
      </trkpt>
      <trkpt lat="45.79208" lon="4.68243">
        <ele>349.1</ele>
        <time>2013-10-12T09:21:49Z</time>
      </trkpt>
      <trkpt lat="45.79206" lon="4.68245">
        <ele>348.62</ele>
        <time>2013-10-12T09:21:50Z</time>
      </trkpt>
      <trkpt lat="45.79204" lon="4.68247">
        <ele>348.13</ele>
        <time>2013-10-12T09:21:51Z</time>
      </trkpt>
      <trkpt lat="45.79201" lon="4.68247">
        <ele>347.65</ele>
        <time>2013-10-12T09:21:52Z</time>
      </trkpt>
      <trkpt lat="45.79198" lon="4.68246">
        <ele>347.17</ele>
        <time>2013-10-12T09:21:53Z</time>
      </trkpt>
      <trkpt lat="45.79196" lon="4.68244">
        <ele>346.21</ele>
        <time>2013-10-12T09:21:54Z</time>
      </trkpt>
      <trkpt lat="45.79193" lon="4.68242">
        <ele>345.73</ele>
        <time>2013-10-12T09:21:55Z</time>
      </trkpt>
      <trkpt lat="45.79191" lon="4.68242">
        <ele>345.25</ele>
        <time>2013-10-12T09:21:56Z</time>
      </trkpt>
      <trkpt lat="45.79189" lon="4.68244">
        <ele>344.29</ele>
        <time>2013-10-12T09:21:58Z</time>
      </trkpt>
      <trkpt lat="45.79195" lon="4.68257">
        <ele>341.41</ele>
        <time>2013-10-12T09:22:03Z</time>
      </trkpt>
      <trkpt lat="45.792" lon="4.68269">
        <ele>338.04</ele>
        <time>2013-10-12T09:22:07Z</time>
      </trkpt>
      <trkpt lat="45.79207" lon="4.68281">
        <ele>334.68</ele>
        <time>2013-10-12T09:22:10Z</time>
      </trkpt>
      <trkpt lat="45.79218" lon="4.68299">
        <ele>330.35</ele>
        <time>2013-10-12T09:22:14Z</time>
      </trkpt>
      <trkpt lat="45.79221" lon="4.68303">
        <ele>330.35</ele>
        <time>2013-10-12T09:22:15Z</time>
      </trkpt>
      <trkpt lat="45.7923" lon="4.68314">
        <ele>328.43</ele>
        <time>2013-10-12T09:22:17Z</time>
      </trkpt>
      <trkpt lat="45.79239" lon="4.6832">
        <ele>326.99</ele>
        <time>2013-10-12T09:22:19Z</time>
      </trkpt>
      <trkpt lat="45.79242" lon="4.68332">
        <ele>325.54</ele>
        <time>2013-10-12T09:22:24Z</time>
      </trkpt>
      <trkpt lat="45.79242" lon="4.68332">
        <ele>326.02</ele>
        <time>2013-10-12T09:22:42Z</time>
      </trkpt>
      <trkpt lat="45.79242" lon="4.68335">
        <ele>325.54</ele>
        <time>2013-10-12T09:23:05Z</time>
      </trkpt>
      <trkpt lat="45.79242" lon="4.68335">
        <ele>326.5</ele>
        <time>2013-10-12T09:23:31Z</time>
      </trkpt>
      <trkpt lat="45.79241" lon="4.68338">
        <ele>326.5</ele>
        <time>2013-10-12T09:23:50Z</time>
      </trkpt>
      <trkpt lat="45.79242" lon="4.68345">
        <ele>326.99</ele>
        <time>2013-10-12T09:23:58Z</time>
      </trkpt>
      <trkpt lat="45.79242" lon="4.68345">
        <ele>326.5</ele>
        <time>2013-10-12T09:24:18Z</time>
      </trkpt>
      <trkpt lat="45.79242" lon="4.68345">
        <ele>326.5</ele>
        <time>2013-10-12T09:24:25Z</time>
      </trkpt>
      <trkpt lat="45.79243" lon="4.68346">
        <ele>326.5</ele>
        <time>2013-10-12T09:24:26Z</time>
      </trkpt>
      <trkpt lat="45.79245" lon="4.68347">
        <ele>326.5</ele>
        <time>2013-10-12T09:24:27Z</time>
      </trkpt>
      <trkpt lat="45.79248" lon="4.68348">
        <ele>326.02</ele>
        <time>2013-10-12T09:24:28Z</time>
      </trkpt>
      <trkpt lat="45.7925" lon="4.68348">
        <ele>326.02</ele>
        <time>2013-10-12T09:24:29Z</time>
      </trkpt>
      <trkpt lat="45.79253" lon="4.68349">
        <ele>326.02</ele>
        <time>2013-10-12T09:24:30Z</time>
      </trkpt>
      <trkpt lat="45.79256" lon="4.68354">
        <ele>326.5</ele>
        <time>2013-10-12T09:24:31Z</time>
      </trkpt>
      <trkpt lat="45.79259" lon="4.68356">
        <ele>326.02</ele>
        <time>2013-10-12T09:24:32Z</time>
      </trkpt>
      <trkpt lat="45.79262" lon="4.68357">
        <ele>326.5</ele>
        <time>2013-10-12T09:24:33Z</time>
      </trkpt>
      <trkpt lat="45.79264" lon="4.68357">
        <ele>326.5</ele>
        <time>2013-10-12T09:24:34Z</time>
      </trkpt>
      <trkpt lat="45.79267" lon="4.68358">
        <ele>326.02</ele>
        <time>2013-10-12T09:24:35Z</time>
      </trkpt>
      <trkpt lat="45.7927" lon="4.68358">
        <ele>326.5</ele>
        <time>2013-10-12T09:24:36Z</time>
      </trkpt>
      <trkpt lat="45.79285" lon="4.68364">
        <ele>328.43</ele>
        <time>2013-10-12T09:24:45Z</time>
      </trkpt>
      <trkpt lat="45.79292" lon="4.68372">
        <ele>330.35</ele>
        <time>2013-10-12T09:24:51Z</time>
      </trkpt>
      <trkpt lat="45.79296" lon="4.68381">
        <ele>331.79</ele>
        <time>2013-10-12T09:24:56Z</time>
      </trkpt>
      <trkpt lat="45.79296" lon="4.68383">
        <ele>332.75</ele>
        <time>2013-10-12T09:24:57Z</time>
      </trkpt>
      <trkpt lat="45.79296" lon="4.68385">
        <ele>332.27</ele>
        <time>2013-10-12T09:24:58Z</time>
      </trkpt>
      <trkpt lat="45.79296" lon="4.68388">
        <ele>332.27</ele>
        <time>2013-10-12T09:24:59Z</time>
      </trkpt>
      <trkpt lat="45.79297" lon="4.6839">
        <ele>332.75</ele>
        <time>2013-10-12T09:25:00Z</time>
      </trkpt>
      <trkpt lat="45.79298" lon="4.68398">
        <ele>334.2</ele>
        <time>2013-10-12T09:25:04Z</time>
      </trkpt>
      <trkpt lat="45.79298" lon="4.684">
        <ele>334.68</ele>
        <time>2013-10-12T09:25:05Z</time>
      </trkpt>
      <trkpt lat="45.79299" lon="4.68402">
        <ele>334.2</ele>
        <time>2013-10-12T09:25:06Z</time>
      </trkpt>
      <trkpt lat="45.79298" lon="4.68404">
        <ele>334.68</ele>
        <time>2013-10-12T09:25:07Z</time>
      </trkpt>
      <trkpt lat="45.79298" lon="4.68407">
        <ele>334.68</ele>
        <time>2013-10-12T09:25:08Z</time>
      </trkpt>
      <trkpt lat="45.79299" lon="4.68409">
        <ele>334.68</ele>
        <time>2013-10-12T09:25:09Z</time>
      </trkpt>
      <trkpt lat="45.793" lon="4.68411">
        <ele>335.16</ele>
        <time>2013-10-12T09:25:10Z</time>
      </trkpt>
      <trkpt lat="45.793" lon="4.68413">
        <ele>335.16</ele>
        <time>2013-10-12T09:25:11Z</time>
      </trkpt>
      <trkpt lat="45.79306" lon="4.68431">
        <ele>337.08</ele>
        <time>2013-10-12T09:25:21Z</time>
      </trkpt>
      <trkpt lat="45.79306" lon="4.68433">
        <ele>337.56</ele>
        <time>2013-10-12T09:25:22Z</time>
      </trkpt>
      <trkpt lat="45.79307" lon="4.68435">
        <ele>337.56</ele>
        <time>2013-10-12T09:25:23Z</time>
      </trkpt>
      <trkpt lat="45.79313" lon="4.68449">
        <ele>339.48</ele>
        <time>2013-10-12T09:25:33Z</time>
      </trkpt>
      <trkpt lat="45.79319" lon="4.68458">
        <ele>341.41</ele>
        <time>2013-10-12T09:25:42Z</time>
      </trkpt>
      <trkpt lat="45.79322" lon="4.68464">
        <ele>341.89</ele>
        <time>2013-10-12T09:25:46Z</time>
      </trkpt>
      <trkpt lat="45.79333" lon="4.68477">
        <ele>343.33</ele>
        <time>2013-10-12T09:25:57Z</time>
      </trkpt>
      <trkpt lat="45.7934" lon="4.6849">
        <ele>344.77</ele>
        <time>2013-10-12T09:26:07Z</time>
      </trkpt>
      <trkpt lat="45.79349" lon="4.68504">
        <ele>346.21</ele>
        <time>2013-10-12T09:26:17Z</time>
      </trkpt>
      <trkpt lat="45.79351" lon="4.68508">
        <ele>346.69</ele>
        <time>2013-10-12T09:26:21Z</time>
      </trkpt>
      <trkpt lat="45.79353" lon="4.68509">
        <ele>347.17</ele>
        <time>2013-10-12T09:26:22Z</time>
      </trkpt>
      <trkpt lat="45.79354" lon="4.6851">
        <ele>347.17</ele>
        <time>2013-10-12T09:26:23Z</time>
      </trkpt>
      <trkpt lat="45.79355" lon="4.68511">
        <ele>347.65</ele>
        <time>2013-10-12T09:26:24Z</time>
      </trkpt>
      <trkpt lat="45.79356" lon="4.68512">
        <ele>347.65</ele>
        <time>2013-10-12T09:26:25Z</time>
      </trkpt>
      <trkpt lat="45.79368" lon="4.68525">
        <ele>349.58</ele>
        <time>2013-10-12T09:26:36Z</time>
      </trkpt>
      <trkpt lat="45.7937" lon="4.68526">
        <ele>349.1</ele>
        <time>2013-10-12T09:26:37Z</time>
      </trkpt>
      <trkpt lat="45.79385" lon="4.68538">
        <ele>349.58</ele>
        <time>2013-10-12T09:26:47Z</time>
      </trkpt>
      <trkpt lat="45.7941" lon="4.68559">
        <ele>350.06</ele>
        <time>2013-10-12T09:26:59Z</time>
      </trkpt>
      <trkpt lat="45.79434" lon="4.68575">
        <ele>350.06</ele>
        <time>2013-10-12T09:27:10Z</time>
      </trkpt>
      <trkpt lat="45.79457" lon="4.68586">
        <ele>351.5</ele>
        <time>2013-10-12T09:27:22Z</time>
      </trkpt>
      <trkpt lat="45.7948" lon="4.68599">
        <ele>352.46</ele>
        <time>2013-10-12T09:27:34Z</time>
      </trkpt>
      <trkpt lat="45.79512" lon="4.68614">
        <ele>353.42</ele>
        <time>2013-10-12T09:27:48Z</time>
      </trkpt>
      <trkpt lat="45.79539" lon="4.68631">
        <ele>352.46</ele>
        <time>2013-10-12T09:27:58Z</time>
      </trkpt>
      <trkpt lat="45.79541" lon="4.68634">
        <ele>352.46</ele>
        <time>2013-10-12T09:28:06Z</time>
      </trkpt>
      <trkpt lat="45.79541" lon="4.68636">
        <ele>352.46</ele>
        <time>2013-10-12T09:28:12Z</time>
      </trkpt>
      <trkpt lat="45.79541" lon="4.68638">
        <ele>351.98</ele>
        <time>2013-10-12T09:28:13Z</time>
      </trkpt>
      <trkpt lat="45.79525" lon="4.68672">
        <ele>351.02</ele>
        <time>2013-10-12T09:28:23Z</time>
      </trkpt>
      <trkpt lat="45.79499" lon="4.68731">
        <ele>349.1</ele>
        <time>2013-10-12T09:28:34Z</time>
      </trkpt>
      <trkpt lat="45.79484" lon="4.68771">
        <ele>347.65</ele>
        <time>2013-10-12T09:28:40Z</time>
      </trkpt>
      <trkpt lat="45.79482" lon="4.68785">
        <ele>347.17</ele>
        <time>2013-10-12T09:28:42Z</time>
      </trkpt>
      <trkpt lat="45.79475" lon="4.68859">
        <ele>346.21</ele>
        <time>2013-10-12T09:28:54Z</time>
      </trkpt>
      <trkpt lat="45.79475" lon="4.68861">
        <ele>346.21</ele>
        <time>2013-10-12T09:29:02Z</time>
      </trkpt>
      <trkpt lat="45.79475" lon="4.68861">
        <ele>345.73</ele>
        <time>2013-10-12T09:29:15Z</time>
      </trkpt>
      <trkpt lat="45.79474" lon="4.68863">
        <ele>346.21</ele>
        <time>2013-10-12T09:29:16Z</time>
      </trkpt>
      <trkpt lat="45.79473" lon="4.68865">
        <ele>346.21</ele>
        <time>2013-10-12T09:29:17Z</time>
      </trkpt>
      <trkpt lat="45.79472" lon="4.68868">
        <ele>346.21</ele>
        <time>2013-10-12T09:29:18Z</time>
      </trkpt>
      <trkpt lat="45.79471" lon="4.68871">
        <ele>345.73</ele>
        <time>2013-10-12T09:29:19Z</time>
      </trkpt>
      <trkpt lat="45.7947" lon="4.68875">
        <ele>346.21</ele>
        <time>2013-10-12T09:29:20Z</time>
      </trkpt>
      <trkpt lat="45.7947" lon="4.68879">
        <ele>345.25</ele>
        <time>2013-10-12T09:29:21Z</time>
      </trkpt>
      <trkpt lat="45.79469" lon="4.68884">
        <ele>345.25</ele>
        <time>2013-10-12T09:29:22Z</time>
      </trkpt>
      <trkpt lat="45.79469" lon="4.6889">
        <ele>344.77</ele>
        <time>2013-10-12T09:29:23Z</time>
      </trkpt>
      <trkpt lat="45.7947" lon="4.68896">
        <ele>345.25</ele>
        <time>2013-10-12T09:29:24Z</time>
      </trkpt>
      <trkpt lat="45.7947" lon="4.68909">
        <ele>344.77</ele>
        <time>2013-10-12T09:29:26Z</time>
      </trkpt>
      <trkpt lat="45.79468" lon="4.68984">
        <ele>343.81</ele>
        <time>2013-10-12T09:29:37Z</time>
      </trkpt>
      <trkpt lat="45.79468" lon="4.69008">
        <ele>341.89</ele>
        <time>2013-10-12T09:29:46Z</time>
      </trkpt>
      <trkpt lat="45.79468" lon="4.69008">
        <ele>351.5</ele>
        <time>2013-10-12T09:30:02Z</time>
      </trkpt>
      <trkpt lat="45.79468" lon="4.69008">
        <ele>342.37</ele>
        <time>2013-10-12T09:30:03Z</time>
      </trkpt>
      <trkpt lat="45.79468" lon="4.69008">
        <ele>338.04</ele>
        <time>2013-10-12T09:30:11Z</time>
      </trkpt>
      <trkpt lat="45.79468" lon="4.69008">
        <ele>341.41</ele>
        <time>2013-10-12T09:30:12Z</time>
      </trkpt>
      <trkpt lat="45.79468" lon="4.69008">
        <ele>345.25</ele>
        <time>2013-10-12T09:30:21Z</time>
      </trkpt>
      <trkpt lat="45.79468" lon="4.69009">
        <ele>341.89</ele>
        <time>2013-10-12T09:30:24Z</time>
      </trkpt>
      <trkpt lat="45.79468" lon="4.69009">
        <ele>345.73</ele>
        <time>2013-10-12T09:30:30Z</time>
      </trkpt>
      <trkpt lat="45.79468" lon="4.69009">
        <ele>342.37</ele>
        <time>2013-10-12T09:30:31Z</time>
      </trkpt>
      <trkpt lat="45.79468" lon="4.69009">
        <ele>342.37</ele>
        <time>2013-10-12T09:30:42Z</time>
      </trkpt>
      <trkpt lat="45.79469" lon="4.69011">
        <ele>342.85</ele>
        <time>2013-10-12T09:30:43Z</time>
      </trkpt>
      <trkpt lat="45.79469" lon="4.69013">
        <ele>342.85</ele>
        <time>2013-10-12T09:30:44Z</time>
      </trkpt>
      <trkpt lat="45.7947" lon="4.69014">
        <ele>341.89</ele>
        <time>2013-10-12T09:30:45Z</time>
      </trkpt>
      <trkpt lat="45.79475" lon="4.69014">
        <ele>342.85</ele>
        <time>2013-10-12T09:30:53Z</time>
      </trkpt>
      <trkpt lat="45.79476" lon="4.69014">
        <ele>342.85</ele>
        <time>2013-10-12T09:30:54Z</time>
      </trkpt>
      <trkpt lat="45.79477" lon="4.69014">
        <ele>342.37</ele>
        <time>2013-10-12T09:31:04Z</time>
      </trkpt>
      <trkpt lat="45.7949" lon="4.69016">
        <ele>342.37</ele>
        <time>2013-10-12T09:31:11Z</time>
      </trkpt>
      <trkpt lat="45.79514" lon="4.69017">
        <ele>341.41</ele>
        <time>2013-10-12T09:31:18Z</time>
      </trkpt>
      <trkpt lat="45.79567" lon="4.69021">
        <ele>338.52</ele>
        <time>2013-10-12T09:31:28Z</time>
      </trkpt>
      <trkpt lat="45.79581" lon="4.69024">
        <ele>337.08</ele>
        <time>2013-10-12T09:31:30Z</time>
      </trkpt>
      <trkpt lat="45.79588" lon="4.69027">
        <ele>337.56</ele>
        <time>2013-10-12T09:31:31Z</time>
      </trkpt>
      <trkpt lat="45.79594" lon="4.69031">
        <ele>336.6</ele>
        <time>2013-10-12T09:31:32Z</time>
      </trkpt>
      <trkpt lat="45.79601" lon="4.69036">
        <ele>335.16</ele>
        <time>2013-10-12T09:31:33Z</time>
      </trkpt>
      <trkpt lat="45.79608" lon="4.69043">
        <ele>335.16</ele>
        <time>2013-10-12T09:31:34Z</time>
      </trkpt>
      <trkpt lat="45.79614" lon="4.6905">
        <ele>335.16</ele>
        <time>2013-10-12T09:31:35Z</time>
      </trkpt>
      <trkpt lat="45.79618" lon="4.69059">
        <ele>335.16</ele>
        <time>2013-10-12T09:31:36Z</time>
      </trkpt>
      <trkpt lat="45.79623" lon="4.69067">
        <ele>335.64</ele>
        <time>2013-10-12T09:31:37Z</time>
      </trkpt>
      <trkpt lat="45.79631" lon="4.69082">
        <ele>335.16</ele>
        <time>2013-10-12T09:31:39Z</time>
      </trkpt>
      <trkpt lat="45.7964" lon="4.69095">
        <ele>335.64</ele>
        <time>2013-10-12T09:31:41Z</time>
      </trkpt>
      <trkpt lat="45.79645" lon="4.69101">
        <ele>335.64</ele>
        <time>2013-10-12T09:31:42Z</time>
      </trkpt>
      <trkpt lat="45.7965" lon="4.69105">
        <ele>335.16</ele>
        <time>2013-10-12T09:31:43Z</time>
      </trkpt>
      <trkpt lat="45.7971" lon="4.69147">
        <ele>336.12</ele>
        <time>2013-10-12T09:31:54Z</time>
      </trkpt>
      <trkpt lat="45.79772" lon="4.69189">
        <ele>335.64</ele>
        <time>2013-10-12T09:32:06Z</time>
      </trkpt>
      <trkpt lat="45.79777" lon="4.69194">
        <ele>335.64</ele>
        <time>2013-10-12T09:32:07Z</time>
      </trkpt>
      <trkpt lat="45.79782" lon="4.69199">
        <ele>335.64</ele>
        <time>2013-10-12T09:32:08Z</time>
      </trkpt>
      <trkpt lat="45.79827" lon="4.69279">
        <ele>333.23</ele>
        <time>2013-10-12T09:32:19Z</time>
      </trkpt>
      <trkpt lat="45.79861" lon="4.69341">
        <ele>331.31</ele>
        <time>2013-10-12T09:32:28Z</time>
      </trkpt>
      <trkpt lat="45.79903" lon="4.69401">
        <ele>328.43</ele>
        <time>2013-10-12T09:32:39Z</time>
      </trkpt>
      <trkpt lat="45.79934" lon="4.69433">
        <ele>326.99</ele>
        <time>2013-10-12T09:32:48Z</time>
      </trkpt>
      <trkpt lat="45.79941" lon="4.69435">
        <ele>326.5</ele>
        <time>2013-10-12T09:32:56Z</time>
      </trkpt>
      <trkpt lat="45.79941" lon="4.69435">
        <ele>322.66</ele>
        <time>2013-10-12T09:32:58Z</time>
      </trkpt>
      <trkpt lat="45.79941" lon="4.69435">
        <ele>327.47</ele>
        <time>2013-10-12T09:32:59Z</time>
      </trkpt>
      <trkpt lat="45.79941" lon="4.69435">
        <ele>321.22</ele>
        <time>2013-10-12T09:33:20Z</time>
      </trkpt>
      <trkpt lat="45.79941" lon="4.69435">
        <ele>336.6</ele>
        <time>2013-10-12T09:33:21Z</time>
      </trkpt>
      <trkpt lat="45.79941" lon="4.69435">
        <ele>326.02</ele>
        <time>2013-10-12T09:33:22Z</time>
      </trkpt>
      <trkpt lat="45.79941" lon="4.69435">
        <ele>326.5</ele>
        <time>2013-10-12T09:33:39Z</time>
      </trkpt>
      <trkpt lat="45.79942" lon="4.69436">
        <ele>326.99</ele>
        <time>2013-10-12T09:33:43Z</time>
      </trkpt>
      <trkpt lat="45.79943" lon="4.69439">
        <ele>326.5</ele>
        <time>2013-10-12T09:33:45Z</time>
      </trkpt>
      <trkpt lat="45.79943" lon="4.69441">
        <ele>326.99</ele>
        <time>2013-10-12T09:33:46Z</time>
      </trkpt>
      <trkpt lat="45.79943" lon="4.69442">
        <ele>326.5</ele>
        <time>2013-10-12T09:33:47Z</time>
      </trkpt>
      <trkpt lat="45.79942" lon="4.69444">
        <ele>326.99</ele>
        <time>2013-10-12T09:33:48Z</time>
      </trkpt>
      <trkpt lat="45.79942" lon="4.69446">
        <ele>326.99</ele>
        <time>2013-10-12T09:33:49Z</time>
      </trkpt>
      <trkpt lat="45.79941" lon="4.69448">
        <ele>326.5</ele>
        <time>2013-10-12T09:33:50Z</time>
      </trkpt>
      <trkpt lat="45.7994" lon="4.6945">
        <ele>326.99</ele>
        <time>2013-10-12T09:33:51Z</time>
      </trkpt>
      <trkpt lat="45.7994" lon="4.69453">
        <ele>326.99</ele>
        <time>2013-10-12T09:33:52Z</time>
      </trkpt>
      <trkpt lat="45.7994" lon="4.69456">
        <ele>326.5</ele>
        <time>2013-10-12T09:33:53Z</time>
      </trkpt>
      <trkpt lat="45.79939" lon="4.6946">
        <ele>326.5</ele>
        <time>2013-10-12T09:33:54Z</time>
      </trkpt>
      <trkpt lat="45.79939" lon="4.69463">
        <ele>326.5</ele>
        <time>2013-10-12T09:33:55Z</time>
      </trkpt>
      <trkpt lat="45.79939" lon="4.69467">
        <ele>326.5</ele>
        <time>2013-10-12T09:33:56Z</time>
      </trkpt>
      <trkpt lat="45.79937" lon="4.69508">
        <ele>325.06</ele>
        <time>2013-10-12T09:34:07Z</time>
      </trkpt>
      <trkpt lat="45.79938" lon="4.69507">
        <ele>325.54</ele>
        <time>2013-10-12T09:34:19Z</time>
      </trkpt>
      <trkpt lat="45.79938" lon="4.69506">
        <ele>325.54</ele>
        <time>2013-10-12T09:34:21Z</time>
      </trkpt>
      <trkpt lat="45.79939" lon="4.69504">
        <ele>325.54</ele>
        <time>2013-10-12T09:34:22Z</time>
      </trkpt>
      <trkpt lat="45.79941" lon="4.69489">
        <ele>325.54</ele>
        <time>2013-10-12T09:34:28Z</time>
      </trkpt>
      <trkpt lat="45.79945" lon="4.69434">
        <ele>326.5</ele>
        <time>2013-10-12T09:34:41Z</time>
      </trkpt>
      <trkpt lat="45.79946" lon="4.6942">
        <ele>326.99</ele>
        <time>2013-10-12T09:34:44Z</time>
      </trkpt>
      <trkpt lat="45.79953" lon="4.69403">
        <ele>326.5</ele>
        <time>2013-10-12T09:34:48Z</time>
      </trkpt>
      <trkpt lat="45.79954" lon="4.69398">
        <ele>326.5</ele>
        <time>2013-10-12T09:34:49Z</time>
      </trkpt>
      <trkpt lat="45.79956" lon="4.69394">
        <ele>326.99</ele>
        <time>2013-10-12T09:34:50Z</time>
      </trkpt>
      <trkpt lat="45.79958" lon="4.6939">
        <ele>326.5</ele>
        <time>2013-10-12T09:34:51Z</time>
      </trkpt>
      <trkpt lat="45.7996" lon="4.69385">
        <ele>326.5</ele>
        <time>2013-10-12T09:34:52Z</time>
      </trkpt>
      <trkpt lat="45.79961" lon="4.6938">
        <ele>326.5</ele>
        <time>2013-10-12T09:34:53Z</time>
      </trkpt>
      <trkpt lat="45.79971" lon="4.69358">
        <ele>326.99</ele>
        <time>2013-10-12T09:34:57Z</time>
      </trkpt>
      <trkpt lat="45.79991" lon="4.6932">
        <ele>326.02</ele>
        <time>2013-10-12T09:35:04Z</time>
      </trkpt>
      <trkpt lat="45.79993" lon="4.69314">
        <ele>326.02</ele>
        <time>2013-10-12T09:35:05Z</time>
      </trkpt>
      <trkpt lat="45.79997" lon="4.69309">
        <ele>325.54</ele>
        <time>2013-10-12T09:35:06Z</time>
      </trkpt>
      <trkpt lat="45.80035" lon="4.69263">
        <ele>324.58</ele>
        <time>2013-10-12T09:35:15Z</time>
      </trkpt>
      <trkpt lat="45.80047" lon="4.69244">
        <ele>323.62</ele>
        <time>2013-10-12T09:35:18Z</time>
      </trkpt>
      <trkpt lat="45.80075" lon="4.69201">
        <ele>323.14</ele>
        <time>2013-10-12T09:35:25Z</time>
      </trkpt>
      <trkpt lat="45.80078" lon="4.69194">
        <ele>323.14</ele>
        <time>2013-10-12T09:35:26Z</time>
      </trkpt>
      <trkpt lat="45.80082" lon="4.69187">
        <ele>322.66</ele>
        <time>2013-10-12T09:35:27Z</time>
      </trkpt>
      <trkpt lat="45.80086" lon="4.69182">
        <ele>322.66</ele>
        <time>2013-10-12T09:35:28Z</time>
      </trkpt>
      <trkpt lat="45.80091" lon="4.69177">
        <ele>321.22</ele>
        <time>2013-10-12T09:35:29Z</time>
      </trkpt>
      <trkpt lat="45.80096" lon="4.69173">
        <ele>321.22</ele>
        <time>2013-10-12T09:35:30Z</time>
      </trkpt>
      <trkpt lat="45.80155" lon="4.6914">
        <ele>318.33</ele>
        <time>2013-10-12T09:35:39Z</time>
      </trkpt>
      <trkpt lat="45.80177" lon="4.69129">
        <ele>316.89</ele>
        <time>2013-10-12T09:35:42Z</time>
      </trkpt>
      <trkpt lat="45.80212" lon="4.69107">
        <ele>314.49</ele>
        <time>2013-10-12T09:35:47Z</time>
      </trkpt>
      <trkpt lat="45.80219" lon="4.691">
        <ele>314.01</ele>
        <time>2013-10-12T09:35:48Z</time>
      </trkpt>
      <trkpt lat="45.80231" lon="4.69084">
        <ele>313.05</ele>
        <time>2013-10-12T09:35:50Z</time>
      </trkpt>
      <trkpt lat="45.80271" lon="4.69031">
        <ele>314.49</ele>
        <time>2013-10-12T09:35:58Z</time>
      </trkpt>
      <trkpt lat="45.80297" lon="4.68999">
        <ele>317.37</ele>
        <time>2013-10-12T09:36:07Z</time>
      </trkpt>
      <trkpt lat="45.80314" lon="4.6898">
        <ele>318.81</ele>
        <time>2013-10-12T09:36:16Z</time>
      </trkpt>
      <trkpt lat="45.80335" lon="4.68956">
        <ele>320.74</ele>
        <time>2013-10-12T09:36:28Z</time>
      </trkpt>
      <trkpt lat="45.80354" lon="4.68934">
        <ele>323.14</ele>
        <time>2013-10-12T09:36:40Z</time>
      </trkpt>
      <trkpt lat="45.80369" lon="4.68915">
        <ele>323.62</ele>
        <time>2013-10-12T09:36:50Z</time>
      </trkpt>
      <trkpt lat="45.80385" lon="4.68895">
        <ele>326.5</ele>
        <time>2013-10-12T09:37:01Z</time>
      </trkpt>
      <trkpt lat="45.80391" lon="4.68886">
        <ele>326.5</ele>
        <time>2013-10-12T09:37:05Z</time>
      </trkpt>
      <trkpt lat="45.80393" lon="4.68885">
        <ele>326.99</ele>
        <time>2013-10-12T09:37:06Z</time>
      </trkpt>
      <trkpt lat="45.80394" lon="4.68883">
        <ele>326.99</ele>
        <time>2013-10-12T09:37:07Z</time>
      </trkpt>
      <trkpt lat="45.80395" lon="4.68881">
        <ele>326.99</ele>
        <time>2013-10-12T09:37:08Z</time>
      </trkpt>
      <trkpt lat="45.80396" lon="4.68879">
        <ele>326.99</ele>
        <time>2013-10-12T09:37:09Z</time>
      </trkpt>
      <trkpt lat="45.80397" lon="4.68877">
        <ele>327.47</ele>
        <time>2013-10-12T09:37:10Z</time>
      </trkpt>
      <trkpt lat="45.80399" lon="4.68875">
        <ele>327.47</ele>
        <time>2013-10-12T09:37:11Z</time>
      </trkpt>
      <trkpt lat="45.804" lon="4.68873">
        <ele>327.95</ele>
        <time>2013-10-12T09:37:12Z</time>
      </trkpt>
      <trkpt lat="45.80402" lon="4.68872">
        <ele>328.43</ele>
        <time>2013-10-12T09:37:13Z</time>
      </trkpt>
      <trkpt lat="45.80404" lon="4.6887">
        <ele>328.43</ele>
        <time>2013-10-12T09:37:14Z</time>
      </trkpt>
      <trkpt lat="45.80405" lon="4.68868">
        <ele>327.95</ele>
        <time>2013-10-12T09:37:15Z</time>
      </trkpt>
      <trkpt lat="45.80419" lon="4.6885">
        <ele>329.87</ele>
        <time>2013-10-12T09:37:24Z</time>
      </trkpt>
      <trkpt lat="45.80421" lon="4.68848">
        <ele>330.35</ele>
        <time>2013-10-12T09:37:25Z</time>
      </trkpt>
      <trkpt lat="45.80422" lon="4.68847">
        <ele>329.87</ele>
        <time>2013-10-12T09:37:26Z</time>
      </trkpt>
      <trkpt lat="45.80424" lon="4.68844">
        <ele>330.35</ele>
        <time>2013-10-12T09:37:27Z</time>
      </trkpt>
      <trkpt lat="45.80426" lon="4.68842">
        <ele>330.35</ele>
        <time>2013-10-12T09:37:28Z</time>
      </trkpt>
      <trkpt lat="45.80427" lon="4.6884">
        <ele>329.87</ele>
        <time>2013-10-12T09:37:29Z</time>
      </trkpt>
      <trkpt lat="45.80429" lon="4.68838">
        <ele>330.35</ele>
        <time>2013-10-12T09:37:30Z</time>
      </trkpt>
      <trkpt lat="45.8043" lon="4.68836">
        <ele>330.83</ele>
        <time>2013-10-12T09:37:31Z</time>
      </trkpt>
      <trkpt lat="45.80432" lon="4.68834">
        <ele>330.83</ele>
        <time>2013-10-12T09:37:32Z</time>
      </trkpt>
      <trkpt lat="45.80433" lon="4.68832">
        <ele>330.83</ele>
        <time>2013-10-12T09:37:33Z</time>
      </trkpt>
      <trkpt lat="45.80449" lon="4.68812">
        <ele>332.75</ele>
        <time>2013-10-12T09:37:43Z</time>
      </trkpt>
      <trkpt lat="45.80469" lon="4.68785">
        <ele>334.68</ele>
        <time>2013-10-12T09:37:56Z</time>
      </trkpt>
      <trkpt lat="45.8049" lon="4.68757">
        <ele>336.12</ele>
        <time>2013-10-12T09:38:10Z</time>
      </trkpt>
      <trkpt lat="45.80514" lon="4.68748">
        <ele>338.04</ele>
        <time>2013-10-12T09:38:22Z</time>
      </trkpt>
      <trkpt lat="45.80537" lon="4.6875">
        <ele>339</ele>
        <time>2013-10-12T09:38:33Z</time>
      </trkpt>
      <trkpt lat="45.80553" lon="4.68728">
        <ele>339.96</ele>
        <time>2013-10-12T09:38:43Z</time>
      </trkpt>
      <trkpt lat="45.8057" lon="4.68695">
        <ele>341.41</ele>
        <time>2013-10-12T09:38:56Z</time>
      </trkpt>
      <trkpt lat="45.80584" lon="4.68665">
        <ele>341.89</ele>
        <time>2013-10-12T09:39:08Z</time>
      </trkpt>
      <trkpt lat="45.80596" lon="4.6864">
        <ele>343.81</ele>
        <time>2013-10-12T09:39:18Z</time>
      </trkpt>
      <trkpt lat="45.80613" lon="4.68606">
        <ele>344.29</ele>
        <time>2013-10-12T09:39:31Z</time>
      </trkpt>
      <trkpt lat="45.80625" lon="4.68581">
        <ele>344.77</ele>
        <time>2013-10-12T09:39:40Z</time>
      </trkpt>
      <trkpt lat="45.80648" lon="4.68542">
        <ele>346.69</ele>
        <time>2013-10-12T09:39:55Z</time>
      </trkpt>
      <trkpt lat="45.80663" lon="4.68509">
        <ele>347.65</ele>
        <time>2013-10-12T09:40:06Z</time>
      </trkpt>
      <trkpt lat="45.80677" lon="4.68475">
        <ele>347.17</ele>
        <time>2013-10-12T09:40:16Z</time>
      </trkpt>
      <trkpt lat="45.80689" lon="4.68449">
        <ele>351.98</ele>
        <time>2013-10-12T09:40:23Z</time>
      </trkpt>
      <trkpt lat="45.8069" lon="4.68445">
        <ele>348.13</ele>
        <time>2013-10-12T09:40:24Z</time>
      </trkpt>
      <trkpt lat="45.80706" lon="4.68404">
        <ele>348.62</ele>
        <time>2013-10-12T09:40:34Z</time>
      </trkpt>
      <trkpt lat="45.80723" lon="4.68362">
        <ele>350.06</ele>
        <time>2013-10-12T09:40:44Z</time>
      </trkpt>
      <trkpt lat="45.80746" lon="4.68311">
        <ele>350.54</ele>
        <time>2013-10-12T09:40:57Z</time>
      </trkpt>
      <trkpt lat="45.80772" lon="4.68262">
        <ele>352.46</ele>
        <time>2013-10-12T09:41:10Z</time>
      </trkpt>
      <trkpt lat="45.80801" lon="4.68205">
        <ele>354.38</ele>
        <time>2013-10-12T09:41:25Z</time>
      </trkpt>
      <trkpt lat="45.80825" lon="4.68156">
        <ele>356.31</ele>
        <time>2013-10-12T09:41:38Z</time>
      </trkpt>
      <trkpt lat="45.8084" lon="4.68105">
        <ele>357.75</ele>
        <time>2013-10-12T09:41:50Z</time>
      </trkpt>
      <trkpt lat="45.80862" lon="4.68059">
        <ele>359.19</ele>
        <time>2013-10-12T09:42:03Z</time>
      </trkpt>
      <trkpt lat="45.80887" lon="4.68028">
        <ele>359.67</ele>
        <time>2013-10-12T09:42:14Z</time>
      </trkpt>
      <trkpt lat="45.80922" lon="4.68003">
        <ele>358.71</ele>
        <time>2013-10-12T09:42:24Z</time>
      </trkpt>
      <trkpt lat="45.80926" lon="4.67999">
        <ele>358.23</ele>
        <time>2013-10-12T09:42:25Z</time>
      </trkpt>
      <trkpt lat="45.80974" lon="4.67956">
        <ele>356.31</ele>
        <time>2013-10-12T09:42:35Z</time>
      </trkpt>
      <trkpt lat="45.8099" lon="4.67943">
        <ele>355.34</ele>
        <time>2013-10-12T09:42:38Z</time>
      </trkpt>
      <trkpt lat="45.81043" lon="4.67877">
        <ele>353.42</ele>
        <time>2013-10-12T09:42:48Z</time>
      </trkpt>
      <trkpt lat="45.81048" lon="4.67869">
        <ele>352.94</ele>
        <time>2013-10-12T09:42:49Z</time>
      </trkpt>
      <trkpt lat="45.81069" lon="4.67839">
        <ele>352.46</ele>
        <time>2013-10-12T09:42:53Z</time>
      </trkpt>
      <trkpt lat="45.81075" lon="4.67833">
        <ele>351.98</ele>
        <time>2013-10-12T09:42:54Z</time>
      </trkpt>
      <trkpt lat="45.81082" lon="4.67828">
        <ele>351.5</ele>
        <time>2013-10-12T09:42:55Z</time>
      </trkpt>
      <trkpt lat="45.81151" lon="4.67796">
        <ele>350.06</ele>
        <time>2013-10-12T09:43:04Z</time>
      </trkpt>
      <trkpt lat="45.81192" lon="4.67786">
        <ele>348.62</ele>
        <time>2013-10-12T09:43:10Z</time>
      </trkpt>
      <trkpt lat="45.81199" lon="4.67786">
        <ele>348.62</ele>
        <time>2013-10-12T09:43:11Z</time>
      </trkpt>
      <trkpt lat="45.81235" lon="4.67783">
        <ele>347.65</ele>
        <time>2013-10-12T09:43:16Z</time>
      </trkpt>
      <trkpt lat="45.8125" lon="4.6778">
        <ele>346.69</ele>
        <time>2013-10-12T09:43:18Z</time>
      </trkpt>
      <trkpt lat="45.81257" lon="4.67777">
        <ele>346.21</ele>
        <time>2013-10-12T09:43:19Z</time>
      </trkpt>
      <trkpt lat="45.81278" lon="4.67765">
        <ele>345.25</ele>
        <time>2013-10-12T09:43:22Z</time>
      </trkpt>
      <trkpt lat="45.813" lon="4.67746">
        <ele>342.85</ele>
        <time>2013-10-12T09:43:26Z</time>
      </trkpt>
      <trkpt lat="45.81305" lon="4.67743">
        <ele>342.85</ele>
        <time>2013-10-12T09:43:27Z</time>
      </trkpt>
      <trkpt lat="45.81309" lon="4.67742">
        <ele>341.89</ele>
        <time>2013-10-12T09:43:28Z</time>
      </trkpt>
      <trkpt lat="45.81319" lon="4.6774">
        <ele>340.92</ele>
        <time>2013-10-12T09:43:34Z</time>
      </trkpt>
      <trkpt lat="45.81323" lon="4.67739">
        <ele>340.92</ele>
        <time>2013-10-12T09:43:53Z</time>
      </trkpt>
      <trkpt lat="45.81324" lon="4.67738">
        <ele>340.92</ele>
        <time>2013-10-12T09:43:54Z</time>
      </trkpt>
      <trkpt lat="45.81325" lon="4.67735">
        <ele>340.92</ele>
        <time>2013-10-12T09:43:55Z</time>
      </trkpt>
      <trkpt lat="45.81326" lon="4.67732">
        <ele>340.92</ele>
        <time>2013-10-12T09:43:56Z</time>
      </trkpt>
      <trkpt lat="45.81327" lon="4.67729">
        <ele>339.96</ele>
        <time>2013-10-12T09:43:57Z</time>
      </trkpt>
      <trkpt lat="45.81341" lon="4.67688">
        <ele>339.48</ele>
        <time>2013-10-12T09:44:05Z</time>
      </trkpt>
      <trkpt lat="45.81364" lon="4.67606">
        <ele>337.08</ele>
        <time>2013-10-12T09:44:16Z</time>
      </trkpt>
      <trkpt lat="45.81379" lon="4.67552">
        <ele>336.6</ele>
        <time>2013-10-12T09:44:22Z</time>
      </trkpt>
      <trkpt lat="45.8139" lon="4.67524">
        <ele>335.16</ele>
        <time>2013-10-12T09:44:25Z</time>
      </trkpt>
      <trkpt lat="45.81426" lon="4.67444">
        <ele>332.75</ele>
        <time>2013-10-12T09:44:34Z</time>
      </trkpt>
      <trkpt lat="45.81432" lon="4.67436">
        <ele>332.27</ele>
        <time>2013-10-12T09:44:35Z</time>
      </trkpt>
      <trkpt lat="45.81439" lon="4.67428">
        <ele>331.79</ele>
        <time>2013-10-12T09:44:36Z</time>
      </trkpt>
      <trkpt lat="45.81453" lon="4.67413">
        <ele>330.83</ele>
        <time>2013-10-12T09:44:38Z</time>
      </trkpt>
      <trkpt lat="45.81521" lon="4.67357">
        <ele>327.95</ele>
        <time>2013-10-12T09:44:47Z</time>
      </trkpt>
      <trkpt lat="45.81546" lon="4.67341">
        <ele>326.5</ele>
        <time>2013-10-12T09:44:50Z</time>
      </trkpt>
      <trkpt lat="45.81591" lon="4.67314">
        <ele>322.66</ele>
        <time>2013-10-12T09:44:55Z</time>
      </trkpt>
      <trkpt lat="45.816" lon="4.67308">
        <ele>322.66</ele>
        <time>2013-10-12T09:44:56Z</time>
      </trkpt>
      <trkpt lat="45.81653" lon="4.67276">
        <ele>319.3</ele>
        <time>2013-10-12T09:45:02Z</time>
      </trkpt>
      <trkpt lat="45.81692" lon="4.67252">
        <ele>318.33</ele>
        <time>2013-10-12T09:45:08Z</time>
      </trkpt>
      <trkpt lat="45.81697" lon="4.67251">
        <ele>318.33</ele>
        <time>2013-10-12T09:45:09Z</time>
      </trkpt>
      <trkpt lat="45.81702" lon="4.67252">
        <ele>318.81</ele>
        <time>2013-10-12T09:45:10Z</time>
      </trkpt>
      <trkpt lat="45.81707" lon="4.67253">
        <ele>318.81</ele>
        <time>2013-10-12T09:45:11Z</time>
      </trkpt>
      <trkpt lat="45.81712" lon="4.67254">
        <ele>317.85</ele>
        <time>2013-10-12T09:45:12Z</time>
      </trkpt>
      <trkpt lat="45.81718" lon="4.67254">
        <ele>318.81</ele>
        <time>2013-10-12T09:45:13Z</time>
      </trkpt>
      <trkpt lat="45.81723" lon="4.67251">
        <ele>318.33</ele>
        <time>2013-10-12T09:45:14Z</time>
      </trkpt>
      <trkpt lat="45.81729" lon="4.67249">
        <ele>318.33</ele>
        <time>2013-10-12T09:45:15Z</time>
      </trkpt>
      <trkpt lat="45.81736" lon="4.67246">
        <ele>317.85</ele>
        <time>2013-10-12T09:45:16Z</time>
      </trkpt>
      <trkpt lat="45.81743" lon="4.67245">
        <ele>317.85</ele>
        <time>2013-10-12T09:45:17Z</time>
      </trkpt>
      <trkpt lat="45.81764" lon="4.6724">
        <ele>316.41</ele>
        <time>2013-10-12T09:45:20Z</time>
      </trkpt>
      <trkpt lat="45.81811" lon="4.67224">
        <ele>314.97</ele>
        <time>2013-10-12T09:45:27Z</time>
      </trkpt>
      <trkpt lat="45.81817" lon="4.67219">
        <ele>314.49</ele>
        <time>2013-10-12T09:45:28Z</time>
      </trkpt>
      <trkpt lat="45.81823" lon="4.67214">
        <ele>314.97</ele>
        <time>2013-10-12T09:45:29Z</time>
      </trkpt>
      <trkpt lat="45.81829" lon="4.67207">
        <ele>314.01</ele>
        <time>2013-10-12T09:45:30Z</time>
      </trkpt>
      <trkpt lat="45.81836" lon="4.67199">
        <ele>313.53</ele>
        <time>2013-10-12T09:45:31Z</time>
      </trkpt>
      <trkpt lat="45.81841" lon="4.6719">
        <ele>313.05</ele>
        <time>2013-10-12T09:45:32Z</time>
      </trkpt>
      <trkpt lat="45.81868" lon="4.67145">
        <ele>310.16</ele>
        <time>2013-10-12T09:45:37Z</time>
      </trkpt>
      <trkpt lat="45.8191" lon="4.67078">
        <ele>307.28</ele>
        <time>2013-10-12T09:45:44Z</time>
      </trkpt>
      <trkpt lat="45.81965" lon="4.66993">
        <ele>303.91</ele>
        <time>2013-10-12T09:45:51Z</time>
      </trkpt>
      <trkpt lat="45.81999" lon="4.66939">
        <ele>301.99</ele>
        <time>2013-10-12T09:45:56Z</time>
      </trkpt>
      <trkpt lat="45.82004" lon="4.6693">
        <ele>301.51</ele>
        <time>2013-10-12T09:45:57Z</time>
      </trkpt>
      <trkpt lat="45.82009" lon="4.66921">
        <ele>301.51</ele>
        <time>2013-10-12T09:45:58Z</time>
      </trkpt>
      <trkpt lat="45.82033" lon="4.66887">
        <ele>300.55</ele>
        <time>2013-10-12T09:46:03Z</time>
      </trkpt>
      <trkpt lat="45.82037" lon="4.6688">
        <ele>300.55</ele>
        <time>2013-10-12T09:46:04Z</time>
      </trkpt>
      <trkpt lat="45.82041" lon="4.66874">
        <ele>301.03</ele>
        <time>2013-10-12T09:46:05Z</time>
      </trkpt>
      <trkpt lat="45.82051" lon="4.66858">
        <ele>300.55</ele>
        <time>2013-10-12T09:46:08Z</time>
      </trkpt>
      <trkpt lat="45.82052" lon="4.66851">
        <ele>300.07</ele>
        <time>2013-10-12T09:46:09Z</time>
      </trkpt>
      <trkpt lat="45.82052" lon="4.66844">
        <ele>300.07</ele>
        <time>2013-10-12T09:46:10Z</time>
      </trkpt>
      <trkpt lat="45.82051" lon="4.66838">
        <ele>300.55</ele>
        <time>2013-10-12T09:46:11Z</time>
      </trkpt>
      <trkpt lat="45.8205" lon="4.66832">
        <ele>300.55</ele>
        <time>2013-10-12T09:46:12Z</time>
      </trkpt>
      <trkpt lat="45.8205" lon="4.66827">
        <ele>300.55</ele>
        <time>2013-10-12T09:46:13Z</time>
      </trkpt>
      <trkpt lat="45.82051" lon="4.66822">
        <ele>301.03</ele>
        <time>2013-10-12T09:46:14Z</time>
      </trkpt>
      <trkpt lat="45.82052" lon="4.66817">
        <ele>301.51</ele>
        <time>2013-10-12T09:46:15Z</time>
      </trkpt>
      <trkpt lat="45.82053" lon="4.66813">
        <ele>301.99</ele>
        <time>2013-10-12T09:46:16Z</time>
      </trkpt>
      <trkpt lat="45.82054" lon="4.66809">
        <ele>301.99</ele>
        <time>2013-10-12T09:46:17Z</time>
      </trkpt>
      <trkpt lat="45.82056" lon="4.66805">
        <ele>301.51</ele>
        <time>2013-10-12T09:46:18Z</time>
      </trkpt>
      <trkpt lat="45.82057" lon="4.66804">
        <ele>301.51</ele>
        <time>2013-10-12T09:46:24Z</time>
      </trkpt>
      <trkpt lat="45.82057" lon="4.66804">
        <ele>301.51</ele>
        <time>2013-10-12T09:46:31Z</time>
      </trkpt>
      <trkpt lat="45.82058" lon="4.66804">
        <ele>301.51</ele>
        <time>2013-10-12T09:46:32Z</time>
      </trkpt>
      <trkpt lat="45.82058" lon="4.66806">
        <ele>301.03</ele>
        <time>2013-10-12T09:46:33Z</time>
      </trkpt>
      <trkpt lat="45.8206" lon="4.66808">
        <ele>301.51</ele>
        <time>2013-10-12T09:46:34Z</time>
      </trkpt>
      <trkpt lat="45.82062" lon="4.66808">
        <ele>301.51</ele>
        <time>2013-10-12T09:46:35Z</time>
      </trkpt>
      <trkpt lat="45.82064" lon="4.66807">
        <ele>301.51</ele>
        <time>2013-10-12T09:46:36Z</time>
      </trkpt>
      <trkpt lat="45.82066" lon="4.66807">
        <ele>301.51</ele>
        <time>2013-10-12T09:46:37Z</time>
      </trkpt>
      <trkpt lat="45.82069" lon="4.66807">
        <ele>301.51</ele>
        <time>2013-10-12T09:46:38Z</time>
      </trkpt>
      <trkpt lat="45.82071" lon="4.66809">
        <ele>301.51</ele>
        <time>2013-10-12T09:46:39Z</time>
      </trkpt>
      <trkpt lat="45.82074" lon="4.66812">
        <ele>301.99</ele>
        <time>2013-10-12T09:46:40Z</time>
      </trkpt>
      <trkpt lat="45.82077" lon="4.66815">
        <ele>301.51</ele>
        <time>2013-10-12T09:46:41Z</time>
      </trkpt>
      <trkpt lat="45.82113" lon="4.66857">
        <ele>300.55</ele>
        <time>2013-10-12T09:46:51Z</time>
      </trkpt>
      <trkpt lat="45.82116" lon="4.66861">
        <ele>300.07</ele>
        <time>2013-10-12T09:46:52Z</time>
      </trkpt>
      <trkpt lat="45.8212" lon="4.66864">
        <ele>301.03</ele>
        <time>2013-10-12T09:46:53Z</time>
      </trkpt>
      <trkpt lat="45.82125" lon="4.66867">
        <ele>300.07</ele>
        <time>2013-10-12T09:46:54Z</time>
      </trkpt>
      <trkpt lat="45.82129" lon="4.6687">
        <ele>300.07</ele>
        <time>2013-10-12T09:46:55Z</time>
      </trkpt>
      <trkpt lat="45.82134" lon="4.66874">
        <ele>300.07</ele>
        <time>2013-10-12T09:46:56Z</time>
      </trkpt>
      <trkpt lat="45.82138" lon="4.66877">
        <ele>300.55</ele>
        <time>2013-10-12T09:46:57Z</time>
      </trkpt>
      <trkpt lat="45.82148" lon="4.66882">
        <ele>299.59</ele>
        <time>2013-10-12T09:46:59Z</time>
      </trkpt>
      <trkpt lat="45.82158" lon="4.66889">
        <ele>299.59</ele>
        <time>2013-10-12T09:47:01Z</time>
      </trkpt>
      <trkpt lat="45.82164" lon="4.6689">
        <ele>299.59</ele>
        <time>2013-10-12T09:47:02Z</time>
      </trkpt>
      <trkpt lat="45.82169" lon="4.66891">
        <ele>299.59</ele>
        <time>2013-10-12T09:47:03Z</time>
      </trkpt>
      <trkpt lat="45.82175" lon="4.66891">
        <ele>299.59</ele>
        <time>2013-10-12T09:47:04Z</time>
      </trkpt>
      <trkpt lat="45.82181" lon="4.66891">
        <ele>300.07</ele>
        <time>2013-10-12T09:47:05Z</time>
      </trkpt>
      <trkpt lat="45.82186" lon="4.6689">
        <ele>299.59</ele>
        <time>2013-10-12T09:47:06Z</time>
      </trkpt>
      <trkpt lat="45.82243" lon="4.66876">
        <ele>300.07</ele>
        <time>2013-10-12T09:47:17Z</time>
      </trkpt>
      <trkpt lat="45.82287" lon="4.66871">
        <ele>301.99</ele>
        <time>2013-10-12T09:47:28Z</time>
      </trkpt>
      <trkpt lat="45.82316" lon="4.66873">
        <ele>301.99</ele>
        <time>2013-10-12T09:47:38Z</time>
      </trkpt>
      <trkpt lat="45.82339" lon="4.66889">
        <ele>303.43</ele>
        <time>2013-10-12T09:47:45Z</time>
      </trkpt>
      <trkpt lat="45.82343" lon="4.66891">
        <ele>303.91</ele>
        <time>2013-10-12T09:47:46Z</time>
      </trkpt>
      <trkpt lat="45.82366" lon="4.66909">
        <ele>304.39</ele>
        <time>2013-10-12T09:47:54Z</time>
      </trkpt>
      <trkpt lat="45.82391" lon="4.66953">
        <ele>305.84</ele>
        <time>2013-10-12T09:48:05Z</time>
      </trkpt>
      <trkpt lat="45.8241" lon="4.6699">
        <ele>307.28</ele>
        <time>2013-10-12T09:48:15Z</time>
      </trkpt>
      <trkpt lat="45.82429" lon="4.67026">
        <ele>308.72</ele>
        <time>2013-10-12T09:48:27Z</time>
      </trkpt>
      <trkpt lat="45.82431" lon="4.67028">
        <ele>308.24</ele>
        <time>2013-10-12T09:48:28Z</time>
      </trkpt>
      <trkpt lat="45.82433" lon="4.6703">
        <ele>308.24</ele>
        <time>2013-10-12T09:48:29Z</time>
      </trkpt>
      <trkpt lat="45.82434" lon="4.67032">
        <ele>308.72</ele>
        <time>2013-10-12T09:48:30Z</time>
      </trkpt>
      <trkpt lat="45.82435" lon="4.67035">
        <ele>308.72</ele>
        <time>2013-10-12T09:48:31Z</time>
      </trkpt>
      <trkpt lat="45.82434" lon="4.67037">
        <ele>308.72</ele>
        <time>2013-10-12T09:48:32Z</time>
      </trkpt>
      <trkpt lat="45.82432" lon="4.67039">
        <ele>309.2</ele>
        <time>2013-10-12T09:48:33Z</time>
      </trkpt>
      <trkpt lat="45.8243" lon="4.67041">
        <ele>309.2</ele>
        <time>2013-10-12T09:48:34Z</time>
      </trkpt>
      <trkpt lat="45.82428" lon="4.67044">
        <ele>308.72</ele>
        <time>2013-10-12T09:48:35Z</time>
      </trkpt>
      <trkpt lat="45.82426" lon="4.67048">
        <ele>309.2</ele>
        <time>2013-10-12T09:48:36Z</time>
      </trkpt>
      <trkpt lat="45.82424" lon="4.67073">
        <ele>308.72</ele>
        <time>2013-10-12T09:48:44Z</time>
      </trkpt>
      <trkpt lat="45.82424" lon="4.67075">
        <ele>308.72</ele>
        <time>2013-10-12T09:48:50Z</time>
      </trkpt>
      <trkpt lat="45.82425" lon="4.67076">
        <ele>309.2</ele>
        <time>2013-10-12T09:48:51Z</time>
      </trkpt>
      <trkpt lat="45.82425" lon="4.67079">
        <ele>308.24</ele>
        <time>2013-10-12T09:48:52Z</time>
      </trkpt>
      <trkpt lat="45.82424" lon="4.67081">
        <ele>308.24</ele>
        <time>2013-10-12T09:48:53Z</time>
      </trkpt>
      <trkpt lat="45.82425" lon="4.67085">
        <ele>308.24</ele>
        <time>2013-10-12T09:48:54Z</time>
      </trkpt>
      <trkpt lat="45.82426" lon="4.67088">
        <ele>308.72</ele>
        <time>2013-10-12T09:48:55Z</time>
      </trkpt>
      <trkpt lat="45.82428" lon="4.67092">
        <ele>308.24</ele>
        <time>2013-10-12T09:48:56Z</time>
      </trkpt>
      <trkpt lat="45.82431" lon="4.67095">
        <ele>308.24</ele>
        <time>2013-10-12T09:48:57Z</time>
      </trkpt>
      <trkpt lat="45.82443" lon="4.67102">
        <ele>308.24</ele>
        <time>2013-10-12T09:49:02Z</time>
      </trkpt>
      <trkpt lat="45.82447" lon="4.671">
        <ele>308.72</ele>
        <time>2013-10-12T09:49:11Z</time>
      </trkpt>
      <trkpt lat="45.82449" lon="4.67102">
        <ele>309.2</ele>
        <time>2013-10-12T09:49:15Z</time>
      </trkpt>
      <trkpt lat="45.8245" lon="4.67102">
        <ele>308.72</ele>
        <time>2013-10-12T09:49:16Z</time>
      </trkpt>
      <trkpt lat="45.82467" lon="4.67106">
        <ele>309.68</ele>
        <time>2013-10-12T09:49:25Z</time>
      </trkpt>
      <trkpt lat="45.82467" lon="4.67106">
        <ele>310.16</ele>
        <time>2013-10-12T09:49:35Z</time>
      </trkpt>
      <trkpt lat="45.82467" lon="4.67106">
        <ele>309.68</ele>
        <time>2013-10-12T09:49:57Z</time>
      </trkpt>
      <trkpt lat="45.82473" lon="4.67108">
        <ele>309.68</ele>
        <time>2013-10-12T09:50:14Z</time>
      </trkpt>
      <trkpt lat="45.82474" lon="4.67109">
        <ele>309.68</ele>
        <time>2013-10-12T09:50:23Z</time>
      </trkpt>
      <trkpt lat="45.82477" lon="4.67109">
        <ele>309.68</ele>
        <time>2013-10-12T09:50:40Z</time>
      </trkpt>
      <trkpt lat="45.82478" lon="4.67109">
        <ele>309.2</ele>
        <time>2013-10-12T09:50:41Z</time>
      </trkpt>
      <trkpt lat="45.8248" lon="4.6711">
        <ele>309.68</ele>
        <time>2013-10-12T09:50:42Z</time>
      </trkpt>
      <trkpt lat="45.82481" lon="4.67111">
        <ele>309.2</ele>
        <time>2013-10-12T09:50:43Z</time>
      </trkpt>
      <trkpt lat="45.82484" lon="4.67112">
        <ele>309.68</ele>
        <time>2013-10-12T09:50:44Z</time>
      </trkpt>
      <trkpt lat="45.82486" lon="4.67113">
        <ele>309.68</ele>
        <time>2013-10-12T09:50:45Z</time>
      </trkpt>
      <trkpt lat="45.82528" lon="4.67132">
        <ele>308.24</ele>
        <time>2013-10-12T09:50:58Z</time>
      </trkpt>
      <trkpt lat="45.82581" lon="4.67156">
        <ele>305.84</ele>
        <time>2013-10-12T09:51:09Z</time>
      </trkpt>
      <trkpt lat="45.82621" lon="4.67179">
        <ele>304.39</ele>
        <time>2013-10-12T09:51:17Z</time>
      </trkpt>
      <trkpt lat="45.82666" lon="4.67236">
        <ele>301.99</ele>
        <time>2013-10-12T09:51:28Z</time>
      </trkpt>
      <trkpt lat="45.8273" lon="4.67319">
        <ele>301.03</ele>
        <time>2013-10-12T09:51:42Z</time>
      </trkpt>
      <trkpt lat="45.82792" lon="4.67398">
        <ele>299.59</ele>
        <time>2013-10-12T09:51:56Z</time>
      </trkpt>
      <trkpt lat="45.8286" lon="4.67486">
        <ele>296.7</ele>
        <time>2013-10-12T09:52:10Z</time>
      </trkpt>
      <trkpt lat="45.82905" lon="4.67539">
        <ele>294.78</ele>
        <time>2013-10-12T09:52:20Z</time>
      </trkpt>
      <trkpt lat="45.82916" lon="4.67548">
        <ele>294.78</ele>
        <time>2013-10-12T09:52:22Z</time>
      </trkpt>
      <trkpt lat="45.82921" lon="4.67552">
        <ele>294.3</ele>
        <time>2013-10-12T09:52:23Z</time>
      </trkpt>
      <trkpt lat="45.82927" lon="4.67555">
        <ele>294.3</ele>
        <time>2013-10-12T09:52:24Z</time>
      </trkpt>
      <trkpt lat="45.82969" lon="4.67569">
        <ele>290.94</ele>
        <time>2013-10-12T09:52:30Z</time>
      </trkpt>
      <trkpt lat="45.82984" lon="4.67574">
        <ele>290.46</ele>
        <time>2013-10-12T09:52:32Z</time>
      </trkpt>
      <trkpt lat="45.82999" lon="4.67579">
        <ele>289.97</ele>
        <time>2013-10-12T09:52:34Z</time>
      </trkpt>
      <trkpt lat="45.83005" lon="4.67586">
        <ele>288.05</ele>
        <time>2013-10-12T09:52:35Z</time>
      </trkpt>
      <trkpt lat="45.83009" lon="4.67594">
        <ele>289.49</ele>
        <time>2013-10-12T09:52:36Z</time>
      </trkpt>
      <trkpt lat="45.83011" lon="4.67604">
        <ele>289.01</ele>
        <time>2013-10-12T09:52:37Z</time>
      </trkpt>
      <trkpt lat="45.83013" lon="4.67614">
        <ele>289.01</ele>
        <time>2013-10-12T09:52:38Z</time>
      </trkpt>
      <trkpt lat="45.83013" lon="4.67623">
        <ele>288.53</ele>
        <time>2013-10-12T09:52:39Z</time>
      </trkpt>
      <trkpt lat="45.83013" lon="4.67632">
        <ele>289.01</ele>
        <time>2013-10-12T09:52:40Z</time>
      </trkpt>
      <trkpt lat="45.83014" lon="4.67694">
        <ele>289.01</ele>
        <time>2013-10-12T09:52:48Z</time>
      </trkpt>
      <trkpt lat="45.83016" lon="4.67708">
        <ele>289.49</ele>
        <time>2013-10-12T09:52:50Z</time>
      </trkpt>
      <trkpt lat="45.83017" lon="4.67713">
        <ele>289.49</ele>
        <time>2013-10-12T09:52:51Z</time>
      </trkpt>
      <trkpt lat="45.83018" lon="4.67718">
        <ele>289.01</ele>
        <time>2013-10-12T09:52:52Z</time>
      </trkpt>
      <trkpt lat="45.83019" lon="4.67724">
        <ele>289.49</ele>
        <time>2013-10-12T09:52:53Z</time>
      </trkpt>
      <trkpt lat="45.83019" lon="4.6773">
        <ele>289.01</ele>
        <time>2013-10-12T09:52:54Z</time>
      </trkpt>
      <trkpt lat="45.8302" lon="4.67736">
        <ele>289.49</ele>
        <time>2013-10-12T09:52:55Z</time>
      </trkpt>
      <trkpt lat="45.83021" lon="4.67741">
        <ele>289.49</ele>
        <time>2013-10-12T09:52:56Z</time>
      </trkpt>
      <trkpt lat="45.83023" lon="4.67759">
        <ele>289.97</ele>
        <time>2013-10-12T09:52:59Z</time>
      </trkpt>
      <trkpt lat="45.83024" lon="4.67765">
        <ele>290.46</ele>
        <time>2013-10-12T09:53:00Z</time>
      </trkpt>
      <trkpt lat="45.83025" lon="4.6777">
        <ele>290.94</ele>
        <time>2013-10-12T09:53:01Z</time>
      </trkpt>
      <trkpt lat="45.83026" lon="4.67775">
        <ele>290.94</ele>
        <time>2013-10-12T09:53:02Z</time>
      </trkpt>
      <trkpt lat="45.83027" lon="4.6778">
        <ele>291.42</ele>
        <time>2013-10-12T09:53:03Z</time>
      </trkpt>
      <trkpt lat="45.83041" lon="4.67839">
        <ele>293.82</ele>
        <time>2013-10-12T09:53:16Z</time>
      </trkpt>
      <trkpt lat="45.83052" lon="4.6788">
        <ele>294.78</ele>
        <time>2013-10-12T09:53:26Z</time>
      </trkpt>
      <trkpt lat="45.83065" lon="4.67937">
        <ele>296.7</ele>
        <time>2013-10-12T09:53:39Z</time>
      </trkpt>
      <trkpt lat="45.83074" lon="4.67988">
        <ele>298.63</ele>
        <time>2013-10-12T09:53:51Z</time>
      </trkpt>
      <trkpt lat="45.83081" lon="4.68044">
        <ele>300.07</ele>
        <time>2013-10-12T09:54:04Z</time>
      </trkpt>
      <trkpt lat="45.83085" lon="4.68105">
        <ele>300.55</ele>
        <time>2013-10-12T09:54:17Z</time>
      </trkpt>
      <trkpt lat="45.83092" lon="4.68159">
        <ele>301.99</ele>
        <time>2013-10-12T09:54:29Z</time>
      </trkpt>
      <trkpt lat="45.83106" lon="4.68229">
        <ele>301.99</ele>
        <time>2013-10-12T09:54:42Z</time>
      </trkpt>
      <trkpt lat="45.83109" lon="4.68239">
        <ele>301.51</ele>
        <time>2013-10-12T09:54:44Z</time>
      </trkpt>
      <trkpt lat="45.83122" lon="4.68279">
        <ele>300.55</ele>
        <time>2013-10-12T09:54:53Z</time>
      </trkpt>
      <trkpt lat="45.83124" lon="4.68281">
        <ele>301.03</ele>
        <time>2013-10-12T09:54:54Z</time>
      </trkpt>
      <trkpt lat="45.83126" lon="4.68283">
        <ele>300.55</ele>
        <time>2013-10-12T09:55:00Z</time>
      </trkpt>
      <trkpt lat="45.83132" lon="4.6829">
        <ele>299.11</ele>
        <time>2013-10-12T09:55:10Z</time>
      </trkpt>
      <trkpt lat="45.83153" lon="4.68335">
        <ele>297.67</ele>
        <time>2013-10-12T09:55:21Z</time>
      </trkpt>
      <trkpt lat="45.83166" lon="4.68358">
        <ele>296.7</ele>
        <time>2013-10-12T09:55:25Z</time>
      </trkpt>
      <trkpt lat="45.83193" lon="4.68414">
        <ele>294.3</ele>
        <time>2013-10-12T09:55:34Z</time>
      </trkpt>
      <trkpt lat="45.83213" lon="4.68451">
        <ele>291.9</ele>
        <time>2013-10-12T09:55:39Z</time>
      </trkpt>
      <trkpt lat="45.83218" lon="4.68457">
        <ele>291.9</ele>
        <time>2013-10-12T09:55:40Z</time>
      </trkpt>
      <trkpt lat="45.8323" lon="4.68469">
        <ele>290.46</ele>
        <time>2013-10-12T09:55:42Z</time>
      </trkpt>
      <trkpt lat="45.8326" lon="4.68499">
        <ele>287.57</ele>
        <time>2013-10-12T09:55:47Z</time>
      </trkpt>
      <trkpt lat="45.83266" lon="4.68504">
        <ele>287.09</ele>
        <time>2013-10-12T09:55:48Z</time>
      </trkpt>
      <trkpt lat="45.8329" lon="4.68527">
        <ele>284.21</ele>
        <time>2013-10-12T09:55:52Z</time>
      </trkpt>
      <trkpt lat="45.83301" lon="4.6854">
        <ele>282.77</ele>
        <time>2013-10-12T09:55:54Z</time>
      </trkpt>
      <trkpt lat="45.83306" lon="4.68547">
        <ele>282.28</ele>
        <time>2013-10-12T09:55:55Z</time>
      </trkpt>
      <trkpt lat="45.8331" lon="4.68555">
        <ele>282.28</ele>
        <time>2013-10-12T09:55:56Z</time>
      </trkpt>
      <trkpt lat="45.83314" lon="4.68565">
        <ele>281.8</ele>
        <time>2013-10-12T09:55:57Z</time>
      </trkpt>
      <trkpt lat="45.83317" lon="4.68574">
        <ele>281.32</ele>
        <time>2013-10-12T09:55:58Z</time>
      </trkpt>
      <trkpt lat="45.83319" lon="4.68584">
        <ele>280.84</ele>
        <time>2013-10-12T09:55:59Z</time>
      </trkpt>
      <trkpt lat="45.83321" lon="4.68594">
        <ele>280.84</ele>
        <time>2013-10-12T09:56:00Z</time>
      </trkpt>
      <trkpt lat="45.8333" lon="4.68643">
        <ele>280.84</ele>
        <time>2013-10-12T09:56:05Z</time>
      </trkpt>
      <trkpt lat="45.83335" lon="4.68659">
        <ele>280.84</ele>
        <time>2013-10-12T09:56:07Z</time>
      </trkpt>
      <trkpt lat="45.83367" lon="4.68734">
        <ele>279.88</ele>
        <time>2013-10-12T09:56:18Z</time>
      </trkpt>
      <trkpt lat="45.83399" lon="4.68819">
        <ele>278.92</ele>
        <time>2013-10-12T09:56:30Z</time>
      </trkpt>
      <trkpt lat="45.834" lon="4.68826">
        <ele>278.44</ele>
        <time>2013-10-12T09:56:31Z</time>
      </trkpt>
      <trkpt lat="45.83408" lon="4.68855">
        <ele>277.96</ele>
        <time>2013-10-12T09:56:35Z</time>
      </trkpt>
      <trkpt lat="45.83417" lon="4.68896">
        <ele>279.4</ele>
        <time>2013-10-12T09:56:42Z</time>
      </trkpt>
      <trkpt lat="45.83422" lon="4.68925">
        <ele>282.28</ele>
        <time>2013-10-12T09:56:50Z</time>
      </trkpt>
      <trkpt lat="45.83421" lon="4.68933">
        <ele>282.77</ele>
        <time>2013-10-12T09:56:54Z</time>
      </trkpt>
      <trkpt lat="45.83421" lon="4.68935">
        <ele>282.77</ele>
        <time>2013-10-12T09:56:55Z</time>
      </trkpt>
      <trkpt lat="45.83415" lon="4.6895">
        <ele>284.69</ele>
        <time>2013-10-12T09:57:05Z</time>
      </trkpt>
      <trkpt lat="45.83413" lon="4.68955">
        <ele>285.17</ele>
        <time>2013-10-12T09:57:08Z</time>
      </trkpt>
      <trkpt lat="45.83413" lon="4.68957">
        <ele>285.17</ele>
        <time>2013-10-12T09:57:09Z</time>
      </trkpt>
      <trkpt lat="45.83411" lon="4.68962">
        <ele>285.65</ele>
        <time>2013-10-12T09:57:12Z</time>
      </trkpt>
      <trkpt lat="45.83411" lon="4.68964">
        <ele>286.13</ele>
        <time>2013-10-12T09:57:13Z</time>
      </trkpt>
      <trkpt lat="45.83411" lon="4.68966">
        <ele>286.13</ele>
        <time>2013-10-12T09:57:14Z</time>
      </trkpt>
      <trkpt lat="45.83411" lon="4.68967">
        <ele>286.13</ele>
        <time>2013-10-12T09:57:15Z</time>
      </trkpt>
      <trkpt lat="45.8341" lon="4.68969">
        <ele>287.09</ele>
        <time>2013-10-12T09:57:16Z</time>
      </trkpt>
      <trkpt lat="45.83409" lon="4.68971">
        <ele>286.61</ele>
        <time>2013-10-12T09:57:17Z</time>
      </trkpt>
      <trkpt lat="45.83409" lon="4.68973">
        <ele>287.09</ele>
        <time>2013-10-12T09:57:18Z</time>
      </trkpt>
      <trkpt lat="45.83408" lon="4.68975">
        <ele>287.09</ele>
        <time>2013-10-12T09:57:19Z</time>
      </trkpt>
      <trkpt lat="45.83402" lon="4.68995">
        <ele>289.49</ele>
        <time>2013-10-12T09:57:30Z</time>
      </trkpt>
      <trkpt lat="45.83397" lon="4.69015">
        <ele>291.9</ele>
        <time>2013-10-12T09:57:41Z</time>
      </trkpt>
      <trkpt lat="45.83396" lon="4.69017">
        <ele>291.9</ele>
        <time>2013-10-12T09:57:42Z</time>
      </trkpt>
      <trkpt lat="45.83396" lon="4.69019">
        <ele>292.38</ele>
        <time>2013-10-12T09:57:43Z</time>
      </trkpt>
      <trkpt lat="45.83395" lon="4.69021">
        <ele>291.9</ele>
        <time>2013-10-12T09:57:44Z</time>
      </trkpt>
      <trkpt lat="45.83394" lon="4.69022">
        <ele>292.86</ele>
        <time>2013-10-12T09:57:45Z</time>
      </trkpt>
      <trkpt lat="45.83393" lon="4.69024">
        <ele>292.38</ele>
        <time>2013-10-12T09:57:46Z</time>
      </trkpt>
      <trkpt lat="45.83393" lon="4.69025">
        <ele>292.86</ele>
        <time>2013-10-12T09:57:47Z</time>
      </trkpt>
      <trkpt lat="45.83384" lon="4.6904">
        <ele>294.78</ele>
        <time>2013-10-12T09:57:58Z</time>
      </trkpt>
      <trkpt lat="45.8338" lon="4.69048">
        <ele>295.26</ele>
        <time>2013-10-12T09:58:04Z</time>
      </trkpt>
      <trkpt lat="45.8338" lon="4.69049">
        <ele>295.74</ele>
        <time>2013-10-12T09:58:05Z</time>
      </trkpt>
      <trkpt lat="45.83375" lon="4.69059">
        <ele>296.7</ele>
        <time>2013-10-12T09:58:12Z</time>
      </trkpt>
      <trkpt lat="45.83375" lon="4.69061">
        <ele>296.7</ele>
        <time>2013-10-12T09:58:13Z</time>
      </trkpt>
      <trkpt lat="45.83375" lon="4.69065">
        <ele>297.18</ele>
        <time>2013-10-12T09:58:15Z</time>
      </trkpt>
      <trkpt lat="45.83372" lon="4.69081">
        <ele>297.18</ele>
        <time>2013-10-12T09:58:22Z</time>
      </trkpt>
      <trkpt lat="45.83366" lon="4.69107">
        <ele>298.63</ele>
        <time>2013-10-12T09:58:34Z</time>
      </trkpt>
      <trkpt lat="45.83362" lon="4.69129">
        <ele>299.59</ele>
        <time>2013-10-12T09:58:46Z</time>
      </trkpt>
      <trkpt lat="45.83363" lon="4.69159">
        <ele>300.55</ele>
        <time>2013-10-12T09:58:58Z</time>
      </trkpt>
      <trkpt lat="45.83361" lon="4.6918">
        <ele>301.51</ele>
        <time>2013-10-12T09:59:08Z</time>
      </trkpt>
      <trkpt lat="45.83358" lon="4.69201">
        <ele>302.47</ele>
        <time>2013-10-12T09:59:17Z</time>
      </trkpt>
      <trkpt lat="45.83355" lon="4.69223">
        <ele>302.95</ele>
        <time>2013-10-12T09:59:26Z</time>
      </trkpt>
      <trkpt lat="45.83353" lon="4.6925">
        <ele>302.95</ele>
        <time>2013-10-12T09:59:35Z</time>
      </trkpt>
      <trkpt lat="45.83348" lon="4.69282">
        <ele>303.91</ele>
        <time>2013-10-12T09:59:46Z</time>
      </trkpt>
      <trkpt lat="45.83348" lon="4.69295">
        <ele>303.91</ele>
        <time>2013-10-12T09:59:51Z</time>
      </trkpt>
      <trkpt lat="45.83348" lon="4.69335">
        <ele>303.43</ele>
        <time>2013-10-12T10:00:01Z</time>
      </trkpt>
      <trkpt lat="45.83349" lon="4.69346">
        <ele>302.95</ele>
        <time>2013-10-12T10:00:08Z</time>
      </trkpt>
      <trkpt lat="45.83349" lon="4.69346">
        <ele>302.95</ele>
        <time>2013-10-12T10:00:25Z</time>
      </trkpt>
      <trkpt lat="45.83349" lon="4.69346">
        <ele>302.95</ele>
        <time>2013-10-12T10:00:45Z</time>
      </trkpt>
      <trkpt lat="45.83349" lon="4.69346">
        <ele>302.47</ele>
        <time>2013-10-12T10:00:59Z</time>
      </trkpt>
      <trkpt lat="45.83349" lon="4.69345">
        <ele>302.95</ele>
        <time>2013-10-12T10:01:15Z</time>
      </trkpt>
      <trkpt lat="45.8335" lon="4.69345">
        <ele>302.95</ele>
        <time>2013-10-12T10:01:35Z</time>
      </trkpt>
      <trkpt lat="45.8335" lon="4.69345">
        <ele>302.95</ele>
        <time>2013-10-12T10:01:52Z</time>
      </trkpt>
      <trkpt lat="45.83349" lon="4.69346">
        <ele>302.95</ele>
        <time>2013-10-12T10:02:00Z</time>
      </trkpt>
      <trkpt lat="45.83349" lon="4.69348">
        <ele>302.95</ele>
        <time>2013-10-12T10:02:01Z</time>
      </trkpt>
      <trkpt lat="45.83349" lon="4.6935">
        <ele>302.47</ele>
        <time>2013-10-12T10:02:02Z</time>
      </trkpt>
      <trkpt lat="45.83348" lon="4.69353">
        <ele>302.47</ele>
        <time>2013-10-12T10:02:03Z</time>
      </trkpt>
      <trkpt lat="45.83348" lon="4.69355">
        <ele>302.95</ele>
        <time>2013-10-12T10:02:04Z</time>
      </trkpt>
      <trkpt lat="45.83342" lon="4.69396">
        <ele>302.95</ele>
        <time>2013-10-12T10:02:15Z</time>
      </trkpt>
      <trkpt lat="45.83333" lon="4.69475">
        <ele>301.51</ele>
        <time>2013-10-12T10:02:31Z</time>
      </trkpt>
      <trkpt lat="45.83335" lon="4.69515">
        <ele>301.51</ele>
        <time>2013-10-12T10:02:38Z</time>
      </trkpt>
      <trkpt lat="45.83335" lon="4.69521">
        <ele>301.51</ele>
        <time>2013-10-12T10:02:39Z</time>
      </trkpt>
      <trkpt lat="45.83339" lon="4.69556">
        <ele>301.51</ele>
        <time>2013-10-12T10:02:45Z</time>
      </trkpt>
      <trkpt lat="45.8334" lon="4.69562">
        <ele>301.03</ele>
        <time>2013-10-12T10:02:46Z</time>
      </trkpt>
      <trkpt lat="45.83353" lon="4.69644">
        <ele>300.55</ele>
        <time>2013-10-12T10:02:59Z</time>
      </trkpt>
      <trkpt lat="45.83363" lon="4.69706">
        <ele>300.55</ele>
        <time>2013-10-12T10:03:09Z</time>
      </trkpt>
      <trkpt lat="45.83364" lon="4.69712">
        <ele>300.07</ele>
        <time>2013-10-12T10:03:10Z</time>
      </trkpt>
      <trkpt lat="45.83365" lon="4.69717">
        <ele>301.03</ele>
        <time>2013-10-12T10:03:11Z</time>
      </trkpt>
      <trkpt lat="45.83376" lon="4.69767">
        <ele>301.03</ele>
        <time>2013-10-12T10:03:20Z</time>
      </trkpt>
      <trkpt lat="45.83391" lon="4.69841">
        <ele>301.03</ele>
        <time>2013-10-12T10:03:34Z</time>
      </trkpt>
      <trkpt lat="45.83392" lon="4.69852">
        <ele>301.99</ele>
        <time>2013-10-12T10:03:37Z</time>
      </trkpt>
      <trkpt lat="45.83391" lon="4.69854">
        <ele>301.99</ele>
        <time>2013-10-12T10:03:38Z</time>
      </trkpt>
      <trkpt lat="45.8339" lon="4.69861">
        <ele>301.99</ele>
        <time>2013-10-12T10:03:43Z</time>
      </trkpt>
      <trkpt lat="45.83385" lon="4.69892">
        <ele>302.47</ele>
        <time>2013-10-12T10:03:54Z</time>
      </trkpt>
      <trkpt lat="45.834" lon="4.69924">
        <ele>301.03</ele>
        <time>2013-10-12T10:04:01Z</time>
      </trkpt>
      <trkpt lat="45.83402" lon="4.6993">
        <ele>301.51</ele>
        <time>2013-10-12T10:04:02Z</time>
      </trkpt>
      <trkpt lat="45.83403" lon="4.69936">
        <ele>301.51</ele>
        <time>2013-10-12T10:04:03Z</time>
      </trkpt>
      <trkpt lat="45.83403" lon="4.69942">
        <ele>301.99</ele>
        <time>2013-10-12T10:04:04Z</time>
      </trkpt>
      <trkpt lat="45.83402" lon="4.69948">
        <ele>301.99</ele>
        <time>2013-10-12T10:04:05Z</time>
      </trkpt>
      <trkpt lat="45.83401" lon="4.69953">
        <ele>302.47</ele>
        <time>2013-10-12T10:04:06Z</time>
      </trkpt>
      <trkpt lat="45.834" lon="4.69959">
        <ele>302.47</ele>
        <time>2013-10-12T10:04:07Z</time>
      </trkpt>
      <trkpt lat="45.83395" lon="4.70007">
        <ele>303.91</ele>
        <time>2013-10-12T10:04:17Z</time>
      </trkpt>
      <trkpt lat="45.83391" lon="4.70059">
        <ele>305.36</ele>
        <time>2013-10-12T10:04:28Z</time>
      </trkpt>
      <trkpt lat="45.83386" lon="4.70113">
        <ele>307.28</ele>
        <time>2013-10-12T10:04:40Z</time>
      </trkpt>
      <trkpt lat="45.83372" lon="4.70167">
        <ele>308.24</ele>
        <time>2013-10-12T10:04:52Z</time>
      </trkpt>
      <trkpt lat="45.83353" lon="4.70224">
        <ele>308.72</ele>
        <time>2013-10-12T10:05:04Z</time>
      </trkpt>
      <trkpt lat="45.83333" lon="4.70276">
        <ele>308.72</ele>
        <time>2013-10-12T10:05:16Z</time>
      </trkpt>
      <trkpt lat="45.8332" lon="4.70327">
        <ele>309.2</ele>
        <time>2013-10-12T10:05:27Z</time>
      </trkpt>
      <trkpt lat="45.83319" lon="4.70341">
        <ele>309.2</ele>
        <time>2013-10-12T10:05:30Z</time>
      </trkpt>
      <trkpt lat="45.83321" lon="4.70345">
        <ele>309.2</ele>
        <time>2013-10-12T10:05:31Z</time>
      </trkpt>
      <trkpt lat="45.83321" lon="4.7035">
        <ele>308.72</ele>
        <time>2013-10-12T10:05:32Z</time>
      </trkpt>
      <trkpt lat="45.83328" lon="4.70414">
        <ele>309.2</ele>
        <time>2013-10-12T10:05:44Z</time>
      </trkpt>
      <trkpt lat="45.83329" lon="4.70444">
        <ele>309.2</ele>
        <time>2013-10-12T10:05:49Z</time>
      </trkpt>
      <trkpt lat="45.8333" lon="4.7045">
        <ele>309.68</ele>
        <time>2013-10-12T10:05:50Z</time>
      </trkpt>
      <trkpt lat="45.83331" lon="4.70462">
        <ele>309.2</ele>
        <time>2013-10-12T10:05:52Z</time>
      </trkpt>
      <trkpt lat="45.83333" lon="4.70476">
        <ele>309.68</ele>
        <time>2013-10-12T10:05:54Z</time>
      </trkpt>
      <trkpt lat="45.83334" lon="4.70483">
        <ele>309.2</ele>
        <time>2013-10-12T10:05:55Z</time>
      </trkpt>
      <trkpt lat="45.83343" lon="4.70512">
        <ele>309.2</ele>
        <time>2013-10-12T10:05:59Z</time>
      </trkpt>
      <trkpt lat="45.83344" lon="4.70519">
        <ele>309.68</ele>
        <time>2013-10-12T10:06:00Z</time>
      </trkpt>
      <trkpt lat="45.83345" lon="4.70526">
        <ele>309.68</ele>
        <time>2013-10-12T10:06:01Z</time>
      </trkpt>
      <trkpt lat="45.83349" lon="4.70605">
        <ele>310.64</ele>
        <time>2013-10-12T10:06:13Z</time>
      </trkpt>
      <trkpt lat="45.83349" lon="4.70627">
        <ele>310.16</ele>
        <time>2013-10-12T10:06:16Z</time>
      </trkpt>
      <trkpt lat="45.8335" lon="4.70634">
        <ele>310.16</ele>
        <time>2013-10-12T10:06:17Z</time>
      </trkpt>
      <trkpt lat="45.83349" lon="4.70641">
        <ele>310.64</ele>
        <time>2013-10-12T10:06:18Z</time>
      </trkpt>
      <trkpt lat="45.83349" lon="4.70647">
        <ele>310.64</ele>
        <time>2013-10-12T10:06:19Z</time>
      </trkpt>
      <trkpt lat="45.83348" lon="4.70654">
        <ele>311.12</ele>
        <time>2013-10-12T10:06:20Z</time>
      </trkpt>
      <trkpt lat="45.83348" lon="4.7066">
        <ele>311.12</ele>
        <time>2013-10-12T10:06:21Z</time>
      </trkpt>
      <trkpt lat="45.83344" lon="4.70718">
        <ele>312.09</ele>
        <time>2013-10-12T10:06:32Z</time>
      </trkpt>
      <trkpt lat="45.83344" lon="4.70746">
        <ele>312.09</ele>
        <time>2013-10-12T10:06:37Z</time>
      </trkpt>
      <trkpt lat="45.83343" lon="4.70752">
        <ele>312.09</ele>
        <time>2013-10-12T10:06:38Z</time>
      </trkpt>
      <trkpt lat="45.83338" lon="4.70818">
        <ele>311.6</ele>
        <time>2013-10-12T10:06:48Z</time>
      </trkpt>
      <trkpt lat="45.83337" lon="4.70823">
        <ele>311.6</ele>
        <time>2013-10-12T10:06:49Z</time>
      </trkpt>
      <trkpt lat="45.83337" lon="4.70829">
        <ele>311.12</ele>
        <time>2013-10-12T10:06:50Z</time>
      </trkpt>
      <trkpt lat="45.83337" lon="4.70836">
        <ele>311.12</ele>
        <time>2013-10-12T10:06:51Z</time>
      </trkpt>
      <trkpt lat="45.83337" lon="4.70843">
        <ele>311.12</ele>
        <time>2013-10-12T10:06:52Z</time>
      </trkpt>
      <trkpt lat="45.83337" lon="4.7085">
        <ele>311.12</ele>
        <time>2013-10-12T10:06:53Z</time>
      </trkpt>
      <trkpt lat="45.83336" lon="4.70857">
        <ele>311.12</ele>
        <time>2013-10-12T10:06:54Z</time>
      </trkpt>
      <trkpt lat="45.8333" lon="4.70918">
        <ele>310.16</ele>
        <time>2013-10-12T10:07:02Z</time>
      </trkpt>
      <trkpt lat="45.83319" lon="4.70968">
        <ele>309.2</ele>
        <time>2013-10-12T10:07:09Z</time>
      </trkpt>
      <trkpt lat="45.83314" lon="4.7098">
        <ele>309.2</ele>
        <time>2013-10-12T10:07:11Z</time>
      </trkpt>
      <trkpt lat="45.83285" lon="4.71066">
        <ele>307.28</ele>
        <time>2013-10-12T10:07:24Z</time>
      </trkpt>
      <trkpt lat="45.83283" lon="4.7107">
        <ele>306.8</ele>
        <time>2013-10-12T10:07:25Z</time>
      </trkpt>
      <trkpt lat="45.83279" lon="4.71072">
        <ele>306.8</ele>
        <time>2013-10-12T10:07:26Z</time>
      </trkpt>
      <trkpt lat="45.83276" lon="4.71072">
        <ele>306.8</ele>
        <time>2013-10-12T10:07:27Z</time>
      </trkpt>
      <trkpt lat="45.83273" lon="4.71073">
        <ele>306.32</ele>
        <time>2013-10-12T10:07:28Z</time>
      </trkpt>
      <trkpt lat="45.83271" lon="4.71074">
        <ele>306.8</ele>
        <time>2013-10-12T10:07:29Z</time>
      </trkpt>
      <trkpt lat="45.83269" lon="4.71077">
        <ele>307.28</ele>
        <time>2013-10-12T10:07:30Z</time>
      </trkpt>
      <trkpt lat="45.83269" lon="4.71081">
        <ele>306.8</ele>
        <time>2013-10-12T10:07:31Z</time>
      </trkpt>
      <trkpt lat="45.8327" lon="4.71086">
        <ele>306.8</ele>
        <time>2013-10-12T10:07:32Z</time>
      </trkpt>
      <trkpt lat="45.83271" lon="4.71091">
        <ele>306.32</ele>
        <time>2013-10-12T10:07:33Z</time>
      </trkpt>
      <trkpt lat="45.83272" lon="4.71096">
        <ele>306.8</ele>
        <time>2013-10-12T10:07:34Z</time>
      </trkpt>
      <trkpt lat="45.83273" lon="4.71101">
        <ele>305.84</ele>
        <time>2013-10-12T10:07:35Z</time>
      </trkpt>
      <trkpt lat="45.83274" lon="4.71106">
        <ele>305.36</ele>
        <time>2013-10-12T10:07:36Z</time>
      </trkpt>
      <trkpt lat="45.83277" lon="4.71137">
        <ele>305.36</ele>
        <time>2013-10-12T10:07:41Z</time>
      </trkpt>
      <trkpt lat="45.83279" lon="4.7115">
        <ele>304.39</ele>
        <time>2013-10-12T10:07:43Z</time>
      </trkpt>
      <trkpt lat="45.8329" lon="4.71228">
        <ele>301.99</ele>
        <time>2013-10-12T10:07:52Z</time>
      </trkpt>
      <trkpt lat="45.83302" lon="4.71275">
        <ele>301.03</ele>
        <time>2013-10-12T10:07:57Z</time>
      </trkpt>
      <trkpt lat="45.83306" lon="4.71284">
        <ele>300.55</ele>
        <time>2013-10-12T10:07:58Z</time>
      </trkpt>
      <trkpt lat="45.8331" lon="4.71292">
        <ele>300.07</ele>
        <time>2013-10-12T10:07:59Z</time>
      </trkpt>
      <trkpt lat="45.83315" lon="4.713">
        <ele>299.59</ele>
        <time>2013-10-12T10:08:00Z</time>
      </trkpt>
      <trkpt lat="45.8332" lon="4.71308">
        <ele>299.59</ele>
        <time>2013-10-12T10:08:01Z</time>
      </trkpt>
      <trkpt lat="45.83375" lon="4.714">
        <ele>297.67</ele>
        <time>2013-10-12T10:08:13Z</time>
      </trkpt>
      <trkpt lat="45.83404" lon="4.71451">
        <ele>296.7</ele>
        <time>2013-10-12T10:08:20Z</time>
      </trkpt>
      <trkpt lat="45.83409" lon="4.71457">
        <ele>296.22</ele>
        <time>2013-10-12T10:08:21Z</time>
      </trkpt>
      <trkpt lat="45.83414" lon="4.71462">
        <ele>296.22</ele>
        <time>2013-10-12T10:08:22Z</time>
      </trkpt>
      <trkpt lat="45.83453" lon="4.71487">
        <ele>295.26</ele>
        <time>2013-10-12T10:08:31Z</time>
      </trkpt>
      <trkpt lat="45.83474" lon="4.71496">
        <ele>294.3</ele>
        <time>2013-10-12T10:08:42Z</time>
      </trkpt>
      <trkpt lat="45.83498" lon="4.71501">
        <ele>293.34</ele>
        <time>2013-10-12T10:08:53Z</time>
      </trkpt>
      <trkpt lat="45.83528" lon="4.71508">
        <ele>293.34</ele>
        <time>2013-10-12T10:09:02Z</time>
      </trkpt>
      <trkpt lat="45.83546" lon="4.71508">
        <ele>292.38</ele>
        <time>2013-10-12T10:09:06Z</time>
      </trkpt>
      <trkpt lat="45.83579" lon="4.71507">
        <ele>290.46</ele>
        <time>2013-10-12T10:09:15Z</time>
      </trkpt>
      <trkpt lat="45.83601" lon="4.71496">
        <ele>290.46</ele>
        <time>2013-10-12T10:09:23Z</time>
      </trkpt>
      <trkpt lat="45.83602" lon="4.71498">
        <ele>290.46</ele>
        <time>2013-10-12T10:09:24Z</time>
      </trkpt>
      <trkpt lat="45.83604" lon="4.71502">
        <ele>290.46</ele>
        <time>2013-10-12T10:09:25Z</time>
      </trkpt>
      <trkpt lat="45.83607" lon="4.71508">
        <ele>289.97</ele>
        <time>2013-10-12T10:09:26Z</time>
      </trkpt>
      <trkpt lat="45.83609" lon="4.71513">
        <ele>290.46</ele>
        <time>2013-10-12T10:09:27Z</time>
      </trkpt>
      <trkpt lat="45.83611" lon="4.71518">
        <ele>289.97</ele>
        <time>2013-10-12T10:09:28Z</time>
      </trkpt>
      <trkpt lat="45.83614" lon="4.71522">
        <ele>289.97</ele>
        <time>2013-10-12T10:09:29Z</time>
      </trkpt>
      <trkpt lat="45.83621" lon="4.71537">
        <ele>289.49</ele>
        <time>2013-10-12T10:09:33Z</time>
      </trkpt>
      <trkpt lat="45.83621" lon="4.71539">
        <ele>289.01</ele>
        <time>2013-10-12T10:09:34Z</time>
      </trkpt>
      <trkpt lat="45.8362" lon="4.71542">
        <ele>289.01</ele>
        <time>2013-10-12T10:09:35Z</time>
      </trkpt>
      <trkpt lat="45.83619" lon="4.71545">
        <ele>289.01</ele>
        <time>2013-10-12T10:09:36Z</time>
      </trkpt>
      <trkpt lat="45.83619" lon="4.71548">
        <ele>289.01</ele>
        <time>2013-10-12T10:09:37Z</time>
      </trkpt>
      <trkpt lat="45.83618" lon="4.71572">
        <ele>285.65</ele>
        <time>2013-10-12T10:09:43Z</time>
      </trkpt>
      <trkpt lat="45.83618" lon="4.71577">
        <ele>285.65</ele>
        <time>2013-10-12T10:09:44Z</time>
      </trkpt>
      <trkpt lat="45.83622" lon="4.71593">
        <ele>282.77</ele>
        <time>2013-10-12T10:09:48Z</time>
      </trkpt>
      <trkpt lat="45.83624" lon="4.71604">
        <ele>280.84</ele>
        <time>2013-10-12T10:09:51Z</time>
      </trkpt>
      <trkpt lat="45.83625" lon="4.71606">
        <ele>279.4</ele>
        <time>2013-10-12T10:09:52Z</time>
      </trkpt>
      <trkpt lat="45.83626" lon="4.71608">
        <ele>279.88</ele>
        <time>2013-10-12T10:09:53Z</time>
      </trkpt>
      <trkpt lat="45.83627" lon="4.7161">
        <ele>279.4</ele>
        <time>2013-10-12T10:09:54Z</time>
      </trkpt>
      <trkpt lat="45.83627" lon="4.71612">
        <ele>278.44</ele>
        <time>2013-10-12T10:09:55Z</time>
      </trkpt>
      <trkpt lat="45.83626" lon="4.71615">
        <ele>278.44</ele>
        <time>2013-10-12T10:09:56Z</time>
      </trkpt>
      <trkpt lat="45.83627" lon="4.71618">
        <ele>277</ele>
        <time>2013-10-12T10:09:57Z</time>
      </trkpt>
      <trkpt lat="45.83628" lon="4.71621">
        <ele>277</ele>
        <time>2013-10-12T10:09:58Z</time>
      </trkpt>
      <trkpt lat="45.83628" lon="4.71623">
        <ele>277</ele>
        <time>2013-10-12T10:09:59Z</time>
      </trkpt>
      <trkpt lat="45.83629" lon="4.71625">
        <ele>276.52</ele>
        <time>2013-10-12T10:10:00Z</time>
      </trkpt>
      <trkpt lat="45.83632" lon="4.71631">
        <ele>275.07</ele>
        <time>2013-10-12T10:10:03Z</time>
      </trkpt>
      <trkpt lat="45.83633" lon="4.71633">
        <ele>275.07</ele>
        <time>2013-10-12T10:10:04Z</time>
      </trkpt>
      <trkpt lat="45.83634" lon="4.71634">
        <ele>274.59</ele>
        <time>2013-10-12T10:10:05Z</time>
      </trkpt>
      <trkpt lat="45.83635" lon="4.71636">
        <ele>274.59</ele>
        <time>2013-10-12T10:10:06Z</time>
      </trkpt>
      <trkpt lat="45.83637" lon="4.71638">
        <ele>274.11</ele>
        <time>2013-10-12T10:10:07Z</time>
      </trkpt>
      <trkpt lat="45.83638" lon="4.7164">
        <ele>274.11</ele>
        <time>2013-10-12T10:10:08Z</time>
      </trkpt>
      <trkpt lat="45.8364" lon="4.71641">
        <ele>274.11</ele>
        <time>2013-10-12T10:10:09Z</time>
      </trkpt>
      <trkpt lat="45.83641" lon="4.71643">
        <ele>273.15</ele>
        <time>2013-10-12T10:10:10Z</time>
      </trkpt>
      <trkpt lat="45.83642" lon="4.71644">
        <ele>273.15</ele>
        <time>2013-10-12T10:10:11Z</time>
      </trkpt>
      <trkpt lat="45.83644" lon="4.71646">
        <ele>272.19</ele>
        <time>2013-10-12T10:10:12Z</time>
      </trkpt>
      <trkpt lat="45.83645" lon="4.71648">
        <ele>272.19</ele>
        <time>2013-10-12T10:10:13Z</time>
      </trkpt>
      <trkpt lat="45.83647" lon="4.71649">
        <ele>271.71</ele>
        <time>2013-10-12T10:10:14Z</time>
      </trkpt>
      <trkpt lat="45.83648" lon="4.7165">
        <ele>271.71</ele>
        <time>2013-10-12T10:10:15Z</time>
      </trkpt>
      <trkpt lat="45.8365" lon="4.71651">
        <ele>271.23</ele>
        <time>2013-10-12T10:10:16Z</time>
      </trkpt>
      <trkpt lat="45.83651" lon="4.71652">
        <ele>270.75</ele>
        <time>2013-10-12T10:10:17Z</time>
      </trkpt>
      <trkpt lat="45.83653" lon="4.71653">
        <ele>271.23</ele>
        <time>2013-10-12T10:10:18Z</time>
      </trkpt>
      <trkpt lat="45.83658" lon="4.71653">
        <ele>269.31</ele>
        <time>2013-10-12T10:10:21Z</time>
      </trkpt>
      <trkpt lat="45.8367" lon="4.7165">
        <ele>265.46</ele>
        <time>2013-10-12T10:10:27Z</time>
      </trkpt>
      <trkpt lat="45.83677" lon="4.71647">
        <ele>263.54</ele>
        <time>2013-10-12T10:10:29Z</time>
      </trkpt>
      <trkpt lat="45.83681" lon="4.71648">
        <ele>262.1</ele>
        <time>2013-10-12T10:10:30Z</time>
      </trkpt>
      <trkpt lat="45.83684" lon="4.71652">
        <ele>260.65</ele>
        <time>2013-10-12T10:10:31Z</time>
      </trkpt>
      <trkpt lat="45.83692" lon="4.71665">
        <ele>259.69</ele>
        <time>2013-10-12T10:10:33Z</time>
      </trkpt>
      <trkpt lat="45.83695" lon="4.71672">
        <ele>259.21</ele>
        <time>2013-10-12T10:10:34Z</time>
      </trkpt>
      <trkpt lat="45.83699" lon="4.71678">
        <ele>259.21</ele>
        <time>2013-10-12T10:10:35Z</time>
      </trkpt>
      <trkpt lat="45.83706" lon="4.7169">
        <ele>259.21</ele>
        <time>2013-10-12T10:10:37Z</time>
      </trkpt>
      <trkpt lat="45.83711" lon="4.71694">
        <ele>259.69</ele>
        <time>2013-10-12T10:10:38Z</time>
      </trkpt>
      <trkpt lat="45.83715" lon="4.71695">
        <ele>259.69</ele>
        <time>2013-10-12T10:10:39Z</time>
      </trkpt>
      <trkpt lat="45.83719" lon="4.71695">
        <ele>259.69</ele>
        <time>2013-10-12T10:10:40Z</time>
      </trkpt>
      <trkpt lat="45.83722" lon="4.71695">
        <ele>259.69</ele>
        <time>2013-10-12T10:10:41Z</time>
      </trkpt>
      <trkpt lat="45.83725" lon="4.71695">
        <ele>260.17</ele>
        <time>2013-10-12T10:10:42Z</time>
      </trkpt>
      <trkpt lat="45.83728" lon="4.71696">
        <ele>260.65</ele>
        <time>2013-10-12T10:10:43Z</time>
      </trkpt>
      <trkpt lat="45.83731" lon="4.71697">
        <ele>260.65</ele>
        <time>2013-10-12T10:10:44Z</time>
      </trkpt>
      <trkpt lat="45.8374" lon="4.71699">
        <ele>261.62</ele>
        <time>2013-10-12T10:10:47Z</time>
      </trkpt>
      <trkpt lat="45.83743" lon="4.717">
        <ele>261.62</ele>
        <time>2013-10-12T10:10:48Z</time>
      </trkpt>
      <trkpt lat="45.83745" lon="4.71701">
        <ele>262.58</ele>
        <time>2013-10-12T10:10:49Z</time>
      </trkpt>
      <trkpt lat="45.83747" lon="4.71701">
        <ele>262.1</ele>
        <time>2013-10-12T10:10:50Z</time>
      </trkpt>
      <trkpt lat="45.83761" lon="4.71701">
        <ele>264.5</ele>
        <time>2013-10-12T10:10:59Z</time>
      </trkpt>
      <trkpt lat="45.83776" lon="4.71703">
        <ele>266.42</ele>
        <time>2013-10-12T10:11:10Z</time>
      </trkpt>
      <trkpt lat="45.83788" lon="4.71706">
        <ele>268.35</ele>
        <time>2013-10-12T10:11:20Z</time>
      </trkpt>
      <trkpt lat="45.83793" lon="4.71707">
        <ele>268.83</ele>
        <time>2013-10-12T10:11:24Z</time>
      </trkpt>
      <trkpt lat="45.83794" lon="4.71707">
        <ele>268.83</ele>
        <time>2013-10-12T10:11:25Z</time>
      </trkpt>
      <trkpt lat="45.83796" lon="4.71707">
        <ele>269.31</ele>
        <time>2013-10-12T10:11:26Z</time>
      </trkpt>
      <trkpt lat="45.83807" lon="4.7171">
        <ele>270.27</ele>
        <time>2013-10-12T10:11:36Z</time>
      </trkpt>
      <trkpt lat="45.83818" lon="4.71717">
        <ele>271.23</ele>
        <time>2013-10-12T10:11:46Z</time>
      </trkpt>
      <trkpt lat="45.83833" lon="4.71721">
        <ele>271.23</ele>
        <time>2013-10-12T10:11:54Z</time>
      </trkpt>
      <trkpt lat="45.83852" lon="4.71727">
        <ele>271.23</ele>
        <time>2013-10-12T10:12:04Z</time>
      </trkpt>
      <trkpt lat="45.83863" lon="4.71731">
        <ele>271.71</ele>
        <time>2013-10-12T10:12:09Z</time>
      </trkpt>
      <trkpt lat="45.83865" lon="4.71732">
        <ele>272.19</ele>
        <time>2013-10-12T10:12:10Z</time>
      </trkpt>
      <trkpt lat="45.83867" lon="4.71733">
        <ele>272.19</ele>
        <time>2013-10-12T10:12:11Z</time>
      </trkpt>
      <trkpt lat="45.8387" lon="4.71733">
        <ele>271.71</ele>
        <time>2013-10-12T10:12:12Z</time>
      </trkpt>
      <trkpt lat="45.83873" lon="4.71734">
        <ele>272.19</ele>
        <time>2013-10-12T10:12:13Z</time>
      </trkpt>
      <trkpt lat="45.83876" lon="4.71735">
        <ele>272.67</ele>
        <time>2013-10-12T10:12:14Z</time>
      </trkpt>
      <trkpt lat="45.83878" lon="4.71736">
        <ele>272.67</ele>
        <time>2013-10-12T10:12:15Z</time>
      </trkpt>
      <trkpt lat="45.8389" lon="4.71742">
        <ele>274.59</ele>
        <time>2013-10-12T10:12:22Z</time>
      </trkpt>
      <trkpt lat="45.83908" lon="4.71747">
        <ele>275.07</ele>
        <time>2013-10-12T10:12:29Z</time>
      </trkpt>
      <trkpt lat="45.83929" lon="4.71756">
        <ele>275.07</ele>
        <time>2013-10-12T10:12:39Z</time>
      </trkpt>
      <trkpt lat="45.83945" lon="4.71773">
        <ele>274.11</ele>
        <time>2013-10-12T10:12:48Z</time>
      </trkpt>
      <trkpt lat="45.83952" lon="4.71801">
        <ele>276.04</ele>
        <time>2013-10-12T10:12:58Z</time>
      </trkpt>
      <trkpt lat="45.83965" lon="4.71825">
        <ele>275.56</ele>
        <time>2013-10-12T10:13:06Z</time>
      </trkpt>
      <trkpt lat="45.83982" lon="4.71851">
        <ele>276.04</ele>
        <time>2013-10-12T10:13:16Z</time>
      </trkpt>
      <trkpt lat="45.83998" lon="4.71876">
        <ele>276.52</ele>
        <time>2013-10-12T10:13:25Z</time>
      </trkpt>
      <trkpt lat="45.84006" lon="4.71911">
        <ele>276.04</ele>
        <time>2013-10-12T10:13:34Z</time>
      </trkpt>
      <trkpt lat="45.84008" lon="4.71954">
        <ele>273.63</ele>
        <time>2013-10-12T10:13:40Z</time>
      </trkpt>
      <trkpt lat="45.84011" lon="4.71988">
        <ele>271.71</ele>
        <time>2013-10-12T10:13:44Z</time>
      </trkpt>
      <trkpt lat="45.84017" lon="4.72084">
        <ele>269.79</ele>
        <time>2013-10-12T10:13:54Z</time>
      </trkpt>
      <trkpt lat="45.84021" lon="4.72112">
        <ele>270.27</ele>
        <time>2013-10-12T10:13:57Z</time>
      </trkpt>
      <trkpt lat="45.84021" lon="4.7212">
        <ele>270.27</ele>
        <time>2013-10-12T10:13:58Z</time>
      </trkpt>
      <trkpt lat="45.84021" lon="4.72128">
        <ele>270.27</ele>
        <time>2013-10-12T10:13:59Z</time>
      </trkpt>
      <trkpt lat="45.8402" lon="4.72158">
        <ele>271.23</ele>
        <time>2013-10-12T10:14:05Z</time>
      </trkpt>
      <trkpt lat="45.84018" lon="4.72161">
        <ele>271.23</ele>
        <time>2013-10-12T10:14:06Z</time>
      </trkpt>
      <trkpt lat="45.84015" lon="4.72162">
        <ele>271.23</ele>
        <time>2013-10-12T10:14:07Z</time>
      </trkpt>
      <trkpt lat="45.84012" lon="4.72164">
        <ele>271.71</ele>
        <time>2013-10-12T10:14:08Z</time>
      </trkpt>
      <trkpt lat="45.84009" lon="4.72166">
        <ele>271.71</ele>
        <time>2013-10-12T10:14:09Z</time>
      </trkpt>
      <trkpt lat="45.83977" lon="4.72164">
        <ele>271.23</ele>
        <time>2013-10-12T10:14:17Z</time>
      </trkpt>
      <trkpt lat="45.8396" lon="4.72161">
        <ele>271.23</ele>
        <time>2013-10-12T10:14:21Z</time>
      </trkpt>
      <trkpt lat="45.83956" lon="4.7216">
        <ele>271.23</ele>
        <time>2013-10-12T10:14:22Z</time>
      </trkpt>
      <trkpt lat="45.83952" lon="4.7216">
        <ele>271.71</ele>
        <time>2013-10-12T10:14:23Z</time>
      </trkpt>
      <trkpt lat="45.83949" lon="4.72159">
        <ele>271.23</ele>
        <time>2013-10-12T10:14:24Z</time>
      </trkpt>
      <trkpt lat="45.83946" lon="4.72157">
        <ele>271.23</ele>
        <time>2013-10-12T10:14:25Z</time>
      </trkpt>
      <trkpt lat="45.83943" lon="4.72157">
        <ele>271.71</ele>
        <time>2013-10-12T10:14:26Z</time>
      </trkpt>
      <trkpt lat="45.83941" lon="4.72158">
        <ele>271.23</ele>
        <time>2013-10-12T10:14:27Z</time>
      </trkpt>
      <trkpt lat="45.8394" lon="4.7216">
        <ele>270.75</ele>
        <time>2013-10-12T10:14:28Z</time>
      </trkpt>
      <trkpt lat="45.8394" lon="4.72165">
        <ele>270.75</ele>
        <time>2013-10-12T10:14:36Z</time>
      </trkpt>
      <trkpt lat="45.83941" lon="4.72168">
        <ele>271.23</ele>
        <time>2013-10-12T10:14:37Z</time>
      </trkpt>
      <trkpt lat="45.83942" lon="4.72171">
        <ele>271.23</ele>
        <time>2013-10-12T10:14:38Z</time>
      </trkpt>
      <trkpt lat="45.83944" lon="4.72174">
        <ele>270.27</ele>
        <time>2013-10-12T10:14:39Z</time>
      </trkpt>
      <trkpt lat="45.83946" lon="4.72177">
        <ele>270.75</ele>
        <time>2013-10-12T10:14:40Z</time>
      </trkpt>
      <trkpt lat="45.83965" lon="4.72217">
        <ele>270.75</ele>
        <time>2013-10-12T10:14:49Z</time>
      </trkpt>
      <trkpt lat="45.84004" lon="4.72293">
        <ele>269.79</ele>
        <time>2013-10-12T10:15:02Z</time>
      </trkpt>
      <trkpt lat="45.84013" lon="4.72305">
        <ele>269.31</ele>
        <time>2013-10-12T10:15:04Z</time>
      </trkpt>
      <trkpt lat="45.84018" lon="4.7231">
        <ele>269.31</ele>
        <time>2013-10-12T10:15:05Z</time>
      </trkpt>
      <trkpt lat="45.84025" lon="4.72315">
        <ele>268.35</ele>
        <time>2013-10-12T10:15:06Z</time>
      </trkpt>
      <trkpt lat="45.84032" lon="4.7232">
        <ele>268.35</ele>
        <time>2013-10-12T10:15:07Z</time>
      </trkpt>
      <trkpt lat="45.84039" lon="4.72324">
        <ele>267.86</ele>
        <time>2013-10-12T10:15:08Z</time>
      </trkpt>
      <trkpt lat="45.84054" lon="4.72332">
        <ele>266.9</ele>
        <time>2013-10-12T10:15:10Z</time>
      </trkpt>
      <trkpt lat="45.84103" lon="4.72354">
        <ele>263.06</ele>
        <time>2013-10-12T10:15:16Z</time>
      </trkpt>
      <trkpt lat="45.84112" lon="4.72358">
        <ele>263.06</ele>
        <time>2013-10-12T10:15:17Z</time>
      </trkpt>
      <trkpt lat="45.84145" lon="4.72373">
        <ele>261.14</ele>
        <time>2013-10-12T10:15:21Z</time>
      </trkpt>
      <trkpt lat="45.84163" lon="4.72381">
        <ele>260.17</ele>
        <time>2013-10-12T10:15:23Z</time>
      </trkpt>
      <trkpt lat="45.84209" lon="4.72404">
        <ele>255.85</ele>
        <time>2013-10-12T10:15:28Z</time>
      </trkpt>
      <trkpt lat="45.84241" lon="4.7241">
        <ele>253.93</ele>
        <time>2013-10-12T10:15:31Z</time>
      </trkpt>
      <trkpt lat="45.84272" lon="4.7241">
        <ele>252</ele>
        <time>2013-10-12T10:15:34Z</time>
      </trkpt>
      <trkpt lat="45.84313" lon="4.72409">
        <ele>249.6</ele>
        <time>2013-10-12T10:15:38Z</time>
      </trkpt>
      <trkpt lat="45.8435" lon="4.72415">
        <ele>246.23</ele>
        <time>2013-10-12T10:15:42Z</time>
      </trkpt>
      <trkpt lat="45.84403" lon="4.72429">
        <ele>242.87</ele>
        <time>2013-10-12T10:15:48Z</time>
      </trkpt>
      <trkpt lat="45.84416" lon="4.72434">
        <ele>242.39</ele>
        <time>2013-10-12T10:15:50Z</time>
      </trkpt>
      <trkpt lat="45.84422" lon="4.72438">
        <ele>241.91</ele>
        <time>2013-10-12T10:15:51Z</time>
      </trkpt>
      <trkpt lat="45.84428" lon="4.72443">
        <ele>242.39</ele>
        <time>2013-10-12T10:15:52Z</time>
      </trkpt>
      <trkpt lat="45.84433" lon="4.72447">
        <ele>241.91</ele>
        <time>2013-10-12T10:15:53Z</time>
      </trkpt>
      <trkpt lat="45.84438" lon="4.72449">
        <ele>241.91</ele>
        <time>2013-10-12T10:15:54Z</time>
      </trkpt>
      <trkpt lat="45.84443" lon="4.7245">
        <ele>242.39</ele>
        <time>2013-10-12T10:15:55Z</time>
      </trkpt>
      <trkpt lat="45.84448" lon="4.7245">
        <ele>242.39</ele>
        <time>2013-10-12T10:15:56Z</time>
      </trkpt>
      <trkpt lat="45.84453" lon="4.7245">
        <ele>242.39</ele>
        <time>2013-10-12T10:15:57Z</time>
      </trkpt>
      <trkpt lat="45.84459" lon="4.72451">
        <ele>242.87</ele>
        <time>2013-10-12T10:15:58Z</time>
      </trkpt>
      <trkpt lat="45.84463" lon="4.72455">
        <ele>242.87</ele>
        <time>2013-10-12T10:15:59Z</time>
      </trkpt>
      <trkpt lat="45.84467" lon="4.7246">
        <ele>242.87</ele>
        <time>2013-10-12T10:16:00Z</time>
      </trkpt>
      <trkpt lat="45.84469" lon="4.72467">
        <ele>243.35</ele>
        <time>2013-10-12T10:16:01Z</time>
      </trkpt>
      <trkpt lat="45.8447" lon="4.72473">
        <ele>243.35</ele>
        <time>2013-10-12T10:16:02Z</time>
      </trkpt>
      <trkpt lat="45.84471" lon="4.72479">
        <ele>243.35</ele>
        <time>2013-10-12T10:16:03Z</time>
      </trkpt>
      <trkpt lat="45.84472" lon="4.72485">
        <ele>243.35</ele>
        <time>2013-10-12T10:16:04Z</time>
      </trkpt>
      <trkpt lat="45.84487" lon="4.72539">
        <ele>245.27</ele>
        <time>2013-10-12T10:16:16Z</time>
      </trkpt>
      <trkpt lat="45.84506" lon="4.72569">
        <ele>246.23</ele>
        <time>2013-10-12T10:16:26Z</time>
      </trkpt>
      <trkpt lat="45.84527" lon="4.72599">
        <ele>247.68</ele>
        <time>2013-10-12T10:16:37Z</time>
      </trkpt>
      <trkpt lat="45.84545" lon="4.72602">
        <ele>249.6</ele>
        <time>2013-10-12T10:16:46Z</time>
      </trkpt>
      <trkpt lat="45.8455" lon="4.72601">
        <ele>250.08</ele>
        <time>2013-10-12T10:16:49Z</time>
      </trkpt>
      <trkpt lat="45.84552" lon="4.72602">
        <ele>250.08</ele>
        <time>2013-10-12T10:16:50Z</time>
      </trkpt>
      <trkpt lat="45.84553" lon="4.72602">
        <ele>250.08</ele>
        <time>2013-10-12T10:16:51Z</time>
      </trkpt>
      <trkpt lat="45.84555" lon="4.72602">
        <ele>250.56</ele>
        <time>2013-10-12T10:16:52Z</time>
      </trkpt>
      <trkpt lat="45.84556" lon="4.72602">
        <ele>251.04</ele>
        <time>2013-10-12T10:16:53Z</time>
      </trkpt>
      <trkpt lat="45.84558" lon="4.72602">
        <ele>251.04</ele>
        <time>2013-10-12T10:16:54Z</time>
      </trkpt>
      <trkpt lat="45.84559" lon="4.72602">
        <ele>251.04</ele>
        <time>2013-10-12T10:16:55Z</time>
      </trkpt>
      <trkpt lat="45.84574" lon="4.72594">
        <ele>253.93</ele>
        <time>2013-10-12T10:17:07Z</time>
      </trkpt>
      <trkpt lat="45.84575" lon="4.72592">
        <ele>253.93</ele>
        <time>2013-10-12T10:17:08Z</time>
      </trkpt>
      <trkpt lat="45.84575" lon="4.7259">
        <ele>253.93</ele>
        <time>2013-10-12T10:17:09Z</time>
      </trkpt>
      <trkpt lat="45.84575" lon="4.72588">
        <ele>254.41</ele>
        <time>2013-10-12T10:17:10Z</time>
      </trkpt>
      <trkpt lat="45.84575" lon="4.72586">
        <ele>254.41</ele>
        <time>2013-10-12T10:17:11Z</time>
      </trkpt>
      <trkpt lat="45.84575" lon="4.72584">
        <ele>254.89</ele>
        <time>2013-10-12T10:17:12Z</time>
      </trkpt>
      <trkpt lat="45.84576" lon="4.72582">
        <ele>254.89</ele>
        <time>2013-10-12T10:17:13Z</time>
      </trkpt>
      <trkpt lat="45.84576" lon="4.7258">
        <ele>254.89</ele>
        <time>2013-10-12T10:17:14Z</time>
      </trkpt>
      <trkpt lat="45.84576" lon="4.72578">
        <ele>255.37</ele>
        <time>2013-10-12T10:17:15Z</time>
      </trkpt>
      <trkpt lat="45.84576" lon="4.72576">
        <ele>255.37</ele>
        <time>2013-10-12T10:17:16Z</time>
      </trkpt>
      <trkpt lat="45.84576" lon="4.72575">
        <ele>255.85</ele>
        <time>2013-10-12T10:17:17Z</time>
      </trkpt>
      <trkpt lat="45.84577" lon="4.72573">
        <ele>256.33</ele>
        <time>2013-10-12T10:17:18Z</time>
      </trkpt>
      <trkpt lat="45.84577" lon="4.72569">
        <ele>256.81</ele>
        <time>2013-10-12T10:17:20Z</time>
      </trkpt>
      <trkpt lat="45.84577" lon="4.72567">
        <ele>256.33</ele>
        <time>2013-10-12T10:17:21Z</time>
      </trkpt>
      <trkpt lat="45.84577" lon="4.72566">
        <ele>256.81</ele>
        <time>2013-10-12T10:17:22Z</time>
      </trkpt>
      <trkpt lat="45.84578" lon="4.72542">
        <ele>259.21</ele>
        <time>2013-10-12T10:17:35Z</time>
      </trkpt>
      <trkpt lat="45.84579" lon="4.7254">
        <ele>259.69</ele>
        <time>2013-10-12T10:17:36Z</time>
      </trkpt>
      <trkpt lat="45.8458" lon="4.72539">
        <ele>259.69</ele>
        <time>2013-10-12T10:17:37Z</time>
      </trkpt>
      <trkpt lat="45.84581" lon="4.72538">
        <ele>259.69</ele>
        <time>2013-10-12T10:17:38Z</time>
      </trkpt>
      <trkpt lat="45.84583" lon="4.72537">
        <ele>260.17</ele>
        <time>2013-10-12T10:17:39Z</time>
      </trkpt>
      <trkpt lat="45.846" lon="4.72535">
        <ele>261.14</ele>
        <time>2013-10-12T10:17:50Z</time>
      </trkpt>
      <trkpt lat="45.84612" lon="4.72536">
        <ele>261.14</ele>
        <time>2013-10-12T10:17:57Z</time>
      </trkpt>
      <trkpt lat="45.84614" lon="4.72536">
        <ele>261.14</ele>
        <time>2013-10-12T10:17:58Z</time>
      </trkpt>
      <trkpt lat="45.84629" lon="4.72537">
        <ele>262.58</ele>
        <time>2013-10-12T10:18:08Z</time>
      </trkpt>
      <trkpt lat="45.84645" lon="4.72539">
        <ele>264.5</ele>
        <time>2013-10-12T10:18:19Z</time>
      </trkpt>
      <trkpt lat="45.84646" lon="4.72539">
        <ele>264.5</ele>
        <time>2013-10-12T10:18:20Z</time>
      </trkpt>
      <trkpt lat="45.84649" lon="4.7254">
        <ele>264.98</ele>
        <time>2013-10-12T10:18:22Z</time>
      </trkpt>
      <trkpt lat="45.84651" lon="4.7254">
        <ele>264.98</ele>
        <time>2013-10-12T10:18:23Z</time>
      </trkpt>
      <trkpt lat="45.84652" lon="4.72541">
        <ele>264.98</ele>
        <time>2013-10-12T10:18:24Z</time>
      </trkpt>
      <trkpt lat="45.84664" lon="4.72542">
        <ele>266.9</ele>
        <time>2013-10-12T10:18:33Z</time>
      </trkpt>
      <trkpt lat="45.8468" lon="4.72542">
        <ele>269.31</ele>
        <time>2013-10-12T10:18:45Z</time>
      </trkpt>
      <trkpt lat="45.84682" lon="4.72542">
        <ele>269.31</ele>
        <time>2013-10-12T10:18:46Z</time>
      </trkpt>
      <trkpt lat="45.84683" lon="4.72542">
        <ele>269.79</ele>
        <time>2013-10-12T10:18:47Z</time>
      </trkpt>
      <trkpt lat="45.84685" lon="4.72542">
        <ele>269.79</ele>
        <time>2013-10-12T10:18:48Z</time>
      </trkpt>
      <trkpt lat="45.84686" lon="4.72542">
        <ele>269.79</ele>
        <time>2013-10-12T10:18:49Z</time>
      </trkpt>
      <trkpt lat="45.84687" lon="4.72542">
        <ele>270.75</ele>
        <time>2013-10-12T10:18:50Z</time>
      </trkpt>
      <trkpt lat="45.84689" lon="4.72543">
        <ele>270.27</ele>
        <time>2013-10-12T10:18:51Z</time>
      </trkpt>
      <trkpt lat="45.8469" lon="4.72543">
        <ele>270.75</ele>
        <time>2013-10-12T10:18:52Z</time>
      </trkpt>
      <trkpt lat="45.84691" lon="4.72543">
        <ele>270.75</ele>
        <time>2013-10-12T10:18:53Z</time>
      </trkpt>
      <trkpt lat="45.84693" lon="4.72541">
        <ele>270.75</ele>
        <time>2013-10-12T10:18:55Z</time>
      </trkpt>
      <trkpt lat="45.84698" lon="4.72542">
        <ele>272.19</ele>
        <time>2013-10-12T10:18:59Z</time>
      </trkpt>
      <trkpt lat="45.84699" lon="4.72543">
        <ele>272.19</ele>
        <time>2013-10-12T10:19:00Z</time>
      </trkpt>
      <trkpt lat="45.847" lon="4.72545">
        <ele>272.67</ele>
        <time>2013-10-12T10:19:01Z</time>
      </trkpt>
      <trkpt lat="45.84701" lon="4.72546">
        <ele>272.19</ele>
        <time>2013-10-12T10:19:02Z</time>
      </trkpt>
      <trkpt lat="45.84702" lon="4.72548">
        <ele>272.67</ele>
        <time>2013-10-12T10:19:03Z</time>
      </trkpt>
      <trkpt lat="45.84706" lon="4.72555">
        <ele>273.15</ele>
        <time>2013-10-12T10:19:08Z</time>
      </trkpt>
      <trkpt lat="45.84707" lon="4.72557">
        <ele>273.15</ele>
        <time>2013-10-12T10:19:09Z</time>
      </trkpt>
      <trkpt lat="45.84709" lon="4.7256">
        <ele>274.11</ele>
        <time>2013-10-12T10:19:11Z</time>
      </trkpt>
      <trkpt lat="45.8471" lon="4.72561">
        <ele>274.11</ele>
        <time>2013-10-12T10:19:12Z</time>
      </trkpt>
      <trkpt lat="45.84711" lon="4.72563">
        <ele>274.11</ele>
        <time>2013-10-12T10:19:13Z</time>
      </trkpt>
      <trkpt lat="45.84711" lon="4.72565">
        <ele>274.11</ele>
        <time>2013-10-12T10:19:14Z</time>
      </trkpt>
      <trkpt lat="45.84712" lon="4.72566">
        <ele>274.59</ele>
        <time>2013-10-12T10:19:15Z</time>
      </trkpt>
      <trkpt lat="45.84713" lon="4.72568">
        <ele>274.11</ele>
        <time>2013-10-12T10:19:23Z</time>
      </trkpt>
      <trkpt lat="45.84713" lon="4.7257">
        <ele>274.11</ele>
        <time>2013-10-12T10:19:35Z</time>
      </trkpt>
      <trkpt lat="45.84713" lon="4.7257">
        <ele>274.59</ele>
        <time>2013-10-12T10:19:57Z</time>
      </trkpt>
      <trkpt lat="45.84713" lon="4.72571">
        <ele>274.59</ele>
        <time>2013-10-12T10:20:18Z</time>
      </trkpt>
      <trkpt lat="45.84713" lon="4.72571">
        <ele>274.59</ele>
        <time>2013-10-12T10:20:40Z</time>
      </trkpt>
      <trkpt lat="45.84714" lon="4.72574">
        <ele>275.56</ele>
        <time>2013-10-12T10:20:49Z</time>
      </trkpt>
      <trkpt lat="45.84716" lon="4.7258">
        <ele>277.48</ele>
        <time>2013-10-12T10:21:02Z</time>
      </trkpt>
      <trkpt lat="45.84717" lon="4.72585">
        <ele>278.44</ele>
        <time>2013-10-12T10:21:22Z</time>
      </trkpt>
      <trkpt lat="45.84719" lon="4.72588">
        <ele>278.92</ele>
        <time>2013-10-12T10:21:39Z</time>
      </trkpt>
      <trkpt lat="45.84719" lon="4.72588">
        <ele>279.88</ele>
        <time>2013-10-12T10:21:59Z</time>
      </trkpt>
      <trkpt lat="45.84723" lon="4.72594">
        <ele>280.36</ele>
        <time>2013-10-12T10:22:08Z</time>
      </trkpt>
      <trkpt lat="45.84726" lon="4.72597">
        <ele>281.8</ele>
        <time>2013-10-12T10:22:18Z</time>
      </trkpt>
      <trkpt lat="45.84726" lon="4.72598">
        <ele>282.77</ele>
        <time>2013-10-12T10:22:27Z</time>
      </trkpt>
      <trkpt lat="45.84726" lon="4.72598">
        <ele>282.28</ele>
        <time>2013-10-12T10:22:49Z</time>
      </trkpt>
      <trkpt lat="45.84726" lon="4.72599">
        <ele>281.8</ele>
        <time>2013-10-12T10:23:09Z</time>
      </trkpt>
      <trkpt lat="45.84726" lon="4.72599">
        <ele>281.8</ele>
        <time>2013-10-12T10:23:35Z</time>
      </trkpt>
      <trkpt lat="45.84726" lon="4.72598">
        <ele>282.28</ele>
        <time>2013-10-12T10:23:45Z</time>
      </trkpt>
    </trkseg>
  </trk>
</gpx>